[[{"header":{"parameterUnit":"m.s-1","parameterCategory":1,"la1":30.6,"la2":28.766,"lo1":-90.7593,"lo2":-88.6598,"dy":0.0162,"dx":0.0183,"nx":116,"ny":114,"refTime":"2023-06-07T06:00:00:Z","depth":0,"parameterNumber":2,"parameterNumberName":"U-component_of_WINDS"},"data":[0.0,0.0,0.0,0.0,0.0,0.0,0.0,0.0,0.0,0.0,0.0,0.0,0.0,0.0,0.0,0.0,0.0,0.0,0.0,0.0,0.0,0.0,0.0,0.0,0.0,0.0,0.0,0.0,0.0,0.0,0.0,0.0,0.0,0.0,0.0,0.0,0.0,0.0,0.0,0.0,0.0,0.0,0.0,0.0,0.0,0.0,0.0,0.0,0.0,0.0,0.0,0.0,0.0,0.0,0.0,0.0,0.0,0.0,0.0,0.0,0.0,0.0,0.0,0.0,0.0,0.0,0.0,0.0,0.0,0.0,0.0,0.0,0.0,0.0,0.0,0.0,0.0,0.0,0.0,0.0,0.0,0.0,0.0,0.0,0.0,0.0,0.0,0.0,0.0,0.0,0.0,0.0,0.0,0.0,0.0,0.0,0.0,0.0,0.0,0.0,0.0,0.0,0.0,0.0,0.0,0.0,0.0,0.0,0.0,0.0,0.0,0.0,0.0,0.0,0.0,0.0,0.0,0.0,0.0,0.0,0.0,0.0,0.0,0.0,0.0,0.0,0.0,0.0,0.0,0.0,0.0,0.0,0.0,0.0,0.0,0.0,0.0,0.0,0.0,0.0,0.0,0.0,0.0,0.0,0.0,0.0,0.0,0.0,0.0,0.0,0.0,0.0,0.0,0.0,0.0,0.0,0.0,0.0,0.0,0.0,0.0,0.0,0.0,0.0,0.0,0.0,0.0,0.0,0.0,0.0,0.0,0.0,0.0,0.0,0.0,0.0,0.0,0.0,0.0,0.0,0.0,0.0,0.0,0.0,0.0,0.0,0.0,0.0,0.0,0.0,0.0,0.0,0.0,0.0,0.0,0.0,0.0,0.0,0.0,0.0,0.0,0.0,0.0,0.0,0.0,0.0,0.0,0.0,0.0,0.0,0.0,0.0,0.0,0.0,0.0,0.0,0.0,0.0,0.0,0.0,0.0,0.0,0.0,0.0,0.0,0.0,0.0,0.0,0.0,0.0,0.0,0.0,0.0,0.0,0.0,0.0,0.0,0.0,0.0,0.0,0.0,0.0,0.0,0.0,0.0,0.0,0.0,0.0,0.0,0.0,0.0,0.0,0.0,0.0,0.0,0.0,0.0,0.0,0.0,0.0,0.0,0.0,0.0,0.0,0.0,0.0,0.0,0.0,0.0,0.0,0.0,0.0,0.0,0.0,0.0,0.0,0.0,0.0,0.0,0.0,0.0,0.0,0.0,0.0,0.0,0.0,0.0,0.0,0.0,0.0,0.0,0.0,0.0,0.0,0.0,0.0,0.0,0.0,0.0,0.0,0.0,0.0,0.0,0.0,0.0,0.0,0.0,0.0,0.0,0.0,0.0,0.0,0.0,0.0,0.0,0.0,0.0,0.0,0.0,0.0,0.0,0.0,0.0,0.0,0.0,0.0,0.0,0.0,0.0,0.0,0.0,0.0,0.0,0.0,0.0,0.0,0.0,0.0,0.0,0.0,0.0,0.0,0.0,0.0,0.0,0.0,0.0,0.0,0.0,0.0,0.0,0.0,0.0,0.0,0.0,0.0,0.0,0.0,0.0,0.0,0.0,0.0,0.0,0.0,0.0,0.0,0.0,0.0,0.0,0.0,0.0,0.0,0.0,0.0,0.0,0.0,0.0,0.0,0.0,0.0,0.0,0.0,0.0,0.0,0.0,0.0,0.0,0.0,0.0,0.0,0.0,0.0,0.0,0.0,0.0,0.0,0.0,0.0,0.0,0.0,0.0,0.0,0.0,0.0,0.0,0.0,0.0,0.0,0.0,0.0,0.0,0.0,0.0,0.0,0.0,0.0,0.0,0.0,0.0,0.0,0.0,0.0,0.0,0.0,0.0,0.0,0.0,0.0,0.0,0.0,0.0,0.0,0.0,0.0,0.0,0.0,0.0,0.0,0.0,0.0,0.0,0.0,0.0,0.0,0.0,0.0,0.0,0.0,0.0,0.0,0.0,0.0,0.0,0.0,0.0,0.0,0.0,0.0,0.0,0.0,0.0,0.0,0.0,0.0,0.0,0.0,0.0,0.0,0.0,0.0,0.0,0.0,0.0,0.0,0.0,0.0,0.0,0.0,0.0,0.0,0.0,0.0,0.0,0.0,0.0,0.0,0.0,0.0,0.0,0.0,0.0,0.0,0.0,0.0,0.0,0.0,0.0,0.0,0.0,0.0,0.0,0.0,0.0,0.0,0.0,0.0,0.0,0.0,0.0,0.0,0.0,0.0,0.0,0.0,0.0,0.0,0.0,0.0,0.0,0.0,0.0,0.0,0.0,0.0,0.0,0.0,0.0,0.0,0.0,0.0,0.0,0.0,0.0,0.0,0.0,0.0,0.0,0.0,0.0,0.0,0.0,0.0,0.0,0.0,0.0,0.0,0.0,0.0,0.0,0.0,0.0,0.0,0.0,0.0,0.0,0.0,0.0,0.0,0.0,0.0,0.0,0.0,0.0,0.0,0.0,0.0,0.0,0.0,0.0,0.0,0.0,0.0,0.0,0.0,0.0,0.0,0.0,0.0,0.0,0.0,0.0,0.0,0.0,0.0,0.0,0.0,0.0,0.0,0.0,0.0,0.0,0.0,0.0,0.0,0.0,0.0,0.0,0.0,0.0,0.0,0.0,0.0,0.0,0.0,0.0,0.0,0.0,0.0,0.0,0.0,0.0,0.0,0.0,0.0,0.0,0.0,0.0,0.0,0.0,0.0,0.0,0.0,0.0,0.0,0.0,0.0,0.0,0.0,0.0,0.0,0.0,0.0,0.0,0.0,0.0,0.0,0.0,0.0,0.0,0.0,0.0,0.0,0.0,0.0,0.0,0.0,0.0,0.0,0.0,0.0,0.0,0.0,0.0,0.0,0.0,0.0,0.0,0.0,0.0,0.0,0.0,0.0,0.0,0.0,0.0,0.0,0.0,0.0,0.0,0.0,0.0,0.0,0.0,0.0,0.0,0.0,0.0,0.0,0.0,0.0,0.0,0.0,0.0,0.0,0.0,0.0,0.0,0.0,0.0,0.0,0.0,0.0,0.0,0.0,0.0,0.0,0.0,0.0,0.0,0.0,0.0,0.0,0.0,0.0,0.0,0.0,0.0,0.0,0.0,0.0,0.0,0.0,0.0,0.0,0.0,0.0,0.0,0.0,0.0,0.0,0.0,0.0,0.0,0.0,0.0,0.0,0.0,0.0,0.0,0.0,0.0,0.0,0.0,0.0,0.0,0.0,0.0,0.0,0.0,0.0,0.0,0.0,0.0,0.0,0.0,0.0,0.0,0.0,0.0,0.0,0.0,0.0,0.0,0.0,0.0,0.0,0.0,0.0,0.0,0.0,0.0,0.0,0.0,0.0,0.0,0.0,0.0,0.0,0.0,0.0,0.0,0.0,0.0,0.0,0.0,0.0,0.0,0.0,0.0,0.0,0.0,0.0,0.0,0.0,0.0,0.0,0.0,0.0,0.0,0.0,0.0,0.0,0.0,0.0,0.0,0.0,0.0,0.0,0.0,0.0,0.0,0.0,0.0,0.0,0.0,0.0,0.0,0.0,0.0,0.0,0.0,0.0,0.0,0.0,0.0,0.0,0.0,0.0,0.0,0.0,0.0,0.0,0.0,0.0,0.0,0.0,0.0,0.0,0.0,0.0,0.0,0.0,0.0,0.0,0.0,0.0,0.0,0.0,0.0,0.0,0.0,0.0,0.0,0.0,0.0,0.0,0.0,0.0,0.0,0.0,0.0,0.0,0.0,0.0,0.0,0.0,0.0,0.0,0.0,0.0,0.0,0.0,0.0,0.0,0.0,0.0,0.0,0.0,0.0,0.0,0.0,0.0,0.0,0.0,0.0,0.0,0.0,0.0,0.0,0.0,0.0,0.0,0.0,0.0,0.0,0.0,0.0,0.0,0.0,0.0,0.0,0.0,0.0,0.0,0.0,0.0,0.0,0.0,0.0,0.0,0.0,0.0,0.0,0.0,0.0,0.0,0.0,0.0,0.0,0.0,0.0,0.0,0.0,0.0,0.0,0.0,0.0,0.0,0.0,0.0,0.0,0.0,0.0,0.0,0.0,0.0,0.0,0.0,0.0,0.0,0.0,0.0,0.0,0.0,0.0,0.0,0.0,0.0,0.0,0.0,0.0,0.0,0.0,0.0,0.0,0.0,0.0,0.0,0.0,0.0,0.0,0.0,0.0,0.0,0.0,0.0,0.0,0.0,0.0,0.0,0.0,0.0,0.0,0.0,0.0,0.0,0.0,0.0,0.0,0.0,0.0,0.0,0.0,0.0,0.0,0.0,0.0,0.0,0.0,0.0,0.0,0.0,0.0,0.0,0.0,0.0,0.0,0.0,0.0,0.0,0.0,0.0,0.0,0.0,0.0,0.0,0.0,0.0,0.0,0.0,0.0,0.0,0.0,0.0,0.0,0.0,0.0,0.0,0.0,0.0,0.0,0.0,0.0,0.0,0.0,0.0,0.0,0.0,0.0,0.0,0.0,0.0,0.0,0.0,0.0,0.0,0.0,0.0,0.0,0.0,0.0,0.0,0.0,0.0,0.0,0.0,0.0,0.0,0.0,0.0,0.0,0.0,0.0,0.0,0.0,0.0,0.0,0.0,0.0,0.0,0.0,0.0,0.0,0.0,0.0,0.0,0.0,0.0,0.0,0.0,0.0,0.0,0.0,0.0,0.0,0.0,0.0,0.0,0.0,0.0,0.0,0.0,0.0,0.0,0.0,0.0,0.0,0.0,0.0,0.0,0.0,0.0,0.0,0.0,0.0,0.0,0.0,0.0,0.0,0.0,0.0,0.0,0.0,0.0,0.0,0.0,0.0,0.0,0.0,0.0,0.0,0.0,0.0,0.0,0.0,0.0,0.0,0.0,0.0,0.0,0.0,0.0,0.0,0.0,0.0,0.0,0.0,0.0,0.0,0.0,0.0,0.0,0.0,0.0,0.0,0.0,0.0,0.0,0.0,0.0,0.0,0.0,0.0,0.0,0.0,0.0,0.0,0.0,0.0,0.0,0.0,0.0,0.0,0.0,0.0,0.0,0.0,0.0,0.0,0.0,0.0,0.0,0.0,0.0,0.0,0.0,0.0,0.0,0.0,0.0,0.0,0.0,0.0,0.0,0.0,0.0,0.0,0.0,0.0,0.0,0.0,0.0,0.0,0.0,0.0,0.0,0.0,0.0,0.0,0.0,0.0,0.0,0.0,0.0,0.0,0.0,0.0,0.0,0.0,0.0,0.0,0.0,0.0,0.0,0.0,0.0,0.0,0.0,0.0,0.0,0.0,0.0,0.0,0.0,0.0,0.0,0.0,0.0,0.0,0.0,0.0,0.0,0.0,0.0,0.0,0.0,0.0,0.0,0.0,0.0,0.0,0.0,0.0,0.0,0.0,0.0,0.0,0.0,0.0,0.0,0.0,0.0,0.0,0.0,0.0,0.0,0.0,0.0,0.0,0.0,0.0,0.0,0.0,0.0,0.0,0.0,0.0,0.0,0.0,0.0,0.0,0.0,0.0,0.0,0.0,0.0,0.0,0.0,0.0,0.0,0.0,0.0,0.0,0.0,0.0,0.0,0.0,0.0,0.0,0.0,0.0,0.0,0.0,0.0,0.0,0.0,0.0,0.0,0.0,0.0,0.0,0.0,0.0,0.0,0.0,0.0,0.0,0.0,0.0,0.0,0.0,0.0,0.0,0.0,0.0,0.0,0.0,0.0,0.0,0.0,0.0,0.0,0.0,0.0,0.0,0.0,0.0,0.0,0.0,0.0,0.0,0.0,0.0,0.0,0.0,0.0,0.0,0.0,0.0,0.0,0.0,0.0,0.0,0.0,0.0,0.0,0.0,0.0,0.0,0.0,0.0,0.0,0.0,0.0,0.0,0.0,0.0,0.0,0.0,0.0,0.0,0.0,0.0,0.0,0.0,0.0,0.0,0.0,0.0,0.0,0.0,0.0,0.0,0.0,0.0,0.0,0.0,0.0,0.0,0.0,0.0,0.0,0.0,0.0,0.0,0.0,0.0,0.0,0.0,0.0,0.0,0.0,0.0,0.0,0.0,0.0,0.0,0.0,0.0,0.0,-0.4337,0.0,0.0,0.0,0.0,0.0,0.0,0.0,0.0,0.0,0.0,0.0,0.0,0.0,0.0,0.0,0.0,0.0,0.0,0.0,0.0,0.0,0.0,0.0,0.0,0.0,0.0,0.0,0.0,0.0,0.0,0.0,0.0,0.0,0.0,0.0,0.0,0.0,0.0,0.268,0.2007,0.1129,-0.0,-0.0531,-0.0636,-0.0408,0.0,0.0,0.0,0.0,0.0,0.0,0.0,0.0,0.0,0.0,0.0,0.0,0.0,0.0,0.0,0.0,0.0,0.0,0.0,0.0,0.0,0.0,0.0,0.0,0.0,0.0,0.0,0.0,0.0,0.0,0.0,0.0,0.0,0.0,0.0,0.0,0.0,0.0,0.0,0.0,0.0,0.0,0.0,0.0,0.0,0.0,0.0,0.0,0.0,0.0,0.0,0.0,0.0,0.0,0.0,0.0,0.0,0.0,0.0,0.0,0.0,0.0,0.0,0.0,0.0,0.0,0.0,0.0,0.0,0.0,0.0,-0.4404,0.0,0.0,0.0,0.0,0.0,0.0,0.0,0.0,0.0,0.0,0.0,0.0,0.0,0.0,0.0,0.0,0.0,0.0,0.0,0.0,0.0,0.0,0.0,0.1254,0.1376,0.1903,0.1757,0.1812,0.0,0.0,0.0,0.0,0.0,0.0,0.322,0.3462,0.3097,0.2098,0.1384,0.0175,-0.1491,-0.1948,-0.1848,-0.1289,-0.14,0.0,0.0,0.0,0.0,0.0,0.0,0.0,0.0,0.0,0.0,0.0,0.0,0.0,0.0,0.0,0.0,0.0,0.0,0.0,0.0,0.0,0.0,0.0,0.0,0.0,0.0,0.0,0.0,0.0,0.0,0.0,0.0,0.0,0.0,0.0,0.0,0.0,0.0,0.0,0.0,0.0,0.0,0.0,0.0,0.0,0.0,0.0,0.0,0.0,0.0,0.0,0.0,0.0,0.0,0.0,0.0,0.0,0.0,0.0,0.0,0.0,0.0,0.0,0.0,-0.9209,-0.9653,-0.8404,-0.7969,-0.8102,-0.6394,-0.5393,-0.5111,0.0,0.0,0.0,0.0,0.0,0.0,0.0,0.0,0.0,0.0,0.0,0.0,0.0,0.0,0.0,0.0,0.0,0.0,0.0,0.0,0.0,0.0,0.2239,0.2453,0.2892,0.2739,0.2806,0.3272,0.0,0.0,0.0,0.0,0.0,0.3602,0.3565,0.3024,0.2021,-0.0181,-0.1558,-0.2177,-0.3155,-0.3444,-0.313,-0.2615,-0.2094,-0.1552,0.0,0.0,0.0,0.0,0.0,0.0,0.0,0.0,0.0,0.0,0.0,0.0,0.0,0.0,0.0,0.0,0.0,0.0,0.0,0.0,0.0,0.0,0.0,0.0,0.0,0.0,0.0,0.0,0.0,0.0,0.0,0.0,0.0,0.0,0.0,0.0,0.0,0.0,0.0,0.0,0.0,0.0642,0.0153,0.0,0.0,0.0,0.0,0.0,0.0,0.0,0.0,0.0,0.0,0.0,0.0,0.0,0.0,-0.723,-0.9377,-1.0293,-0.9988,-1.0351,-1.076,-1.1022,-0.8614,-0.796,-0.8646,-0.713,0.0,-0.5891,-0.4809,0.0,0.0,0.0,0.0,0.0,0.0,0.0,0.0,0.0,0.0,0.0,0.0,0.0,0.0,0.0,0.0,0.0,0.0,0.0,0.0,0.0,0.1609,0.1278,0.1623,0.0562,0.0405,0.161,0.1508,0.0,0.0,0.0,0.3733,0.3933,0.3253,0.1969,0.0072,-0.1561,-0.2674,-0.3259,-0.3945,-0.4164,-0.4078,-0.3967,-0.2839,-0.1151,-0.1871,0.0,0.0,0.0,0.0,0.0,0.0,0.0,0.0,0.0,0.0,0.0,0.0,0.0,0.0,0.0,0.0,0.0,0.0,0.0,0.0,0.0,0.0,0.0,0.0,0.0,0.0,0.0,0.0,0.0,0.0,0.0,0.0,0.0,0.0,0.0,0.0,0.0,0.0,0.0,-0.0338,-0.1345,-0.2809,-0.2626,-0.2481,0.0,0.0,0.0,0.0,0.0,0.0,0.0,0.0,0.0,-0.7038,-0.7992,-0.879,-0.9232,-1.0901,-1.1617,-1.1502,-1.2251,-1.2317,-1.1649,-0.9937,-0.8904,-0.8511,-0.7331,-0.661,-0.6419,-0.5818,-0.5688,-0.5749,0.0,0.0,0.0,0.0,0.0,-0.5406,0.0,0.0,0.0,0.0,0.0,0.0,0.0,0.0,0.0,0.0,0.0,0.0,0.153,0.0648,0.006,0.0033,-0.1113,-0.1155,0.0443,0.0623,0.14,0.3079,0.3508,0.3768,0.3855,0.2546,0.0703,-0.1653,-0.2735,-0.3574,-0.4256,-0.4555,-0.4723,-0.4703,-0.443,-0.293,-0.0633,-0.2106,-0.2121,-0.1157,0.0,0.0,0.0,0.0,0.0,0.0,0.0,0.0,0.0,0.0,0.0,0.0,0.0,0.0,0.0,0.0,0.0,0.0,0.0,0.0,0.0,0.0,0.0,0.0,0.0,0.0,0.0,0.0,0.0,0.0,0.0,0.0,0.0,0.0,0.0,0.0,0.0,-0.162,-0.2853,-0.4547,-0.4551,-0.4301,0.0,0.0,0.0,0.0,0.0,0.0,-0.8376,-0.9403,-1.003,-1.0335,-1.0773,-1.1167,-1.1421,-1.245,-1.3018,-1.3024,-1.394,-1.354,-1.2062,-1.1102,-0.9904,-0.8496,-0.7512,-0.7014,-0.6834,-0.6659,-0.6437,-0.6175,-0.619,-0.6226,-0.6273,-0.621,-0.6269,-0.6515,0.0,0.0,0.0,0.0,0.0,0.0,0.0,0.0,0.0,0.0,0.0,0.0492,-0.0521,-0.0262,-0.0334,-0.1137,-0.0641,0.0122,0.1108,0.1084,0.1466,0.2408,0.2944,0.3242,0.3239,0.1318,-0.0565,-0.2358,-0.3559,-0.4391,-0.488,-0.5179,-0.5336,-0.528,-0.3537,-0.1787,-0.0121,-0.1593,-0.2287,-0.2323,-0.2549,0.0,0.0,0.0,0.0,0.0,0.0,0.0,0.0,0.0,0.0,0.0,0.0,0.0,0.0,0.0,0.0,0.0,0.0,0.0,0.0,0.0,0.0,0.0,0.0,0.0,0.0,0.0,0.0,0.0,0.0,0.0,0.0,0.0,0.0,0.0,0.0,0.0,0.0,-0.4361,-0.4931,0.0,0.0,0.0,0.0,-0.7741,-0.8955,-0.998,-1.0771,-1.1011,-1.1373,-1.1952,-1.2407,-1.3168,-1.4249,-1.4648,-1.489,-1.489,-1.491,-1.4211,-1.2686,-1.1674,-1.0476,-0.9045,-0.7959,-0.7478,-0.7292,-0.6778,-0.6441,-0.6304,-0.6747,-0.7061,-0.7265,-0.7254,-0.7282,-0.7326,0.0,0.0,0.0,0.0,0.0,0.0,0.0,0.0,0.0499,0.1175,0.0612,0.0059,-0.019,-0.1454,-0.2377,-0.2616,-0.3455,-0.3306,-0.1872,-0.1448,-0.0336,0.1804,0.2156,0.179,0.0717,-0.095,-0.2495,-0.388,-0.4706,-0.5196,-0.5355,-0.5552,-0.5806,-0.5895,-0.3661,-0.3017,-0.3515,-0.4034,-0.4091,-0.3718,-0.3337,-0.3031,0.0,0.0,0.0,0.0,0.0,0.0,0.0,0.0,0.0,0.0,0.0,0.0,0.0,0.0,0.0,0.0,0.0,0.0,0.0,0.0,0.0,0.0,0.0,0.0,0.0,0.0,0.0,0.0,0.0,0.0,0.0,0.0,0.0,0.0,0.0,0.0,0.0,-0.6186,-0.6842,0.0,-0.8369,-0.8736,-0.9427,-1.0532,-1.1277,-1.2045,-1.2936,-1.34,-1.378,-1.4239,-1.4359,-1.4786,-1.5357,-1.5464,-1.5518,-1.5518,-1.4659,-1.3566,-1.2015,-1.0894,-0.9516,-0.8166,-0.7858,-0.7651,-0.7509,-0.7383,-0.7132,-0.6827,-0.6993,-0.7109,-0.7165,-0.7357,-0.7432,-0.7401,0.0,0.0,0.0,0.0,0.0,0.0,0.0,0.0,0.0096,0.0542,-0.0148,-0.0835,-0.1203,-0.271,-0.3777,-0.4062,-0.4805,-0.4626,-0.3147,-0.2505,-0.1153,0.112,0.0956,0.0133,-0.1343,-0.2437,-0.3677,-0.5067,-0.5416,-0.5691,-0.5888,-0.5935,-0.6146,-0.6359,-0.4818,-0.4409,-0.4854,-0.5558,-0.5536,-0.4867,-0.4113,-0.3461,-0.291,0.0,0.0,0.0,0.0,0.0,0.0,0.0,0.0,0.0,0.0,0.0,0.0,0.0,0.0,0.0,0.0,0.0,0.0,0.0,0.0,0.0,0.0,0.0,0.0,0.0,0.0,0.0,0.0,0.0,0.0,0.0,0.0,0.0,0.0,0.0,-0.7193,-0.8096,-0.8846,-0.9657,-1.0616,-1.0852,-1.1412,-1.2593,-1.3319,-1.398,-1.481,-1.5197,-1.5444,-1.5538,-1.5538,-1.5631,-1.5825,-1.5832,-1.5832,-1.5825,-1.4555,-1.3166,-1.1706,-1.045,-0.9048,-0.7678,-0.7824,-0.7834,-0.7753,-0.7848,-0.7712,-0.7438,-0.7387,-0.7366,-0.7387,-0.7539,-0.7597,-0.7611,0.0,0.0,0.0,0.0,0.0,0.0,0.0,-0.0456,-0.049,-0.0641,-0.1217,-0.2221,-0.3713,-0.3978,-0.4401,-0.54,-0.4442,-0.343,-0.2487,-0.1752,-0.0786,0.0401,-0.0605,-0.1666,-0.272,-0.3036,-0.4043,-0.5817,-0.5688,-0.5918,-0.6474,-0.6339,-0.6437,-0.6652,-0.6977,-0.5837,-0.3869,-0.5981,-0.6412,-0.5798,-0.4912,-0.3954,-0.3016,0.0,0.0,0.0,0.0,0.0,0.0,0.0,0.0,0.0,0.0,0.0,0.0,0.0,0.0,0.0,0.0,0.0,0.0,0.0,0.0,0.0,0.0,0.0,0.0,0.0,0.0,0.0,0.0,0.0,0.0,0.0,0.0,0.0,-0.7065,-0.7753,-0.8787,-1.0036,-1.093,-1.1261,-1.0833,-1.2174,-1.3363,-1.3969,-1.5106,-1.5972,-1.6259,-1.6266,-1.6126,-1.5838,-1.5832,-1.5832,-1.5832,-1.5832,-1.5832,-1.5825,-1.4555,-1.3171,-1.1627,-1.0493,-0.9221,-0.7828,-0.7974,-0.8038,-0.8038,-0.8038,-0.8038,-0.8024,-0.7875,-0.7818,-0.7834,-0.7984,-0.8038,-0.8038,0.0,0.0,0.0,0.0,0.0,0.0,0.0,-0.1467,-0.1366,-0.1656,-0.2278,-0.2802,-0.3132,-0.3888,-0.448,-0.4725,-0.42,-0.3504,-0.2792,-0.2309,-0.1733,-0.1109,-0.219,-0.298,-0.3396,-0.4582,-0.5488,-0.6135,-0.6308,-0.6478,-0.6637,-0.66,-0.6739,-0.694,-0.6835,-0.6719,-0.6508,-0.7164,-0.7309,-0.6973,-0.58,-0.4845,-0.4109,0.0,0.0,0.0,0.0,0.0,0.0,0.0,0.0,0.0,0.0,0.0,0.0,0.0,0.0,0.0,0.0,0.0,0.0,0.0,0.0,0.0,0.0,0.0,0.0,0.0,0.0,0.0,0.0,0.0,0.0,0.0,0.0,-0.7866,-0.8006,-0.9602,-1.1259,-1.2339,-1.2989,-1.3661,-1.467,-1.535,-1.5771,-1.5928,-1.6025,-1.6186,-1.6273,-1.6072,-1.5912,-1.5832,-1.5832,-1.5832,-1.5832,-1.5832,-1.5832,-1.5825,-1.4555,-1.3165,-1.1758,-1.056,-0.9288,-0.798,-0.8021,-0.8038,-0.8038,-0.8038,-0.8038,-0.8035,-0.7994,-0.7977,-0.798,-0.8024,-0.8038,-0.8038,0.0,0.0,0.0,0.0,0.0,0.0,0.0,-0.1907,-0.1983,-0.2374,-0.2845,-0.3199,-0.3324,-0.402,-0.4467,-0.4287,-0.41,-0.3754,-0.3229,-0.3432,-0.326,-0.249,-0.3704,-0.439,-0.4388,-0.5555,-0.623,-0.6444,-0.6681,-0.678,-0.6907,-0.6907,-0.6943,-0.708,-0.7073,-0.6644,-0.5999,-0.6501,-0.7017,-0.759,-0.6699,-0.5874,-0.5046,-0.4455,-0.4013,-0.3647,-0.348,-0.3749,-0.4107,-0.4131,0.0,0.0,0.0,0.0,0.0,0.0,0.0,0.0,0.0,0.0,0.0,0.0,0.0,0.0,0.0,0.0,0.0,0.0,0.0,0.0,0.0,0.0,0.0,0.0,-0.9224,-1.0476,-1.118,-1.2097,-1.3235,-1.4496,-1.4936,-1.5569,-1.6341,-1.6607,-1.676,-1.6881,-1.6734,-1.6587,-1.646,-1.6293,-1.6086,-1.5838,-1.5832,-1.5832,-1.5832,-1.5832,-1.5832,-1.5737,-1.398,-1.2619,-1.1853,-0.9998,-0.8726,0.0,-0.8038,-0.8038,-0.8038,-0.8038,-0.8038,0.0,0.0,0.0,0.0,0.0,-0.8038,-0.8038,0.0,0.0,0.0,0.0,0.0,0.0,0.0,-0.1982,-0.2393,-0.2888,-0.3111,-0.342,-0.3962,-0.4261,-0.428,-0.4016,-0.3996,-0.3856,-0.35,-0.4559,-0.4754,-0.3705,-0.4972,-0.5647,-0.55,-0.6027,-0.6464,-0.6725,-0.6881,-0.7021,-0.7122,-0.6841,-0.674,-0.6709,-0.7324,-0.6233,-0.4117,-0.5059,-0.6313,-0.7753,-0.7585,-0.6896,-0.5854,-0.5095,-0.4719,-0.4603,-0.406,-0.4114,-0.4535,-0.4464,0.0,0.0,0.0,0.0,0.0,0.0,0.0,0.0,0.0,0.0,0.0,0.0,0.0,0.0,0.0,0.0,0.0,0.0,0.0,0.0,0.0,0.0,0.0,0.0,-1.1877,-1.4001,-1.5469,-1.4983,-1.4917,-1.6202,-1.658,-1.676,-1.676,-1.6787,-1.6914,-1.7174,-1.7271,-1.7034,-1.6767,0.0,0.0,0.0,0.0,-1.5832,-1.5832,-1.5832,-1.5832,-1.5737,-1.3301,-1.2042,-1.1848,-0.9312,-0.8137,-0.8038,-0.8038,-0.8038,-0.8038,-0.8038,-0.8038,-0.8038,-0.8038,-0.8038,-0.8038,-0.8038,-0.8038,0.0,0.0,0.0,0.0,0.0,0.0,0.0,0.0,-0.2247,-0.2585,-0.3205,-0.3342,-0.3538,-0.3933,-0.3972,-0.3897,-0.3839,-0.3375,-0.2946,-0.2655,-0.3649,-0.442,-0.4798,-0.5554,-0.5947,-0.5898,-0.6491,-0.6827,-0.6885,-0.696,-0.7042,-0.7031,-0.5165,-0.4323,-0.4378,-0.6287,-0.715,-0.7117,-0.5919,-0.6412,-0.7987,-0.7921,-0.7458,-0.6814,-0.6531,-0.6244,-0.5937,-0.5828,-0.5873,-0.6033,-0.5739,-0.5766,-0.5851,-0.5195,-0.4826,0.0,0.0,0.0,0.0,0.0,0.0,0.0,0.0,0.0,0.0,0.0,0.0,0.0,0.0,0.0,0.0,0.0,0.0,0.0,-1.2283,-1.3782,-1.5556,-1.8037,-1.7586,-1.6876,-1.6673,-1.6887,-1.7061,-1.7061,-1.7275,-1.7435,-1.7495,-1.7281,-1.7121,-1.7068,-1.6613,0.0,-1.6192,-1.5952,-1.5832,-1.5832,-1.5832,-1.5832,-1.5825,0.0,0.0,-1.1848,-1.0288,-0.9019,-0.8038,-0.8038,-0.8038,-0.8038,-0.8038,-0.8038,-0.8038,-0.8038,-0.8038,-0.8038,-0.8038,-0.8038,-0.8038,0.0,0.0,0.0,0.0,0.0,0.0,0.0,-0.2478,-0.2744,-0.3294,-0.3253,-0.3266,-0.3581,-0.3612,-0.3549,-0.3363,-0.3043,-0.2922,-0.3108,-0.4131,-0.4869,-0.5339,-0.5861,-0.6179,-0.6251,-0.6766,-0.695,-0.6873,-0.7174,-0.7276,-0.7076,-0.617,-0.4392,-0.1887,-0.2987,-0.3707,-0.394,-0.3024,-0.3925,-0.6139,-0.7486,-0.7814,-0.7567,-0.7346,-0.7126,-0.6922,-0.6844,-0.6814,-0.6749,-0.6458,-0.6405,-0.6322,-0.5792,-0.5456,-0.5225,0.0,0.0,0.0,0.0,0.0,0.0,0.0,0.0,0.0,0.0,0.0,0.0,0.0,0.0,-0.6994,0.0,0.0,-1.221,-1.4653,-1.5986,-1.7258,-1.8835,-1.8324,-1.7799,-1.7987,-1.7592,-1.7368,-1.7368,-1.7495,-1.7582,-1.7582,-1.7448,-1.7301,-1.7257,-1.6734,-1.6426,-1.6279,-1.5985,-1.5534,-1.4854,-1.4854,-1.4465,-1.3788,-1.2522,-1.1551,-1.0877,-0.9608,-0.8627,-0.8038,-0.8038,-0.8038,-0.8038,-0.8038,-0.8432,-0.9019,-0.9019,-0.8627,-0.8038,-0.8726,-0.8531,-0.8038,0.0,0.0,0.0,0.0,0.0,0.0,0.0,-0.2565,-0.2824,-0.3228,-0.3028,-0.2927,-0.3205,-0.3245,-0.3099,-0.2794,-0.2895,-0.3241,-0.3695,-0.4789,-0.5456,-0.562,-0.6118,-0.6458,-0.66,-0.7014,-0.7148,-0.6892,-0.6948,-0.6949,-0.7113,-0.6608,-0.4128,-0.0,-0.0,-0.0,-0.0101,-0.1108,-0.2513,-0.4218,-0.6951,-0.7959,-0.8011,-0.7743,-0.7641,-0.7617,-0.7438,-0.7234,-0.7014,-0.6746,-0.6556,-0.6462,-0.6115,-0.5937,-0.5819,-0.5279,-0.508,0.0,0.0,0.0,0.0,0.0,0.0,0.0,0.0,-0.6022,-0.6441,-0.6928,-0.727,-0.8344,-1.0933,-1.2586,-1.4373,-1.6592,-1.7849,-1.8742,-1.9135,-1.8534,-1.8452,-1.9308,-1.8289,-1.7582,-1.7582,-1.7582,-1.7582,-1.7582,-1.7582,-1.7482,-1.7248,-1.6685,-1.6188,-1.6058,-1.5377,-1.4641,-1.3562,-1.3608,-1.3024,-1.1913,-1.0932,-1.0422,-1.0288,-0.9019,-0.8432,-0.8333,-0.8137,-0.8137,-0.8432,-0.8432,-0.9217,-1.0391,-1.0681,-0.9801,-0.8531,-0.9608,-0.9118,-0.8038,0.0,0.0,0.0,0.0,0.0,0.0,0.0,0.0,-0.2712,-0.3224,-0.2899,-0.2808,-0.3234,-0.2932,-0.2552,-0.2209,-0.2934,-0.3447,-0.3514,-0.4697,-0.5538,-0.5766,-0.6468,-0.6919,-0.7061,-0.7383,-0.746,-0.7373,-0.5128,-0.5111,-0.7012,-0.2854,-0.0596,-0.0,-0.0,-0.0,-0.0303,-0.5056,-0.5856,-0.4218,-0.6951,-0.7959,-0.8021,-0.7851,-0.7787,-0.775,-0.7472,-0.7193,-0.6895,-0.6637,-0.6479,-0.6479,-0.6081,-0.6084,-0.6133,-0.5483,-0.5196,-0.5065,-0.4952,-0.5404,-0.5936,-0.6243,-0.6426,-0.6646,0.0,-0.7348,-0.7443,-0.7973,-0.8354,-0.9406,-1.227,-1.3321,-1.4565,-1.7397,-1.8366,-1.9227,-2.0165,-1.9222,-1.8851,-1.9857,-1.8548,-1.7582,-1.7582,-1.7582,-1.7582,-1.7582,-1.7582,-1.7569,-1.7535,-1.5959,-1.504,-1.501,-1.3452,-1.2527,-1.2427,-1.2532,-1.243,-1.2134,-1.2029,-1.1836,-1.1653,-1.0386,-0.9805,-0.9706,-0.8531,-0.8627,-0.9805,-0.9805,-1.0485,-1.1848,-1.3006,-1.194,-0.9801,-0.9899,-0.9118,-0.8038,0.0,0.0,0.0,0.0,0.0,0.0,0.0,0.0,0.0,-0.2735,-0.246,-0.2301,-0.258,-0.2355,-0.2214,-0.2268,-0.315,-0.3716,-0.386,-0.5029,-0.5884,-0.6044,-0.6536,-0.6905,-0.7136,-0.7441,-0.7604,-0.7617,-0.5632,-0.4042,-0.289,-0.0896,-0.0,-0.0,-0.0,-0.0,-0.0101,-0.2424,-0.4539,-0.645,-0.7572,-0.7965,-0.8014,-0.7983,-0.7879,-0.7876,-0.7634,-0.7469,0.0,-0.6835,-0.6787,-0.671,-0.6061,-0.5985,-0.6028,-0.5378,-0.5366,-0.5495,-0.5479,-0.574,-0.6121,-0.652,-0.6912,-0.7308,-0.7652,-0.7882,-0.8165,-0.8557,-0.9577,-1.0994,-1.3436,-1.4751,-1.6185,0.0,-1.9018,-1.93,-1.9535,-1.8768,-1.8327,-1.8639,-1.7763,-1.7208,-1.7549,-1.7582,-1.7582,-1.7582,-1.7582,-1.7582,-1.7582,-1.5915,-1.4877,-1.4877,-1.3196,-1.1953,-1.1141,-1.1223,-1.1164,-1.1066,-1.1066,-1.1359,-1.1848,-1.1365,-1.1072,-1.1072,-1.0485,-1.0583,-1.1072,-1.1072,-1.1848,-1.3006,-1.2813,-1.2042,-1.1072,-1.1072,-0.9801,-0.8038,0.0,0.0,0.0,0.0,0.0,0.0,0.0,0.0,0.0,0.0,-0.2245,-0.1914,-0.1981,-0.2008,-0.2146,-0.245,-0.3239,-0.3849,-0.4101,-0.5137,-0.5807,-0.6177,-0.642,-0.6756,-0.7132,-0.74,-0.7584,-0.778,-0.6698,-0.4798,-0.2211,-0.0704,-0.0,-0.0,-0.0,-0.0,-0.0,-0.0,-0.2216,-0.5944,-0.7437,-0.7994,-0.7993,-0.8002,-0.767,-0.7307,-0.7528,-0.7825,-0.7882,-0.7005,-0.69,-0.6988,-0.6222,-0.6119,-0.6131,-0.5537,-0.5662,-0.5962,-0.6026,-0.6245,-0.6531,-0.6919,-0.7436,-0.7847,-0.8018,-0.8438,-0.8804,-0.9069,-1.0439,-1.2165,-1.3889,-1.5429,-1.711,-1.8849,-1.9192,-1.9172,-1.8951,-1.8417,-1.7929,-1.7615,-1.7061,-1.6874,-1.7295,-1.7415,-1.7462,-1.7462,-1.7535,-1.7582,-1.7582,-1.5602,-1.4404,-1.4404,-1.2467,-1.0937,-0.9894,-0.9945,-1.0064,-1.0238,-1.0641,-1.1416,-1.2425,-1.2425,-1.2237,-1.1945,-1.1945,-1.2139,-1.2431,-1.2042,-1.2716,-1.3776,-1.2431,-1.1658,-1.1365,-1.1365,-0.9899,-0.8038,0.0,0.0,0.0,0.0,0.0,0.0,0.0,0.0,0.0,0.0,0.0,0.0,0.0,-0.2108,-0.2481,-0.2656,-0.3194,-0.3721,-0.4174,-0.4654,-0.5227,-0.5783,-0.6112,-0.6546,-0.7129,-0.7295,-0.7626,-0.8039,-0.7949,-0.7835,-0.7682,-0.2413,-0.0,-0.0,-0.0,-0.0,-0.0,-0.0,-0.0101,-0.0703,-0.5937,-0.7997,-0.7987,-0.7993,-0.7001,-0.5749,-0.6914,-0.7934,-0.8469,-0.6981,-0.6759,-0.7019,-0.6541,-0.6595,-0.6729,-0.617,-0.6171,-0.6447,-0.6595,-0.7066,-0.7509,-0.7687,-0.799,-0.8353,-0.8801,-0.9137,-0.9398,-0.9557,-1.0757,-1.2216,-1.3512,-1.5068,-1.667,-1.8282,-1.8758,-1.8931,-1.8925,-1.8417,-1.7929,-1.7615,-1.7061,-1.6714,0.0,-1.6994,-1.7161,-1.7161,-1.7422,-1.7582,-1.7582,-1.4744,-1.3026,-1.3026,-1.0289,-0.881,-0.8703,-0.8849,-0.9414,-1.0435,-1.1667,-1.2867,-1.3878,-1.3878,-1.3102,-1.1945,-1.1945,-1.2624,-1.3782,-1.2431,-1.2716,-1.3776,-1.2431,-1.117,-1.0096,-1.0096,-0.9217,-0.8038,0.0,0.0,0.0,0.0,0.0,0.0,0.0,0.0,0.0,0.0,0.0,0.0,0.0,0.0,0.0,0.0,-0.3552,-0.4014,-0.4314,-0.4915,-0.5314,-0.5332,-0.5742,-0.6095,-0.6396,-0.6746,-0.7027,-0.7238,-0.7526,-0.7712,-0.7777,-0.612,-0.3416,-0.0,-0.0,-0.0,-0.0,-0.0,-0.0,-0.02,-0.1918,-0.4122,-0.645,-0.7722,-0.7057,-0.5623,0.0,-0.8531,-0.8768,-0.7223,-0.7257,-0.7738,-0.631,-0.6111,-0.642,-0.6203,-0.6358,-0.6707,-0.6776,-0.7344,-0.7905,-0.8296,-0.8742,-0.9076,-0.9327,-0.9462,-0.9517,-0.9469,-1.0787,-1.201,-1.235,-1.3756,-1.5469,-1.6976,-1.7307,-1.7668,-1.8207,-1.8343,-1.8009,-1.7108,-1.6827,0.0,0.0,0.0,0.0,-1.7134,-1.7241,-1.6951,-1.6168,-1.4265,-1.2719,-1.176,-0.9828,-0.8862,-0.8862,-0.9671,-1.0588,-1.1779,-1.3706,-1.4836,-1.5146,-1.5146,-1.4949,-1.4465,-1.4465,-1.4268,-1.3878,-1.3392,-1.3006,-1.2425,-1.1165,-1.0391,-0.9903,-0.9019,-0.8432,-0.8038,0.0,0.0,0.0,0.0,0.0,0.0,0.0,0.0,0.0,0.0,0.0,0.0,0.0,0.0,0.0,0.0,0.0,-0.3987,-0.4345,-0.4825,-0.5023,-0.4998,-0.53,-0.5582,-0.5913,-0.6215,-0.6497,-0.6848,-0.6968,-0.7093,-0.7397,-0.776,-0.5551,-0.1378,-0.0464,-0.0,-0.0,-0.0,-0.1332,-0.3523,-0.3701,-0.4291,-0.5315,-0.7609,-0.7588,0.0,-0.8318,-0.9024,-0.897,-0.7659,-0.7851,-0.8404,-0.6614,-0.621,-0.6411,-0.6529,-0.6963,-0.7322,-0.7414,-0.7987,-0.8501,-0.8907,-0.9208,-0.9503,-0.9652,-0.9605,-0.9586,-0.972,-1.0754,-1.1676,-1.18,-1.2997,-1.4413,-1.5831,-1.6202,-1.6599,-1.7848,-1.7583,-1.6996,-1.6362,-1.5593,-1.5032,0.0,0.0,0.0,-1.6138,-1.6019,-1.5463,-1.4657,-1.3264,-1.2077,-1.1105,-0.9699,-0.894,-0.894,-1.0074,-1.1435,-1.2988,-1.4874,-1.5832,-1.5832,-1.5832,-1.5832,-1.5737,-1.5343,-1.4657,-1.3872,-1.2904,-1.2037,-1.1068,-0.9801,-0.9316,-0.9217,-0.8333,-0.8038,-0.8038,0.0,0.0,0.0,0.0,0.0,0.0,0.0,0.0,0.0,0.0,0.0,0.0,0.0,0.0,0.0,0.0,0.0,0.0,-0.421,-0.428,-0.4409,-0.4743,-0.4772,-0.5106,-0.5704,-0.5731,-0.6044,-0.6816,-0.641,-0.6507,-0.6893,-0.7352,-0.6304,-0.3951,-0.1404,-0.0251,-0.0251,-0.0251,-0.3902,-0.9662,-1.0329,-0.8212,-0.4952,-0.77,-0.8601,-0.8555,-0.9464,-0.9512,-0.8967,-0.8186,-0.8492,-0.8877,-0.7284,-0.6838,-0.6926,-0.7207,-0.7819,-0.8391,-0.8516,-0.8896,-0.9337,-0.9384,-0.9523,-0.9659,-0.9774,-0.9564,-0.9602,-1.0052,-1.0656,-1.124,-1.1553,0.0,-1.3551,-1.476,-1.5086,-1.579,-1.7554,-1.6187,-1.51,0.0,0.0,0.0,0.0,0.0,0.0,-1.4174,0.0,-1.327,-1.3171,-1.1878,-1.1114,-1.1,-0.9588,-0.894,-0.894,-1.0066,-1.177,-1.4063,-1.5082,-1.5635,-1.5635,-1.5635,-1.5635,-1.5534,-1.4364,-1.3776,-1.3488,-1.1068,-0.9998,-0.9805,-0.8531,-0.8038,-0.8038,-0.8038,-0.8038,-0.8038,0.0,0.0,0.0,0.0,0.0,0.0,0.0,0.0,0.0,0.0,0.0,0.0,0.0,0.0,0.0,0.0,0.0,0.0,-0.3918,-0.3976,-0.4147,-0.4435,-0.4673,-0.502,-0.5563,-0.5891,-0.6289,-0.6639,-0.672,-0.6911,-0.7223,-0.6737,-0.609,-0.517,-0.3876,-0.3358,-0.3545,-0.3551,-0.4439,-0.6038,-0.8851,-0.9069,-0.772,-0.9023,-0.9079,-0.8652,-0.9865,-0.9641,-0.8769,-0.8457,-0.8021,-0.7497,-0.7007,-0.716,-0.7491,-0.7631,-0.8286,-0.8867,-0.8991,-0.9418,-0.9806,-0.9839,-0.991,-0.9859,-0.9561,-0.9624,-0.9727,-0.9579,-0.9753,-0.9965,-1.0023,-1.0009,-1.0491,-1.1969,-1.2339,0.0,-1.4494,-1.4729,0.0,-1.3889,-1.3553,-1.3232,-1.2695,-1.1809,0.0,0.0,-1.2558,-1.2687,-1.1846,-1.1411,-1.0695,-0.9485,-0.9047,-0.894,-0.894,-0.9941,-1.1214,-1.2662,-1.2834,-1.2915,-1.2915,-1.2915,-1.2915,-1.2915,-1.2528,-1.1848,-1.097,-1.0288,-0.941,-0.8432,-0.8137,-0.8038,-0.8038,-0.8038,-0.8038,-0.8038,0.0,0.0,0.0,0.0,0.0,0.0,0.0,0.0,0.0,0.0,0.0,0.0,0.0,0.0,0.0,0.0,0.0,0.0,0.0,-0.3967,-0.4148,-0.4221,-0.4793,-0.5237,-0.5452,-0.5962,-0.6447,-0.6887,-0.6792,-0.6966,-0.725,-0.671,-0.6315,-0.6051,-0.6236,-0.6262,-0.6175,-0.6471,-0.647,0.0,0.0,-0.943,-0.9172,-0.9708,-0.9493,-0.903,-1.0229,-0.9901,-0.8819,-0.8085,-0.7389,-0.6892,-0.7086,-0.7418,-0.7848,-0.7993,-0.867,-0.933,-0.9398,-0.9791,-1.0134,-1.0066,-0.9951,-0.984,-0.9653,-0.9593,-0.9641,-0.9621,-0.9573,-0.9418,-0.9261,-0.8903,-0.9085,0.0,0.0,0.0,-1.3076,-1.3155,-1.2922,0.0,-1.2157,-1.1684,-1.1363,-1.0679,-1.0269,0.0,-1.0917,-1.0932,-1.0262,-1.0266,-0.9787,-0.894,-0.894,-0.9123,-0.9704,-1.0172,-1.0959,-1.2164,-1.2051,-1.1945,-1.1945,-1.1945,-1.1945,-1.1853,0.0,-1.0681,-0.9998,-0.941,-0.8726,-0.8038,-0.8038,-0.8038,-0.8038,-0.8038,-0.8038,-0.8038,0.0,0.0,0.0,0.0,0.0,0.0,0.0,0.0,0.0,0.0,0.0,0.0,0.0,0.0,0.0,0.0,0.0,0.0,0.0,0.0,-0.4174,-0.4051,-0.4872,-0.536,-0.5385,-0.6026,-0.6655,-0.7216,-0.6837,-0.6871,-0.7276,-0.7018,-0.6856,-0.6923,-0.8105,-0.8394,-0.8051,-0.8539,-0.8758,-0.885,-0.9131,-0.9449,-0.9679,0.0,-0.9978,-0.9703,-1.0348,-0.9955,-0.8907,-0.7486,-0.6881,-0.6765,-0.7248,-0.765,-0.8004,-0.8379,-0.9026,-0.9738,-0.9851,-1.0103,-1.0297,-1.0124,-0.9859,-0.9693,-0.9764,-0.9501,-0.9395,-0.982,-0.9581,-0.9201,-0.8962,-0.8759,-0.8836,-0.94,0.0,-1.0692,-1.2192,-1.1445,-1.0826,-1.1396,-1.0297,-0.9381,-0.9381,-0.9381,-0.9429,-0.954,-0.9188,-0.8977,-0.8998,-0.8977,-0.8957,-0.894,-0.894,-0.9417,-1.0448,-1.0262,-1.0703,-1.175,-1.1543,-1.1433,-1.1409,-1.1409,-1.1389,-1.1361,0.0,0.0,-0.9608,-0.8432,-0.8038,-0.8038,-0.8038,-0.8038,-0.8038,-0.8038,-0.8038,-0.8038,0.0,0.0,0.0,0.0,0.0,0.0,0.0,0.0,0.0,0.0,-0.2009,-0.2242,0.0,0.0,0.0,0.0,0.0,0.0,0.0,0.0,0.0,-0.3847,-0.4285,-0.4745,-0.524,-0.6305,-0.6992,-0.7295,-0.7368,-0.7569,-0.7836,-0.7425,-0.756,-0.8146,-0.8155,-0.8292,-0.8545,-0.8456,-0.8308,-0.8243,-0.8532,-0.8912,-0.943,-1.0532,0.0,0.0,-0.9755,-0.9026,-0.8365,-0.7407,-0.7228,-0.7363,-0.7479,-0.7907,-0.845,-0.8961,-0.9432,-0.9864,-1.0103,-1.0419,-1.0578,-1.0307,-1.0008,-0.9648,-0.9395,-0.9344,-0.9393,-0.9414,-0.928,-0.9081,-0.8591,-0.8846,-0.8932,-0.8187,-0.8974,-0.9674,-0.9667,-0.9572,-0.9628,0.0,-0.9613,-0.9381,-0.9381,-0.9381,0.0,0.0,0.0,0.0,-0.93,-0.9184,-0.9062,-0.8944,-0.894,-0.9034,-0.9226,-0.9068,-0.908,-0.9261,-0.9201,-0.9054,-0.8932,-0.8932,-0.8858,-0.8627,0.0,0.0,-0.8333,-0.8137,-0.8038,-0.8038,-0.8038,-0.8038,-0.8038,-0.8038,-0.8038,-0.8038,0.0,0.0,0.0,0.0,0.0,0.0,0.0,-0.1942,-0.2175,-0.2398,-0.2534,-0.2504,-0.2245,-0.2444,-0.2543,0.0,0.0,0.0,0.0,0.0,0.0,0.0,-0.4459,-0.4884,-0.5132,-0.628,-0.6928,-0.692,0.0,-0.7555,-0.7881,-0.7671,-0.7784,-0.8222,-0.8017,-0.807,-0.8276,-0.7941,-0.7919,-0.8169,-0.8171,-0.8649,-0.9407,-1.0473,0.0,0.0,-1.0128,-0.9194,-0.8203,-0.7623,-0.7497,-0.7613,-0.7914,-0.8194,-0.8615,-0.8866,-0.9343,-0.9819,-1.0054,-1.0383,-1.0649,-1.0354,-0.9873,-0.9425,-0.9345,-0.9175,-0.9022,-0.9011,-0.9012,-0.8885,-0.8358,-0.8449,-0.8468,-0.8343,-0.8381,-0.849,-0.8951,-0.8685,-0.8716,-0.9106,-0.9286,-0.9381,-0.9381,-0.9381,-0.9351,0.0,0.0,0.0,-0.915,-0.9079,-0.9011,-0.894,-0.894,-0.894,-0.894,-0.8788,-0.8669,-0.8587,-0.8442,-0.8336,-0.8269,-0.8187,-0.8153,-0.8153,-0.8075,0.0,-0.8038,-0.8038,-0.8038,-0.8038,-0.8038,-0.8038,-0.8038,-0.8038,-0.8038,-0.8038,0.0,0.0,0.0,0.0,0.0,0.0,0.0,-0.1945,-0.2242,-0.2831,-0.2798,-0.2673,-0.2483,-0.2543,-0.2573,0.0,0.0,0.0,0.0,0.0,0.0,0.0,0.0,0.0,0.0,0.0,0.0,0.0,-0.6922,0.0,0.0,0.0,0.0,0.0,-0.7725,-0.768,-0.7677,-0.7368,-0.747,0.0,0.0,-0.8296,0.0,0.0,0.0,0.0,0.0,-0.9493,-0.8236,-0.7848,-0.7641,-0.7609,-0.8059,-0.8297,-0.8501,-0.8722,-0.9219,-0.9734,-0.9898,-1.0336,-1.0602,-1.0304,-0.969,-0.9194,-0.9403,-0.8892,-0.853,-0.8851,-0.8887,-0.8671,-0.827,-0.8268,-0.8436,-0.8702,-0.8212,-0.8081,-0.88,-0.8452,-0.84,-0.8771,-0.9076,0.0,-0.9283,-0.9313,0.0,0.0,0.0,0.0,0.0,-0.894,-0.894,-0.894,-0.894,-0.894,-0.894,-0.8818,-0.8699,-0.8577,-0.8469,-0.8381,-0.8313,-0.8191,-0.8167,-0.8214,-0.8092,0.0,0.0,-0.8038,-0.8038,-0.8038,-0.8038,-0.8038,-0.8038,-0.8038,-0.8038,-0.8038,0.0,0.0,0.0,0.0,0.0,0.0,0.0,-0.2145,-0.2275,-0.2045,-0.2308,-0.2643,-0.2973,-0.3134,-0.3064,0.0,0.0,0.0,0.0,0.0,0.0,0.0,0.0,0.0,0.0,0.0,0.0,0.0,0.0,0.0,0.0,0.0,0.0,0.0,0.0,0.0,-0.707,-0.6983,0.0,0.0,0.0,0.0,0.0,0.0,0.0,0.0,0.0,-0.9379,-0.8402,-0.7741,-0.7363,-0.7234,-0.7812,-0.8154,-0.8371,-0.8777,-0.9144,-0.9614,-0.9933,-1.0246,-1.0443,-1.0144,-0.9608,-0.9275,-0.9618,-0.8615,-0.794,-0.9012,-0.8854,-0.8516,-0.8312,-0.9114,-0.9508,-0.8558,-0.9194,-0.9457,-0.8567,-0.8679,-0.8784,-0.857,0.0,0.0,-0.8964,-0.9096,0.0,0.0,0.0,0.0,0.0,-0.894,-0.894,-0.894,-0.894,-0.894,-0.894,-0.8923,-0.891,-0.8896,-0.8882,-0.873,-0.8462,-0.8448,-0.8303,-0.8062,0.0,0.0,0.0,-0.8038,-0.8038,-0.8038,-0.8038,-0.8038,-0.8038,-0.8038,-0.8038,-0.8038,0.0,0.0,0.0,0.0,0.0,0.0,-0.2447,-0.248,-0.2577,-0.2507,-0.3003,-0.3335,-0.3278,-0.3593,-0.3584,-0.3101,0.0,0.0,0.0,0.0,0.0,0.0,0.0,0.0,0.0,0.0,-0.5718,-0.5653,0.0,0.0,0.0,0.0,0.0,0.0,0.0,0.0,0.0,-0.6841,0.0,0.0,0.0,0.0,0.0,0.0,0.0,0.0,0.0,0.0,-0.7988,-0.7637,-0.747,-0.7469,-0.7531,-0.7654,-0.7797,-0.8158,-0.8676,-0.9188,-0.9315,-0.987,-1.027,-0.988,-0.9262,-0.8898,-0.9283,-0.8505,-0.7921,-0.8529,-0.8489,-0.8322,-0.822,-0.8615,-0.9089,-0.9498,-0.9169,-0.8846,-0.8717,-0.8284,-0.8072,-0.8089,-0.8296,0.0,0.0,0.0,0.0,0.0,0.0,0.0,0.0,-0.894,-0.894,-0.894,-0.894,-0.894,-0.894,-0.894,-0.8893,-0.8801,-0.8801,-0.8689,-0.8479,-0.8394,-0.8289,-0.8174,0.0,0.0,0.0,-0.8038,-0.8038,-0.8038,-0.8038,-0.8038,-0.8038,-0.8038,-0.8038,-0.8038,0.0,0.0,0.0,0.0,0.0,-0.3298,-0.2977,-0.2878,-0.2845,-0.2871,-0.3233,-0.3467,-0.3414,-0.3532,-0.3588,-0.3495,-0.3569,0.0,0.0,0.0,0.0,0.0,0.0,0.0,0.0,0.0,-0.5221,-0.5125,-0.5449,-0.5584,0.0,0.0,0.0,0.0,0.0,0.0,0.0,0.0,0.0,0.0,0.0,0.0,0.0,0.0,0.0,0.0,0.0,0.0,0.0,0.0,0.0,-0.7576,-0.7444,-0.7428,-0.747,-0.7885,-0.8242,-0.8653,-0.887,-0.9483,-0.9813,-0.9466,-0.9061,-0.8763,-0.9123,-0.8564,-0.8084,-0.8522,-0.8414,-0.8252,-0.8516,-0.8599,-0.8972,-0.9977,-0.9433,-0.8898,-0.9125,-0.8383,-0.7975,-0.8262,0.0,0.0,0.0,0.0,0.0,0.0,0.0,0.0,0.0,-0.894,-0.894,-0.894,-0.894,-0.894,-0.894,-0.894,-0.8882,-0.8777,-0.8777,-0.8672,-0.8479,-0.8377,-0.8286,-0.8197,0.0,0.0,0.0,-0.8038,-0.8038,-0.8038,-0.8038,-0.8038,-0.8038,-0.8038,-0.8038,-0.8038,0.0,0.0,0.0,0.0,0.0,0.0,-0.356,-0.334,-0.3109,-0.2849,-0.2646,-0.2742,-0.3348,-0.2878,-0.2874,-0.3812,-0.3667,0.0,0.0,0.0,0.0,0.0,0.0,0.0,0.0,0.0,-0.5125,-0.5386,-0.5386,-0.5386,-0.5392,-0.5392,0.0,0.0,0.0,0.0,0.0,0.0,0.0,0.0,0.0,0.0,0.0,0.0,0.0,0.0,0.0,0.0,0.0,0.0,0.0,0.0,0.0,-0.7622,-0.7594,-0.7981,-0.8024,-0.818,-0.887,-0.9098,-0.8994,-0.8872,-0.8991,-0.9161,-0.9307,-0.8744,-0.8429,-0.9378,-0.886,-0.8429,-0.9131,-0.9315,-0.9522,-0.9874,-1.0032,-1.0087,-0.9723,-0.9128,-0.8971,0.0,0.0,0.0,0.0,0.0,0.0,0.0,0.0,0.0,0.0,0.0,-0.894,-0.894,-0.894,-0.894,-0.894,-0.894,-0.894,-0.8937,-0.8937,-0.8777,-0.8482,-0.8479,-0.8319,0.0,0.0,0.0,0.0,-0.8038,-0.8038,-0.8038,-0.8038,-0.8038,-0.8038,-0.8038,-0.8038,-0.8038,0.0,0.0,0.0,0.0,0.0,0.0,0.0,-0.352,-0.32,-0.3028,-0.2901,-0.2811,-0.2787,-0.2489,-0.2583,-0.3282,-0.3388,0.0,0.0,0.0,0.0,0.0,0.0,0.0,0.0,0.0,-0.487,-0.5125,-0.5087,-0.4985,-0.4864,-0.5023,-0.51,-0.5046,0.0,0.0,0.0,0.0,0.0,0.0,0.0,0.0,0.0,0.0,0.0,0.0,0.0,0.0,0.0,0.0,0.0,0.0,0.0,0.0,0.0,-0.7589,-0.7856,-0.8116,-0.8321,-0.8551,-0.8665,-0.8475,-0.811,-0.7879,-0.8273,-0.8152,-0.8069,-0.8256,-0.8484,-0.8592,-0.8467,-0.8809,-0.9327,-0.9673,-1.0102,-1.0098,-0.9511,-0.9149,0.0,-0.8868,-1.0015,0.0,0.0,0.0,0.0,0.0,0.0,0.0,0.0,0.0,-0.894,-0.894,-0.894,-0.894,-0.894,-0.8835,-0.8835,-0.8937,-0.8726,-0.8574,-0.8479,-0.8381,0.0,0.0,0.0,0.0,0.0,-0.8038,-0.8038,-0.8038,-0.8038,-0.8038,-0.8038,-0.8038,-0.8038,-0.8038,0.0,0.0,0.0,0.0,0.0,0.0,0.0,-0.3651,-0.3348,-0.3314,-0.3044,-0.2748,-0.2446,-0.2256,-0.2342,-0.286,-0.2925,0.0,0.0,0.0,0.0,0.0,0.0,0.0,-0.4772,-0.455,-0.4593,-0.4934,-0.4826,-0.4762,-0.4724,-0.4794,-0.4826,-0.4756,-0.5017,0.0,0.0,0.0,0.0,0.0,0.0,0.0,-0.7928,0.0,0.0,0.0,0.0,0.0,0.0,0.0,0.0,0.0,0.0,0.0,0.0,0.0,-0.7325,-0.7714,-0.7798,-0.8026,-0.8117,-0.7891,-0.7684,-0.7621,-0.7832,-0.7878,-0.7945,-0.8067,-0.8242,-0.8382,-0.8371,-0.8761,-0.9265,-0.9612,-1.0102,-1.0286,-0.9852,-0.9576,0.0,-0.9509,0.0,0.0,0.0,0.0,0.0,0.0,0.0,0.0,0.0,0.0,-0.894,-0.894,-0.894,-0.894,-0.894,-0.8845,-0.8845,-0.8933,-0.8686,-0.8537,-0.8476,0.0,0.0,0.0,0.0,0.0,0.0,-0.8038,-0.8038,-0.8038,-0.8038,-0.8038,-0.8038,-0.8038,-0.8038,-0.8038,0.0,0.0,0.0,0.0,0.0,0.0,0.0,-0.3704,-0.3487,-0.3602,-0.2989,-0.2495,-0.2317,-0.208,-0.2125,-0.2515,0.0,0.0,0.0,0.0,0.0,0.0,0.0,0.0,-0.4376,-0.424,-0.4364,-0.478,-0.464,-0.4666,-0.4852,-0.466,-0.4532,-0.4526,-0.4788,-0.5151,0.0,0.0,0.0,0.0,0.0,0.0,0.0,0.0,0.0,0.0,0.0,0.0,0.0,0.0,0.0,0.0,0.0,0.0,0.0,0.0,0.0,0.0,0.0,-0.7404,-0.7367,-0.7135,-0.7537,-0.7938,-0.776,-0.7856,0.0,-0.8619,-0.8172,-0.7987,-0.8823,-0.9079,-0.9315,-0.9606,-1.009,-1.0491,-1.0671,-1.0368,0.0,0.0,0.0,0.0,0.0,0.0,0.0,0.0,0.0,0.0,0.0,0.0,0.0,-0.8906,-0.8906,-0.891,-0.8923,-0.8913,-0.8906,-0.8903,-0.874,-0.8594,-0.8462,-0.8319,0.0,0.0,0.0,0.0,0.0,-0.8038,-0.8038,-0.8038,-0.8038,-0.8045,-0.8055,-0.8041,-0.8045,-0.8055,0.0,0.0,0.0,0.0,0.0,0.0,0.0,0.0,0.0,0.0,-0.2446,-0.2265,-0.237,-0.1778,-0.1603,0.0,0.0,0.0,0.0,0.0,0.0,0.0,0.0,0.0,-0.4381,-0.3968,-0.4002,-0.4485,-0.4323,-0.4248,-0.4296,-0.4248,-0.435,-0.4596,-0.4858,-0.5279,0.0,0.0,0.0,0.0,0.0,0.0,0.0,0.0,0.0,0.0,-0.576,-0.547,0.0,0.0,0.0,0.0,0.0,0.0,0.0,0.0,-0.6357,-0.6558,-0.6644,0.0,-0.6955,-0.689,-0.6795,-0.6691,0.0,-0.7177,-0.7608,-0.758,-0.794,-0.8382,-0.8576,-0.8879,-0.9171,-0.9426,-0.9931,-1.0349,-1.0524,0.0,0.0,0.0,0.0,0.0,0.0,0.0,0.0,0.0,0.0,0.0,0.0,0.0,0.0,-0.8594,-0.8587,-0.8645,-0.8764,-0.8648,-0.8587,-0.8584,-0.8323,-0.8241,-0.8316,-0.8163,0.0,0.0,0.0,0.0,-0.8038,-0.8038,-0.8038,-0.8038,-0.8038,-0.8113,-0.8201,-0.8082,-0.8113,-0.8201,0.0,0.0,0.0,0.0,0.0,0.0,0.0,0.0,0.0,0.0,0.0,-0.2156,-0.2171,-0.1833,0.0,0.0,0.0,0.0,0.0,0.0,0.0,0.0,0.0,-0.3419,-0.398,-0.3799,-0.386,-0.4221,-0.4091,-0.3956,-0.3816,-0.3765,-0.4026,-0.4596,-0.5169,-0.5498,0.0,0.0,0.0,0.0,-0.5985,0.0,0.0,0.0,0.0,0.0,-0.5488,-0.5214,0.0,-0.5286,-0.5146,-0.4938,0.0,0.0,0.0,0.0,-0.5987,-0.6173,-0.6218,-0.6365,-0.6525,-0.643,-0.6461,-0.6542,-0.6426,-0.6906,-0.7314,-0.7428,-0.7777,-0.8187,-0.8452,-0.8794,-0.9102,-0.9365,-0.9886,-1.0216,0.0,0.0,0.0,0.0,0.0,0.0,0.0,0.0,0.0,0.0,0.0,0.0,0.0,0.0,0.0,0.0,-0.8587,-0.8594,-0.8604,-0.8523,-0.8516,-0.8584,-0.8286,-0.8225,-0.836,-0.814,0.0,0.0,0.0,0.0,-0.8038,-0.8038,-0.8038,-0.8038,-0.8038,-0.8133,-0.8258,-0.8177,-0.8241,-0.8347,0.0,0.0,0.0,0.0,0.0,0.0,0.0,0.0,0.0,0.0,0.0,0.0,0.0,0.0,0.0,0.0,0.0,0.0,0.0,0.0,0.0,0.0,-0.2891,-0.3129,-0.3462,-0.3639,-0.3815,-0.3911,-0.3844,-0.3663,-0.3401,-0.3278,-0.3663,-0.4462,-0.5414,-0.5679,0.0,0.0,0.0,0.0,-0.5543,0.0,0.0,0.0,0.0,0.0,0.0,0.0,0.0,-0.498,-0.4767,-0.4456,-0.4535,0.0,0.0,0.0,0.0,0.0,-0.5887,-0.6034,-0.6142,-0.5921,-0.6285,-0.6569,-0.6482,-0.6718,-0.7117,-0.7584,-0.7707,-0.7927,-0.8392,-0.8809,-0.9062,-0.9315,-0.9474,0.0,0.0,0.0,0.0,0.0,0.0,0.0,0.0,0.0,0.0,0.0,0.0,0.0,0.0,0.0,0.0,0.0,-0.8645,-0.8581,-0.8452,-0.8452,-0.8503,-0.8604,-0.8353,-0.8309,-0.8438,-0.8163,0.0,0.0,0.0,0.0,-0.8038,-0.8038,-0.8038,-0.8041,-0.8065,-0.8153,-0.8272,-0.8272,-0.8347,-0.8428,0.0,0.0,0.0,0.0,0.0,0.0,0.0,0.0,0.0,0.0,0.0,0.0,0.0,0.0,0.0,0.0,0.0,0.0,0.0,0.0,0.0,-0.2864,-0.2907,-0.3011,-0.3236,-0.3445,-0.3542,-0.3494,-0.3424,-0.3212,-0.2915,-0.2882,-0.3298,-0.413,-0.5061,-0.5547,-0.5648,-0.5327,-0.5295,-0.5467,-0.5379,0.0,0.0,0.0,0.0,0.0,0.0,0.0,0.0,-0.4941,-0.4635,-0.4196,-0.4456,0.0,0.0,0.0,0.0,0.0,-0.5634,-0.559,-0.5493,-0.5453,-0.5592,-0.581,-0.59,-0.6258,-0.6733,-0.7555,-0.7861,-0.8067,-0.8445,-0.8581,-0.8715,-0.9192,0.0,-0.7462,0.0,0.0,0.0,0.0,0.0,0.0,0.0,0.0,0.0,0.0,0.0,0.0,0.0,0.0,0.0,0.0,0.0,-0.8326,-0.8303,-0.8303,-0.8248,-0.8143,-0.8096,-0.8153,-0.8296,-0.8119,-0.8109,0.0,0.0,-0.8038,-0.8038,-0.8038,-0.8038,-0.8052,-0.8184,-0.8248,-0.8272,-0.8272,-0.8286,-0.8282,0.0,0.0,0.0,0.0,0.0,0.0,0.0,0.0,0.0,0.0,0.0,0.0,0.0,0.0,0.0,0.0,0.0,0.0,0.0,0.0,-0.2972,-0.2961,-0.3031,-0.3101,-0.3206,-0.3211,-0.3239,-0.324,-0.3038,-0.2798,-0.2553,-0.3384,-0.3931,-0.4258,-0.5432,-0.5634,-0.5106,-0.5099,-0.5131,-0.5176,0.0,0.0,0.0,0.0,0.0,0.0,0.0,0.0,0.0,0.0,-0.4504,-0.4328,-0.4368,0.0,0.0,0.0,0.0,0.0,-0.5299,-0.5133,-0.4875,-0.4785,-0.5207,-0.5624,-0.5581,-0.6029,-0.6544,-0.7021,-0.7516,-0.7879,-0.7922,-0.8408,-0.8817,-0.9022,0.0,0.0,0.0,0.0,0.0,0.0,0.0,0.0,0.0,0.0,0.0,0.0,0.0,0.0,0.0,0.0,0.0,0.0,0.0,-0.8231,-0.8147,-0.8147,-0.815,-0.8163,-0.8079,-0.8123,-0.8265,-0.8109,-0.8079,-0.8143,0.0,-0.8038,-0.8038,-0.8038,-0.8038,-0.8045,-0.8116,-0.8197,-0.8289,-0.8448,-0.8408,-0.8272,0.0,0.0,0.0,0.0,0.0,0.0,0.0,0.0,0.0,0.0,0.0,0.0,0.0,0.0,0.0,0.0,0.0,0.0,0.0,-0.2972,-0.3101,-0.3046,-0.3095,-0.3123,-0.3072,-0.3129,-0.3049,-0.2881,-0.2754,-0.2593,-0.2513,-0.4103,-0.4777,-0.4668,-0.5751,-0.5758,-0.4877,-0.4909,-0.4915,-0.4852,0.0,0.0,0.0,0.0,0.0,0.0,0.0,0.0,0.0,0.0,0.0,0.0,0.0,0.0,0.0,-0.4646,-0.4877,-0.506,-0.4915,-0.4734,-0.4519,-0.4339,-0.4874,-0.5384,-0.511,-0.5603,-0.6177,-0.66,-0.7114,-0.7578,-0.7651,-0.8273,0.0,-0.8849,0.0,0.0,0.0,0.0,0.0,0.0,0.0,0.0,0.0,0.0,0.0,0.0,0.0,0.0,0.0,0.0,0.0,0.0,0.0,0.0,-0.8096,-0.8058,-0.8099,-0.8214,-0.8096,-0.8123,-0.8265,-0.8109,-0.8058,-0.8092,-0.8055,-0.8038,-0.8038,-0.8038,-0.8038,-0.8041,-0.8079,-0.8167,-0.8292,-0.8482,-0.8455,-0.833,0.0,0.0,0.0,0.0,0.0,0.0,0.0,0.0,0.0,0.0,0.0,0.0,0.0,0.0,0.0,0.0,0.0,0.0,0.0,-0.2572,-0.2751,-0.3165,-0.3015,-0.2865,-0.2733,-0.3273,-0.3143,-0.2279,-0.2683,-0.2912,-0.2987,-0.4771,-0.5473,-0.5248,-0.5665,-0.5797,-0.565,-0.482,-0.4602,-0.4782,-0.4543,0.0,0.0,0.0,0.0,0.0,0.0,0.0,0.0,0.0,0.0,0.0,0.0,0.0,-0.3976,-0.4191,-0.4356,-0.4418,-0.4327,-0.4402,-0.453,-0.4418,-0.4584,-0.4593,-0.4043,-0.4413,-0.5315,-0.6609,-0.6922,-0.7221,-0.822,-0.8193,-0.8102,-0.8317,0.0,0.0,0.0,0.0,0.0,0.0,0.0,0.0,0.0,0.0,0.0,0.0,0.0,0.0,0.0,0.0,0.0,0.0,0.0,0.0,-0.8255,-0.8109,-0.8045,-0.8055,-0.8045,-0.8123,-0.8265,-0.8109,-0.8116,-0.8245,-0.8102,-0.8038,-0.8038,-0.8038,-0.8038,-0.8055,-0.8197,-0.8258,-0.8255,-0.8133,-0.8248,-0.8452,0.0,0.0,0.0,0.0,0.0,0.0,0.0,0.0,0.0,0.0,0.0,0.0,0.0,0.0,0.0,0.0,0.0,0.0,0.0,-0.2514,-0.2864,-0.3239,-0.3217,-0.3146,-0.3007,-0.2856,-0.2851,-0.2946,-0.3511,-0.3862,-0.4034,-0.5297,-0.5466,-0.4789,-0.5774,-0.572,-0.4845,-0.4704,-0.4608,-0.4538,-0.4248,-0.4156,0.0,0.0,0.0,0.0,0.0,0.0,0.0,0.0,-0.4293,-0.4412,-0.4236,-0.4174,-0.4153,-0.4275,-0.4182,-0.4127,-0.4606,-0.4515,-0.418,-0.4059,-0.435,-0.4654,-0.4591,-0.3826,-0.3348,-0.4101,-0.4435,-0.54,-0.8134,0.0,-0.7588,0.0,0.0,0.0,0.0,0.0,0.0,0.0,0.0,0.0,0.0,0.0,0.0,0.0,0.0,0.0,0.0,0.0,0.0,0.0,0.0,-0.8126,-0.8126,-0.8069,-0.8038,-0.8038,-0.8038,-0.8069,-0.8126,-0.8065,-0.8072,-0.8123,-0.8065,-0.8038,-0.8038,-0.8038,-0.8038,-0.8045,-0.8102,-0.8126,-0.8133,-0.817,-0.8194,-0.8214,0.0,0.0,0.0,0.0,0.0,0.0,0.0,0.0,0.0,0.0,0.0,0.0,0.0,0.0,0.0,0.0,0.0,0.0,-0.2058,-0.245,-0.2837,-0.319,-0.3281,-0.3259,-0.3162,-0.2682,-0.2724,-0.3329,-0.421,-0.4607,-0.4581,-0.5652,-0.5636,-0.477,-0.5547,-0.5388,-0.4505,-0.4427,-0.4318,-0.4221,-0.4053,-0.3993,0.0,0.0,0.0,0.0,0.0,0.0,0.0,0.0,-0.4326,-0.4468,-0.4304,-0.418,-0.4129,-0.4251,-0.4012,-0.3828,-0.4628,-0.4286,-0.3873,-0.4231,-0.4259,-0.4409,-0.5279,-0.3868,-0.2324,-0.1925,-0.2013,-0.3139,-0.6446,-0.6539,0.0,0.0,0.0,0.0,0.0,0.0,0.0,0.0,0.0,0.0,0.0,0.0,0.0,0.0,0.0,0.0,0.0,0.0,0.0,0.0,0.0,0.0,-0.8038,-0.8038,-0.8038,-0.8038,-0.8038,-0.8038,-0.8038,-0.8038,-0.8038,-0.8038,-0.8038,-0.8038,-0.8038,-0.8038,-0.8038,-0.8038,-0.8038,-0.8038,-0.8052,-0.816,-0.8163,-0.8126,0.0,0.0,0.0,0.0,0.0,0.0,0.0,0.0,0.0,0.0,0.0,0.0,0.0,0.0,0.0,0.0,0.0,0.0,-0.2263,-0.2355,-0.2572,-0.2998,-0.3068,-0.3111,-0.3111,-0.2848,-0.2877,-0.3201,-0.4606,-0.5029,-0.4529,-0.5805,-0.606,-0.547,-0.4863,-0.4739,-0.4915,-0.3936,-0.3638,-0.3891,-0.3891,-0.3891,-0.3891,0.0,0.0,0.0,0.0,0.0,0.0,0.0,-0.4608,-0.4489,-0.4491,-0.4146,-0.3719,-0.3931,-0.3718,-0.3506,-0.4026,-0.3772,-0.3633,-0.505,-0.4324,-0.3779,-0.5883,-0.4718,-0.258,-0.0454,-0.0,-0.0734,-0.313,-0.3812,0.0,0.0,0.0,0.0,0.0,0.0,0.0,0.0,0.0,0.0,0.0,0.0,0.0,0.0,0.0,0.0,0.0,0.0,0.0,0.0,0.0,0.0,-0.8038,-0.8038,-0.8038,-0.8038,-0.8038,-0.8038,-0.8038,-0.8038,-0.8038,-0.8038,-0.8038,-0.8038,-0.8038,-0.8038,-0.8038,-0.8038,-0.8038,-0.8038,-0.8038,-0.8038,-0.8136,-0.847,0.0,0.0,0.0,0.0,0.0,0.0,0.0,0.0,0.0,0.0,0.0,0.0,0.0,0.0,0.0,0.0,0.0,0.0,-0.1967,-0.2254,-0.2687,-0.3326,-0.3423,-0.3402,-0.3302,-0.3566,-0.366,-0.3624,-0.4784,-0.5086,-0.4515,-0.5456,-0.5401,-0.4473,-0.474,-0.4683,-0.4329,-0.3837,-0.3672,-0.3765,-0.3858,-0.3826,-0.3765,0.0,0.0,0.0,0.0,0.0,0.0,0.0,0.0,0.0,-0.4426,-0.4122,-0.39,-0.4094,-0.3195,-0.2298,-0.2945,-0.3769,-0.4326,-0.3912,-0.4599,-0.5171,-0.3904,-0.4535,-0.4934,-0.3354,-0.1401,-0.075,-0.3383,-0.5298,0.0,0.0,0.0,0.0,0.0,0.0,0.0,0.0,0.0,0.0,0.0,0.0,0.0,0.0,0.0,0.0,0.0,0.0,0.0,0.0,0.0,0.0,-0.8038,-0.8038,-0.8038,-0.8038,-0.8038,-0.8038,-0.8038,-0.8038,-0.8038,-0.8038,-0.8038,-0.8038,-0.8038,-0.8038,-0.8038,-0.8038,-0.8038,-0.8038,-0.8038,-0.8038,-0.866,-0.959,0.0,0.0,0.0,0.0,0.0,0.0,0.0,0.0,0.0,0.0,-0.1808,-0.1267,0.0,0.0,0.0,0.0,0.0,0.0,0.0,-0.2358,-0.2837,-0.3542,-0.3465,-0.3338,-0.3239,-0.3612,-0.3718,-0.3519,-0.4766,-0.5082,-0.4564,-0.5156,-0.4877,-0.3906,-0.4377,-0.435,-0.4009,-0.3733,-0.3638,-0.3705,-0.3798,-0.3798,-0.3798,0.0,0.0,0.0,0.0,0.0,0.0,0.0,0.0,0.0,-0.4487,-0.4203,-0.3925,-0.4056,-0.2849,-0.1582,-0.2314,-0.2239,-0.2105,-0.2915,-0.3459,-0.363,-0.2731,-0.4465,-0.6051,-0.5276,-0.4189,-0.355,-0.3835,-0.5855,0.0,0.0,0.0,0.0,0.0,0.0,0.0,0.0,0.0,0.0,0.0,0.0,0.0,0.0,0.0,0.0,0.0,0.0,0.0,0.0,0.0,0.0,-0.8038,-0.8038,-0.8038,-0.8038,-0.8038,-0.8038,-0.8038,-0.8038,-0.8038,-0.8038,-0.8038,-0.8038,-0.8038,-0.8038,-0.8038,-0.8038,-0.8038,-0.8038,-0.8038,-0.8038,-0.8531,-0.9312,0.0,0.0,0.0,0.0,0.0,0.0,0.0,0.0,0.0,0.0,-0.1865,-0.1514,0.0,0.0,0.0,0.0,0.0,0.0,0.0,-0.2606,-0.2998,-0.3689,-0.3323,-0.3089,-0.3019,-0.3261,-0.3304,-0.3154,-0.4515,-0.4934,-0.4503,-0.4788,-0.449,-0.3705,-0.3812,-0.3892,-0.3832,-0.3569,-0.3539,-0.3672,-0.3705,-0.3765,-0.3891,-0.3981,0.0,0.0,0.0,0.0,0.0,0.0,0.0,0.0,-0.4733,-0.4335,-0.3922,-0.4002,-0.2696,-0.1335,-0.1867,0.0349,0.198,-0.1466,-0.1172,-0.0378,-0.1902,-0.4082,-0.5786,-0.5976,-0.7006,-0.6976,-0.4197,0.0,0.0,0.0,0.0,0.0,0.0,0.0,0.0,0.0,0.0,0.0,0.0,0.0,0.0,0.0,0.0,0.0,0.0,0.0,0.0,0.0,0.0,0.0,-0.7997,-0.8011,-0.8018,0.0,-0.8031,-0.8038,-0.8038,-0.8038,-0.8038,-0.8038,-0.8038,-0.8038,-0.8038,-0.8038,-0.8038,-0.8038,-0.8038,-0.8038,-0.8038,-0.8038,-0.8038,-0.8528,0.0,0.0,0.0,0.0,0.0,0.0,0.0,0.0,0.0,0.0,0.0,0.0,0.0,0.0,0.0,0.0,0.0,0.0,0.0,-0.2654,-0.2977,-0.3738,-0.3499,-0.3309,-0.3229,-0.3294,-0.3407,-0.3561,-0.4,-0.4074,-0.3832,-0.4256,-0.4146,-0.3625,-0.3691,-0.3686,-0.3551,-0.331,-0.3332,-0.3532,-0.3602,-0.3667,-0.3784,-0.4112,-0.4346,0.0,0.0,0.0,0.0,0.0,0.0,0.0,-0.4666,-0.4357,-0.4091,-0.4285,-0.3002,-0.1375,-0.0662,0.1979,0.4429,0.3733,0.1771,-0.0083,-0.0436,-0.0995,-0.1842,-0.3451,-0.2744,-0.2341,-0.3905,0.0,0.0,0.0,0.0,0.0,0.0,0.0,0.0,0.0,0.0,0.0,0.0,0.0,0.0,0.0,0.0,0.0,0.0,0.0,0.0,0.0,0.0,-0.7807,-0.7695,-0.7804,-0.7862,0.0,-0.798,-0.8038,-0.8038,-0.8038,-0.8038,-0.8038,-0.8038,-0.8038,-0.8038,-0.8038,-0.8038,-0.8038,-0.8038,-0.8038,-0.8038,-0.8038,-0.8627,-0.9801,0.0,0.0,0.0,0.0,0.0,0.0,0.0,0.0,0.0,0.0,0.0,0.0,0.0,0.0,0.0,0.0,0.0,0.0,0.0,0.0,-0.3147,-0.3535,-0.3499,-0.3393,-0.3309,-0.3296,-0.335,-0.3466,-0.3606,-0.3668,-0.3661,-0.3879,-0.3883,-0.3709,-0.3648,-0.3646,-0.3681,-0.3448,-0.3361,-0.3405,-0.3438,-0.3475,-0.353,-0.389,-0.4204,-0.4487,-0.4863,0.0,0.0,0.0,0.0,0.0,0.0,0.0,-0.4125,-0.4196,-0.3069,-0.152,-0.0275,0.1955,0.4128,0.5396,0.4351,0.2501,0.043,-0.0,-0.0272,-0.1416,-0.0742,-0.0481,0.0,0.0,0.0,0.0,0.0,0.0,0.0,0.0,0.0,0.0,0.0,0.0,0.0,0.0,0.0,0.0,0.0,0.0,0.0,0.0,0.0,0.0,-0.7672,-0.7675,-0.76,-0.7675,-0.7743,-0.7814,-0.7892,-0.797,-0.8038,-0.8038,-0.8038,-0.8038,-0.8038,-0.8038,-0.8038,-0.8038,-0.8038,-0.8038,-0.8038,-0.8038,-0.8038,-0.8038,-0.8432,-0.9312,0.0,0.0,0.0,0.0,0.0,0.0,0.0,0.0,0.0,0.0,0.0,0.0,0.0,0.0,0.0,0.0,0.0,0.0,0.0,0.0,0.0,-0.3317,-0.3436,-0.3436,-0.3296,-0.3296,-0.326,-0.3208,-0.3311,-0.3423,-0.3469,-0.3499,-0.3508,-0.3586,-0.344,-0.3525,-0.3744,-0.3586,-0.3432,-0.3339,-0.3339,-0.3339,-0.339,-0.368,-0.4066,-0.4466,-0.4797,-0.504,-0.5198,-0.5198,0.0,0.0,0.0,0.0,-0.4193,-0.4179,-0.3354,-0.214,-0.0714,0.1081,0.3045,0.5358,0.6156,0.5275,0.1401,0.0258,-0.0,-0.0,-0.0,0.0,0.0,0.0,0.0,0.0,0.0,0.0,0.0,0.0,0.0,0.0,0.0,0.0,0.0,0.0,0.0,0.0,0.0,0.0,0.0,0.0,-0.7353,-0.7478,-0.7509,-0.7519,-0.7519,-0.7546,-0.7617,-0.7736,-0.7763,-0.7851,-0.7997,-0.7974,-0.7991,-0.8038,-0.8038,-0.8038,-0.8038,-0.8038,-0.8038,-0.8038,-0.8038,-0.8038,-0.8038,-0.8038,-0.8038,-0.8333,0.0,0.0,0.0,0.0,0.0,0.0,0.0,0.0,0.0,0.0,-0.2708,-0.2607,0.0,0.0,0.0,0.0,0.0,0.0,0.0,0.0,0.0,-0.3317,-0.3436,-0.3436,-0.3296,-0.3296,-0.326,-0.3208,-0.3286,-0.3069,-0.2566,-0.2915,-0.2933,-0.2697,-0.2838,-0.2995,-0.3202,-0.3182,-0.3303,-0.349,-0.349,-0.3524,-0.3687,-0.4068,-0.4279,-0.4409,-0.4597,-0.473,-0.4845,-0.4753,-0.4661,0.0,0.0,0.0,-0.4726,-0.4697,-0.4521,-0.4039,-0.2705,0.0058,0.3057,0.5288,0.6053,0.5634,0.3219,0.1311,-0.0,0.0,0.0,0.0,0.0,0.0,0.0,0.0,0.0,0.0,0.0,0.0,0.0,0.0,0.0,0.0,0.0,0.0,0.0,0.0,0.0,0.0,0.0,-0.6929,-0.6997,-0.7017,-0.7136,-0.72,-0.72,-0.7336,-0.7411,-0.7431,-0.7563,-0.7702,-0.7838,-0.7712,-0.7797,-0.8038,-0.8038,-0.8038,-0.8038,-0.8038,-0.8038,-0.8038,-0.8038,-0.8038,-0.8038,-0.8038,-0.8038,-0.8237,0.0,0.0,0.0,0.0,0.0,0.0,0.0,0.0,0.0,0.0,0.0,-0.2534,0.0,0.0,0.0,0.0,0.0,0.0,0.0,0.0,0.0,-0.3309,-0.3393,-0.3372,-0.3239,-0.3217,-0.3111,-0.2966,-0.3003,-0.2743,-0.2249,-0.2426,-0.2472,-0.2417,-0.2316,-0.2483,-0.2904,-0.2646,-0.2796,-0.3141,-0.3019,-0.3159,-0.349,-0.374,-0.393,-0.4003,-0.405,-0.4191,-0.4381,-0.4233,-0.4274,-0.4447,-0.4481,0.0,0.0,0.0,-0.4752,-0.4563,-0.3369,-0.0461,0.2458,0.3303,0.4931,0.5739,0.3582,0.1514,-0.0,0.0,0.0,0.0,0.0,0.0,0.0,0.0,0.0,0.0,0.0,0.0,0.0,0.0,0.0,0.0,0.0,0.0,0.0,0.0,0.0,0.0,-0.6695,-0.6763,-0.6841,-0.6926,-0.699,0.0,-0.7139,-0.7207,-0.7285,-0.737,-0.7441,-0.755,-0.7689,-0.7539,-0.7678,-0.8035,-0.7946,-0.796,-0.8038,-0.8038,-0.8038,-0.8038,-0.8038,-0.8038,-0.8038,-0.8038,-0.8038,-0.8237,0.0,0.0,0.0,0.0,0.0,0.0,0.0,0.0,0.0,0.0,0.0,0.0,0.0,0.0,0.0,0.0,0.0,0.0,0.0,0.0,0.0,-0.3321,-0.3351,-0.333,-0.3181,-0.3138,-0.2988,-0.2751,-0.277,-0.2568,-0.209,-0.2132,-0.2196,-0.2207,-0.1875,-0.2056,-0.2578,-0.2189,-0.2337,-0.2825,-0.2813,-0.3051,-0.3455,-0.3653,-0.3806,-0.3818,-0.3516,-0.372,-0.4006,-0.3691,-0.3822,-0.416,-0.4222,-0.4388,0.0,0.0,0.0,-0.4835,-0.375,-0.1487,0.0717,0.1565,0.3809,0.5359,0.354,0.0,-0.0,0.0,0.0,0.0,0.0,0.0,0.0,0.0,0.0,0.0,0.0,0.0,0.0,0.0,0.0,0.0,0.0,0.0,0.0,0.0,0.0,0.0,-0.6522,-0.6529,-0.6617,-0.6807,-0.6814,-0.6881,-0.7027,-0.7065,-0.7163,-0.7312,-0.7312,-0.7394,-0.7536,-0.7383,-0.7539,-0.7923,-0.7845,-0.7875,-0.7984,-0.8024,-0.8038,-0.8038,-0.8038,-0.8038,-0.8038,-0.8038,-0.8038,-0.8137,0.0,0.0,0.0,0.0,0.0,0.0,0.0,0.0,0.0,0.0,0.0,0.0,-0.2758,-0.2425,-0.2324,-0.2676,-0.2821,-0.3029,-0.3296,-0.3507,-0.3514,-0.33,-0.3351,0.0,-0.3111,-0.3111,-0.2945,-0.2609,-0.2749,-0.2563,-0.2088,-0.224,-0.2113,-0.1718,-0.1567,-0.1764,-0.2105,-0.192,-0.2166,-0.2747,-0.3308,-0.364,-0.3801,-0.4184,-0.4383,-0.4218,-0.3296,-0.3406,-0.3893,-0.3182,-0.3357,-0.3863,-0.4041,-0.435,-0.4651,0.0,0.0,0.0,-0.4075,-0.3666,-0.2735,0.0897,0.3235,0.4301,0.0,0.0,0.0,0.0,0.0,0.0,0.0,0.0,0.0,0.0,0.0,0.0,0.0,0.0,0.0,0.0,0.0,0.0,0.0,0.0,0.0,0.0,0.0,0.0,-0.6057,-0.6064,-0.6196,-0.6485,-0.6498,-0.6569,-0.6722,-0.6868,-0.701,-0.7153,-0.7153,-0.7231,-0.7377,-0.7224,-0.7322,-0.7631,-0.7756,-0.7818,-0.7834,-0.798,-0.8038,-0.8038,-0.8038,-0.8038,-0.8038,-0.8038,-0.8038,-0.8038,0.0,0.0,0.0,0.0,0.0,0.0,0.0,0.0,0.0,0.0,0.0,0.0,0.0,-0.2731,-0.2681,-0.2939,-0.3083,-0.3205,-0.3296,-0.3402,-0.3345,-0.3058,-0.3068,-0.2998,-0.2853,-0.2794,-0.2757,-0.2736,-0.2781,-0.2727,-0.2618,-0.2609,-0.2445,-0.2113,-0.1746,-0.1618,-0.1721,-0.1504,-0.1732,-0.2244,-0.2127,-0.2544,-0.3274,-0.3,-0.3234,-0.3496,-0.1765,-0.1561,-0.1932,-0.0651,-0.0988,-0.1978,-0.2308,-0.3187,-0.4219,-0.4985,-0.5567,-0.5937,-0.5584,-0.5072,-0.4263,-0.2673,-0.0298,0.1419,0.0504,0.0127,0.0,0.0,0.0,0.0,0.0,0.0,0.0,0.0,0.0,0.0,0.0,0.0,0.0,0.0,0.0,0.0,0.0,0.0,0.0,0.0,0.0,0.0,-0.6017,-0.603,-0.6166,-0.6464,-0.6471,-0.6546,-0.6698,-0.6756,-0.6807,-0.6858,-0.6956,-0.7034,-0.7088,-0.7126,-0.72,-0.7312,-0.7465,-0.7584,-0.7685,-0.7831,-0.7892,-0.7902,-0.8001,-0.8038,-0.8038,-0.8038,-0.8038,-0.8038,0.0,0.0,0.0,0.0,0.0,0.0,0.0,0.0,0.0,-0.2572,0.0,0.0,0.0,0.0,-0.2939,-0.3153,-0.3147,-0.3126,-0.3105,-0.3147,-0.3046,-0.2778,-0.2805,-0.2757,-0.2594,-0.2582,-0.2594,-0.267,-0.2684,-0.2734,-0.2815,-0.278,-0.2688,-0.251,-0.2207,-0.1887,-0.1621,-0.1435,-0.1623,-0.1942,-0.1874,-0.2387,-0.3033,-0.2313,-0.2343,-0.2567,0.0,0.0,0.0,0.096,0.0458,-0.0751,-0.1257,-0.2621,-0.4184,-0.4959,-0.5508,-0.5887,-0.6213,-0.5987,-0.5493,-0.4791,-0.3733,-0.2816,-0.2358,0.0,0.0,0.0,0.0,0.0,0.0,0.0,0.0,0.0,0.0,0.0,0.0,0.0,0.0,0.0,0.0,0.0,0.0,0.0,0.0,0.0,0.0,0.0,-0.5871,-0.5881,-0.6017,-0.6315,-0.6373,-0.6471,-0.6624,-0.6624,-0.6651,-0.6702,-0.6803,-0.6851,-0.6854,-0.6949,-0.7021,-0.7075,-0.7177,-0.7336,-0.7536,-0.7682,-0.774,-0.7753,-0.7902,-0.7963,-0.797,-0.8021,-0.8038,-0.8038,0.0,0.0,0.0,0.0,0.0,0.0,0.0,0.0,-0.2337,-0.2921,0.0,0.0,0.0,0.0,0.0,-0.3272,-0.3005,-0.2766,-0.2718,-0.2696,-0.2636,-0.2509,-0.2636,-0.2614,-0.2417,-0.2465,-0.2471,-0.2416,-0.2484,-0.2539,-0.2623,-0.2726,-0.2808,-0.2822,-0.2925,-0.2612,-0.1913,-0.1766,-0.1806,-0.1984,-0.2746,-0.3163,-0.3134,-0.2124,-0.1794,0.0,0.0693,0.1597,0.0,0.152,0.0,0.0,-0.1075,-0.2796,-0.4529,-0.4798,-0.5022,-0.5301,0.0,0.0,0.0,-0.507,0.0,0.0,-0.5022,0.0,0.0,0.0,0.0,0.0,0.0,0.0,0.0,0.0,0.0,0.0,0.0,0.0,0.0,0.0,0.0,0.0,0.0,0.0,0.0,0.0,0.0,-0.542,-0.5576,-0.5593,-0.5728,-0.6013,-0.6173,-0.6322,-0.6458,-0.6464,-0.6539,-0.6688,-0.6692,-0.6695,-0.6695,-0.6698,-0.678,-0.6922,-0.6926,-0.7092,-0.737,-0.7529,-0.7594,-0.7607,-0.7753,-0.7811,-0.7831,-0.7984,-0.8038,-0.8038,0.0,0.0,0.0,0.0,0.0,-0.3144,-0.2799,-0.2926,-0.2938,0.0,0.0,0.0,-0.3575,-0.3504,-0.3389,-0.3231,-0.295,-0.2827,-0.2909,-0.2883,-0.2806,-0.2728,-0.2651,-0.2651,-0.2698,-0.2711,-0.2749,-0.2847,-0.2755,-0.2767,-0.287,-0.2742,-0.2754,-0.2933,-0.2924,-0.2849,-0.2692,-0.2311,-0.2007,-0.1707,-0.0835,-0.0746,-0.0999,0.0421,0.0,0.0,0.0,0.2617,0.2689,0.0,0.269,0.0902,-0.16,-0.3349,-0.4464,-0.4822,-0.5216,-0.5635,-0.5739,0.0,0.0,0.0,0.0,0.0,0.0,0.0,0.0,0.0,0.0,0.0,0.0,0.0,0.0,0.0,0.0,0.0,0.0,0.0,0.0,0.0,0.0,0.0,0.0,0.0,0.0,0.0,-0.5128,-0.527,-0.5416,-0.5627,-0.5779,-0.5861,-0.6013,-0.6112,-0.6152,-0.6264,-0.6339,-0.6383,-0.6485,-0.6536,-0.6539,-0.6651,-0.6722,-0.677,-0.6881,-0.6976,-0.7071,-0.7329,-0.7434,-0.7458,-0.7712,-0.7811,-0.7831,-0.7984,-0.8038,-0.8038,0.0,0.0,0.0,0.0,0.0,-0.306,-0.2798,-0.2871,-0.2903,0.0,0.0,0.0,-0.3542,-0.3445,-0.3278,-0.3127,-0.2855,-0.2723,-0.2836,-0.2683,-0.2589,-0.2558,-0.2387,-0.2383,-0.2558,-0.2514,-0.2578,-0.2751,-0.2577,-0.2608,-0.2789,-0.2707,-0.2811,-0.3099,-0.3161,-0.3234,-0.3226,-0.2916,-0.2146,-0.117,-0.0951,-0.0704,0.0,0.1095,0.1276,0.0,0.0,0.0,0.3931,0.4423,0.354,0.0,0.0,-0.2832,-0.3294,-0.4499,-0.4848,-0.4977,-0.5314,-0.6289,-0.7159,-0.713,0.0,0.0,-0.8637,-0.8007,0.0,0.0,0.0,0.0,0.0,0.0,0.0,0.0,0.0,0.0,0.0,0.0,0.0,0.0,0.0,0.0,0.0,0.0,0.0,0.0,-0.5043,-0.5152,-0.5362,-0.5647,-0.5779,-0.5715,-0.5857,-0.5966,-0.603,-0.6118,-0.6196,-0.6264,-0.6346,-0.6383,-0.6386,-0.6478,-0.6549,-0.661,-0.6698,-0.6773,-0.6851,-0.7088,-0.7221,-0.7305,-0.7604,-0.7723,-0.775,-0.796,-0.8038,-0.8038,0.0,0.0,-0.3129,-0.298,-0.2813,-0.2671,-0.2641,-0.2483,-0.2565,0.0,-0.3097,-0.3171,-0.3463,-0.3219,-0.3014,-0.298,-0.2697,-0.2536,-0.2592,-0.2347,-0.2244,-0.2244,-0.2063,-0.2049,-0.224,-0.2175,-0.2221,-0.2381,-0.2203,-0.2237,-0.2471,-0.2587,-0.2835,-0.3185,-0.3404,-0.3565,-0.3537,-0.3478,-0.2311,-0.0638,-0.1871,-0.1509,0.0,0.0,0.139,0.1502,0.3859,0.4833,0.4941,0.4381,0.3509,0.0,0.0,0.0,0.0,-0.3758,-0.4125,-0.4011,-0.484,-0.567,-0.6454,-0.7019,0.0,0.0,-0.8748,-0.7521,0.0,0.0,0.0,0.0,0.0,0.0,0.0,0.0,0.0,0.0,0.0,0.0,0.0,0.0,0.0,0.0,0.0,0.0,-0.1207,-0.4148,-0.4497,-0.4764,-0.5166,-0.5484,-0.5634,-0.5569,-0.5701,-0.585,-0.6003,-0.602,-0.6108,-0.6338,-0.6338,-0.6338,-0.6338,-0.6338,-0.6329,-0.6451,-0.6464,-0.6549,-0.6688,-0.6858,-0.7004,-0.7146,-0.7455,-0.7577,-0.7607,-0.7889,-0.7991,-0.7991,0.0,-0.3393,-0.3551,-0.3416,-0.3253,-0.3106,-0.2881,-0.2892,-0.2936,-0.2896,-0.3237,-0.346,-0.3344,-0.3283,-0.3135,-0.2851,-0.2623,-0.2492,-0.2524,-0.2434,-0.2421,-0.2582,-0.2401,-0.2394,-0.261,-0.2428,-0.2331,-0.2335,-0.2276,-0.2293,-0.233,-0.2354,-0.2597,-0.298,-0.3085,-0.3199,-0.3274,-0.35,-0.2478,-0.0793,-0.0161,0.1475,0.361,0.3903,0.3929,0.3832,0.4356,0.4601,0.4362,0.2713,0.2288,0.2029,0.0,0.0,0.0,-0.228,0.0,-0.4761,-0.4931,-0.5751,-0.6638,0.0,0.0,0.0,-0.8794,-0.8562,-0.8466,0.0,0.0,0.0,0.0,0.0,0.0,0.0,0.0,0.0,0.0,0.0,0.0,0.0,0.0,0.0,0.0,0.0,-0.0288,-0.0879,-0.2051,-0.3057,-0.3875,-0.4879,-0.5447,-0.5406,-0.5552,-0.5701,-0.5844,-0.5969,-0.6108,-0.6338,-0.6338,-0.6338,-0.6338,-0.6338,-0.6278,-0.6308,-0.6424,-0.6488,-0.6539,-0.6814,-0.6946,-0.7,-0.7299,-0.7414,-0.7438,-0.7617,-0.7685,-0.7685,-0.3014,-0.3245,-0.334,-0.3175,-0.297,-0.2834,-0.2841,-0.2808,-0.2867,-0.3253,-0.3475,-0.3471,-0.3105,-0.2872,-0.2655,-0.2387,-0.1978,-0.1893,-0.2189,-0.1884,-0.1902,-0.2383,-0.2275,-0.2295,-0.244,-0.2246,-0.2148,-0.2145,-0.2045,-0.2066,-0.2194,-0.2304,-0.2544,-0.2907,-0.3031,-0.3135,-0.3183,-0.2309,-0.0666,0.1289,0.061,0.0,0.3445,0.4465,0.4492,0.4141,0.475,0.4787,0.4323,0.3219,0.2739,0.0,0.0,-0.054,-0.1697,0.0,-0.327,-0.4599,0.0,0.0,0.0,-0.6403,0.0,0.0,0.0,-0.8657,-0.8862,0.0,0.0,0.0,0.0,0.0,0.0,0.0,0.0,0.0,0.0,0.0,0.0,0.0,0.0,0.0,0.0,0.0,-0.0,-0.0,-0.0666,-0.1693,-0.3071,-0.4602,-0.5367,-0.5425,-0.5437,-0.5545,-0.5694,-0.5772,-0.5922,-0.6146,-0.6146,-0.6186,-0.6338,-0.6338,-0.6338,-0.6342,-0.6335,-0.6366,-0.6383,-0.661,-0.6746,-0.6851,-0.7227,-0.737,-0.739,-0.7543,-0.76,-0.7611,-0.2716,-0.2911,-0.2973,-0.2746,-0.2543,-0.2477,-0.2716,-0.261,-0.275,-0.3477,-0.3556,-0.3246,-0.245,-0.2154,-0.1898,-0.1622,-0.1075,-0.1016,-0.1667,-0.1238,-0.122,-0.1882,-0.1913,-0.1973,-0.2099,-0.1897,-0.1839,-0.1914,-0.1744,-0.1811,-0.2119,-0.227,-0.2509,-0.2868,-0.3066,-0.2913,-0.2447,-0.0875,0.125,0.3399,0.0,0.1832,0.3062,0.4578,0.4471,0.3619,0.4871,0.4997,0.4478,0.4129,0.3589,0.2944,0.1644,0.0267,0.0,0.0,0.0,0.0,0.0,0.0,0.0,0.0,0.0,-0.767,0.0,0.0,0.0,0.0,0.0,0.0,0.0,0.0,0.0,0.0,0.0,0.0,0.0,0.0,0.0,0.0,0.0,0.0,0.0,0.0,-0.0,-0.0,-0.0655,-0.1529,-0.2622,-0.4403,-0.539,-0.5425,-0.5428,-0.5437,-0.5589,-0.5589,-0.5739,-0.603,-0.603,-0.6112,-0.6338,-0.6338,-0.6338,-0.6338,-0.6338,-0.6338,-0.6271,-0.6413,-0.6546,-0.6698,-0.7119,-0.7302,-0.7339,-0.7465,-0.7512,-0.7526,-0.2441,-0.2706,-0.2838,-0.2507,-0.2474,-0.251,-0.2543,-0.2706,-0.2845,-0.2837,-0.3119,-0.266,-0.0955,-0.1077,-0.1114,-0.0613,-0.0134,-0.0226,-0.1031,-0.0823,-0.0821,-0.1179,-0.1425,-0.1619,-0.1748,-0.1495,-0.143,-0.155,-0.155,-0.1709,-0.2119,-0.2117,-0.235,-0.2734,-0.2792,-0.1773,0.0049,0.0105,0.141,0.0,0.486,0.5493,0.0,0.5813,0.4738,0.3218,0.4358,0.4721,0.4556,0.0,0.3987,0.4145,0.0,0.1474,0.0968,-0.1454,0.0,0.0,0.0,0.0,0.0,0.0,-0.6014,0.0,0.0,0.0,0.0,0.0,0.0,0.0,0.0,0.0,0.0,0.0,0.0,0.0,0.0,0.0,0.0,0.0,0.0,0.0,0.0,0.0,0.0,-0.0,-0.2983,-0.4174,-0.2757,-0.4415,-0.5422,-0.5428,-0.5428,-0.5437,-0.5589,-0.5589,-0.5739,-0.603,-0.603,-0.6112,-0.6338,-0.6338,-0.6338,-0.6338,-0.6338,-0.6338,-0.6271,-0.6413,-0.6481,-0.6529,-0.6854,-0.7054,-0.717,-0.7187,-0.7193,-0.7193,-0.2374,-0.2643,-0.2775,-0.251,-0.258,-0.2709,-0.2823,-0.3205,-0.3372,-0.3082,-0.3082,-0.2439,-0.0564,-0.0361,0.0046,0.0977,0.0,0.1457,0.0,0.0,0.0455,0.0652,-0.0684,-0.1219,-0.0738,-0.1163,-0.1442,-0.1511,-0.1511,-0.1643,-0.1919,-0.2001,-0.2198,-0.2417,-0.148,-0.0776,-0.0154,0.0,0.3283,0.0,0.0,0.0,0.0,0.749,0.6592,0.5019,0.4688,0.4558,0.4529,0.0,0.3854,0.0,0.0,0.0,0.0,0.0,0.0,0.0,0.0,0.0,0.0,0.0,0.0,0.0,-0.6666,0.0,-0.8315,0.0,0.0,0.0,0.0,0.0,0.0,0.0,0.0,0.0,0.0,0.0,0.0,0.0,0.0,0.0,0.0,0.0,0.0,0.0,0.0,-0.3773,-0.4381,-0.4905,-0.5181,-0.5104,-0.527,-0.5348,-0.5321,-0.5413,-0.5562,-0.5776,-0.5857,-0.5976,-0.6129,-0.622,-0.6338,-0.6338,-0.6338,-0.6338,-0.6268,-0.6325,-0.6396,-0.6485,-0.6614,-0.681,-0.7027,-0.7109,-0.7139,-0.7153,-0.2181,-0.2477,-0.266,-0.249,-0.2724,-0.2986,-0.3228,-0.3544,-0.3475,-0.2703,-0.2505,-0.1591,0.0596,0.0973,0.0,0.244,0.2867,0.2843,0.0,0.0,0.1486,0.1982,0.0226,-0.0431,0.0317,-0.0506,-0.1009,-0.1157,-0.1301,-0.1485,-0.1722,-0.185,-0.2035,-0.2187,-0.0938,-0.0248,0.0267,0.0,0.4535,0.4849,0.5829,0.6813,0.7598,0.7349,0.6844,0.6063,0.5041,0.4619,0.4599,0.4738,0.413,0.0,0.419,0.0,0.0,0.0,0.0,0.0,-0.131,0.0,0.0,0.0,0.0,0.0,0.0,0.0,0.0,0.0,0.0,0.0,0.0,0.0,-0.8398,-0.8459,0.0,0.0,0.0,0.0,0.0,0.0,0.0,0.0,0.0,0.0,0.0,0.0,-0.4797,0.0,-0.5505,-0.5389,-0.5128,-0.4975,-0.5186,-0.5264,-0.5196,-0.5304,-0.544,-0.5593,-0.5735,-0.5861,-0.5973,-0.6169,-0.6237,-0.62,-0.6244,-0.6338,-0.6338,-0.6338,-0.6322,-0.6417,-0.6458,-0.6634,-0.6881,-0.7031,-0.7105,-0.7156,-0.1762,-0.2142,-0.2484,-0.2401,-0.2825,-0.3315,-0.3623,-0.3523,0.0,0.0,0.0,0.0,0.0,0.0,0.0,0.0,0.0,0.3451,0.2571,0.0,0.1852,0.2272,0.1323,0.0932,0.0,0.0771,0.0261,-0.0251,-0.0843,-0.1247,-0.1511,-0.1638,-0.1848,-0.2098,-0.1983,-0.026,0.253,0.2847,0.4512,0.6996,0.7058,0.7001,0.6692,0.0,0.4149,0.5171,0.5108,0.0,0.0,0.5237,0.5148,0.0,0.0,0.0,0.0,0.0,0.0,0.0,0.0,0.0,0.0,-0.0,0.0,0.0,0.0,0.0,-0.7501,0.0,0.0,0.0,0.0,-0.7981,-0.7842,-0.818,-0.7955,0.0,0.0,0.0,0.0,0.0,0.0,0.0,0.0,0.0,0.0,0.0,-0.6643,0.0,-0.5632,-0.5608,-0.5406,-0.5118,-0.5131,-0.5206,-0.5418,-0.5425,-0.544,-0.5593,-0.5735,-0.5803,-0.582,-0.6122,-0.6179,-0.6044,-0.6196,-0.6338,-0.6338,-0.6338,-0.6264,-0.6281,-0.642,-0.6569,-0.6725,-0.6878,-0.7021,-0.7139,-0.0894,-0.1739,-0.2377,-0.2396,-0.2881,0.0,0.0,-0.238,0.0,0.0,0.0,0.0,0.0,0.3823,0.4109,0.0,0.0,0.4686,0.413,0.3352,0.0,0.3981,0.2611,0.2113,0.0,0.0,0.116,0.1579,-0.0187,-0.0684,-0.0,-0.097,-0.1531,-0.1624,-0.0101,0.1048,0.0,0.0,0.0,0.0,0.0,0.4741,0.3551,0.0,0.0,0.5655,0.5174,0.4958,0.0,0.5033,0.5064,0.4948,0.4589,0.3865,0.3154,0.2672,0.2012,0.0,0.0,0.0,0.2087,0.1999,0.0,0.0,0.0,0.0,0.0,0.0,0.0,0.0,0.0,-0.7177,-0.6915,-0.7376,-0.7515,-0.7622,0.0,0.0,0.0,0.0,0.0,0.0,0.0,0.0,0.0,-0.7067,-0.6764,-0.6332,0.0,-0.5538,-0.5203,-0.4691,-0.4884,-0.5016,-0.5067,-0.5162,-0.5287,-0.544,-0.5589,-0.5708,-0.581,-0.6013,-0.6135,-0.6186,-0.6237,-0.6338,-0.6338,-0.6338,-0.6338,-0.6345,-0.6315,-0.6481,-0.6719,-0.6871,-0.7017,-0.7139,-0.008,-0.1434,-0.2556,-0.2692,0.0,0.0,0.0,0.0,0.0,0.0,0.0915,0.0,0.4232,0.0,0.5123,0.0,0.5528,0.5315,0.5013,0.4186,0.0,0.4777,0.3582,0.0,0.0,0.0,0.2371,0.2945,0.0822,0.025,0.0967,-0.0493,-0.1273,-0.1393,-0.0052,0.0589,0.077,0.3227,0.4198,0.0,0.0,0.3511,0.0,0.0,0.5128,0.5055,0.0,0.4962,0.4925,0.4975,0.502,0.5064,0.5114,0.4635,0.4112,0.4209,0.3866,0.3583,0.4143,0.4193,0.0,0.3751,0.1795,0.0,-0.1102,0.0,0.0,0.0,0.0,0.0,0.0,-0.6099,-0.6172,-0.6668,-0.697,-0.7246,0.0,-0.7413,0.0,0.0,0.0,0.0,0.0,0.0,-0.7322,-0.7296,-0.7041,-0.6593,0.0,0.0,-0.5313,-0.4601,-0.4789,-0.4945,-0.4992,-0.5138,-0.526,-0.5428,-0.5515,-0.5637,-0.5732,-0.5935,-0.6084,-0.6179,-0.6237,-0.6338,-0.6338,-0.6338,-0.6338,-0.6338,-0.6338,-0.6441,-0.6712,-0.681,-0.697,-0.7139,0.0633,-0.1297,0.0,0.0,-0.2031,0.0,0.0,0.0,0.2019,0.0,0.3468,0.4264,0.5526,0.5878,0.5966,0.5803,0.5667,0.546,0.5148,0.4448,0.0,0.0,0.43,0.4071,0.4039,0.0,0.0,0.3808,0.2049,0.1272,0.1428,-0.0154,-0.1082,-0.1385,-0.171,-0.1551,-0.0937,0.0623,0.2029,0.3336,0.3522,0.3538,0.3493,0.3719,0.0,0.3528,0.4721,0.5053,0.4958,0.5087,0.5047,0.4962,0.5084,0.5233,0.5332,0.5176,0.524,0.5428,0.5428,0.4483,0.3877,0.509,0.0,0.0,0.0,0.0,-0.4359,0.0,0.0,0.0,0.0,0.0,-0.5419,-0.5936,-0.6336,-0.6756,-0.7203,0.0,0.0,0.0,0.0,0.0,0.0,-0.7467,-0.7419,-0.767,-0.7568,-0.7085,0.0,0.0,0.0,-0.48,-0.4833,-0.4979,-0.5128,-0.5277,-0.5422,-0.5428,-0.5508,-0.5586,-0.561,-0.5884,-0.602,-0.6051,-0.6186,-0.6254,-0.6338,-0.6338,-0.6342,-0.6271,-0.6264,-0.6441,-0.6702,-0.6715,-0.6898,-0.7139,0.0748,-0.1269,-0.2731,0.0,-0.1555,-0.069,0.0,0.0,0.0,0.0,0.3071,0.3643,0.5297,0.5803,0.5925,0.5667,0.561,0.0,0.0,0.0,0.0,0.4707,0.4751,0.4751,0.4525,0.3644,0.3729,0.4958,0.126,0.0335,0.2046,-0.0162,-0.1215,-0.1173,-0.0985,-0.119,-0.1586,0.0058,0.1739,0.3353,0.4219,0.4113,0.0,0.0,0.4314,0.3537,0.4827,0.5277,0.5237,0.5159,0.5182,0.5216,0.5033,0.5152,0.5332,0.5176,0.524,0.5428,0.5428,0.5156,0.5024,0.5306,0.3603,0.1921,0.0,0.0,0.0,0.0,0.0,0.0,0.0,0.0,0.0,-0.4684,-0.5613,-0.6327,-0.6933,0.0,0.0,0.0,0.0,0.0,0.0,-0.7735,-0.7735,-0.7723,-0.7735,-0.7461,0.0,0.0,0.0,-0.5374,-0.4962,-0.487,-0.5128,-0.5169,-0.5247,-0.5428,-0.5403,-0.5535,-0.5745,-0.5718,-0.5884,-0.6196,-0.6122,-0.6156,-0.6338,-0.6338,-0.6322,-0.6407,-0.6302,-0.6441,-0.6725,-0.6946,-0.7075,-0.7139,0.1372,0.0,0.0,-0.2157,0.0,0.0,0.0469,0.0,0.0,0.4055,0.4181,0.0,0.5321,0.5673,0.5837,0.561,0.5589,0.0,0.5148,0.0,0.0,0.4707,0.485,0.483,0.4596,0.4086,0.0,0.503,0.0,0.1528,0.2504,0.0284,-0.0829,-0.1037,-0.1001,-0.1267,-0.1563,0.0243,0.1628,0.2801,0.3852,0.0,0.0,0.4387,0.4507,0.4374,0.5119,0.5318,0.5237,0.5087,0.5094,0.5128,0.4894,0.5023,0.5233,0.5081,0.5192,0.5428,0.5369,0.5369,0.5372,0.5382,0.4628,0.3908,0.3849,0.1497,-0.0755,0.0,0.0,0.0,0.0,0.0,0.0,-0.4523,-0.5454,-0.6077,0.0,0.0,0.0,0.0,0.0,0.0,0.0,-0.7515,-0.7581,-0.757,-0.7717,-0.7357,0.0,0.0,0.0,-0.5711,-0.5424,-0.5533,-0.6072,-0.5549,-0.547,-0.5815,-0.5557,-0.5484,-0.5705,-0.5627,-0.58,-0.6156,-0.6067,-0.6118,-0.6338,-0.6338,-0.6308,-0.6383,-0.6434,-0.6556,-0.6736,-0.7031,-0.7139,-0.7139,0.2036,0.0,0.0,0.0,0.0,0.0,0.0,0.4183,0.0,0.5622,0.0,0.5683,0.5402,0.5646,0.5718,0.5572,0.0,0.5437,0.5148,0.5131,0.4999,0.4707,0.4694,0.4623,0.4522,0.4784,0.4824,0.0,0.3814,0.3199,0.2651,0.0777,-0.0405,-0.0954,-0.1297,-0.1344,0.0,0.0823,0.1818,0.2193,0.3255,0.3787,0.3951,0.3951,0.4512,0.5428,0.5428,0.5274,0.5138,0.4996,0.4958,0.4948,0.4775,0.4921,0.5131,0.4989,0.5145,0.5428,0.5376,0.5379,0.5382,0.5393,0.5406,0.5276,0.4797,0.229,-0.0,-0.0,-0.0,0.0,0.0,0.0,0.0,-0.4673,0.0,0.0,0.0,0.0,0.0,0.0,0.0,0.0,0.0,0.0,-0.72,-0.7371,-0.7582,-0.7131,0.0,0.0,0.0,0.0,-0.6036,0.0,-0.7284,0.0,-0.5848,-0.6336,-0.5708,-0.545,-0.5616,-0.5579,-0.5732,-0.6027,-0.601,-0.6088,-0.6234,-0.6251,-0.6338,-0.6291,-0.6607,-0.6719,-0.6736,-0.7031,-0.7139,-0.7139,0.1674,0.0,0.0,0.0,0.0,0.324,0.3889,0.3387,0.3529,0.4993,0.5017,0.5,0.5177,0.5499,0.5566,0.5413,0.5403,0.0,0.0,0.0,0.0,0.4776,0.4766,0.469,0.448,0.4576,0.448,0.0,0.0,0.1245,0.1526,-0.0,-0.0868,-0.1124,-0.1213,-0.0834,-0.0062,0.1075,0.0,0.3159,0.4324,0.4931,0.5129,0.5129,0.5246,0.5428,0.5428,0.5411,0.5298,0.5145,0.5179,0.5237,0.4965,0.5081,0.5291,0.5138,0.522,0.5428,0.5376,0.5379,0.5382,0.5403,0.541,0.4593,0.1616,0.0472,-0.0,-0.0,-0.0,-0.0063,-0.0388,0.0,0.0,0.0,0.0,0.0,0.0,0.0,0.0,0.0,0.0,0.0,0.0,0.0,0.0,0.0,0.0,0.0,0.0,0.0,0.0,0.0,0.0,0.0,0.0,0.0,0.0,-0.593,-0.5545,-0.5501,-0.5755,-0.5511,-0.563,-0.6023,-0.5895,-0.5928,-0.6078,-0.6207,-0.6338,-0.6302,-0.6725,-0.681,-0.6736,-0.7031,-0.7139,-0.7139,0.0,0.0,0.0,0.0,0.0,0.0,0.0,0.4437,0.0,0.5467,0.54,0.5271,0.5409,0.549,0.5443,0.5435,0.5428,0.5332,0.5109,0.5095,0.4938,0.4666,0.3875,0.0,0.3325,0.4074,0.442,0.419,0.0,0.1852,0.0854,0.0448,-0.0185,-0.1004,-0.0419,0.0124,0.0,0.0,0.0,0.3663,0.4708,0.5223,0.5428,0.5428,0.5428,0.5428,0.5428,0.5428,0.5338,0.5182,0.5179,0.5203,0.4989,0.5067,0.5226,0.5152,0.524,0.5428,0.5376,0.47,0.3756,0.282,0.2622,0.2155,0.0404,-0.0,-0.0,-0.0,-0.0,-0.0,-0.0,-0.0819,0.0,0.0,0.0,0.0,0.0,0.0,0.0,0.0,0.0,0.0,0.0,0.0,0.0,0.0,0.0,0.0,0.0,0.0,0.0,0.0,0.0,0.0,0.0,0.0,0.0,-0.6924,-0.5892,-0.5477,-0.5688,-0.5545,-0.5681,-0.6027,-0.5952,-0.6006,-0.6156,-0.623,-0.6338,-0.6288,-0.658,-0.6695,-0.6719,-0.6861,-0.6963,-0.7041,0.0,0.2683,0.0,0.0,0.4204,0.0,0.5403,0.5673,0.58,0.5956,0.5895,0.5745,0.5606,0.5454,0.5415,0.5315,0.5345,0.5294,0.5036,0.4735,0.4566,0.4494,0.3328,0.2409,0.1774,0.3216,0.4083,0.0,0.0,0.2927,0.0932,0.1274,0.0785,0.0,0.0,0.0,0.0,0.0,0.3519,0.4169,0.4887,0.5254,0.5428,0.5428,0.5428,0.5428,0.5428,0.5428,0.5345,0.522,0.5179,0.5162,0.5047,0.5091,0.5179,0.5179,0.5267,0.5432,0.5379,0.4364,0.2746,0.0536,-0.0,-0.0,-0.0,-0.0,-0.0,-0.0,-0.0,-0.0,-0.0,-0.0,0.0,0.0,0.0,0.0,0.0,0.0,0.0,0.0,0.0,0.0,0.0,0.0,0.0,0.0,0.0,-0.6993,-0.6334,-0.7214,0.0,0.0,0.0,-0.7644,-0.8777,0.0,-0.6348,0.0,-0.6085,-0.5491,-0.5637,-0.5637,-0.5779,-0.603,-0.603,-0.6118,-0.6338,-0.6338,-0.6278,-0.6322,-0.6464,-0.6597,-0.6705,-0.6736,-0.6803,-0.6902,0.0,0.0,0.0,0.0,0.0,0.0,0.0,0.6026,0.58,0.5956,0.5895,0.5745,0.5606,0.5454,0.5304,0.5165,0.5291,0.5257,0.488,0.3635,0.3404,0.4448,0.4367,0.2977,0.0245,0.1661,0.3077,0.0,0.0,0.3412,0.2196,0.166,0.1322,0.0,0.0,0.0,0.0,0.3617,0.4197,0.5031,0.5287,0.5415,0.5428,0.5428,0.5428,0.5428,0.5428,0.5428,0.5425,0.5345,0.5342,0.5338,0.5325,0.5328,0.5342,0.5342,0.5418,0.5432,0.5389,0.5259,0.4308,0.0875,-0.0,-0.0,-0.0,-0.0,-0.0,-0.0,-0.0,-0.0,-0.0,-0.0,-0.0657,0.0,0.0,0.0,0.0,0.0,0.0,0.0,0.0,0.0,0.0,0.0,0.0,0.0,0.0,-0.6993,-0.6334,-0.7214,-0.7726,-0.7796,0.0,-0.7777,-0.8086,-0.691,0.0,-0.5969,-0.57,-0.5644,-0.5783,-0.5783,-0.5871,-0.603,-0.603,-0.6118,-0.6338,-0.6338,-0.6335,-0.6468,-0.662,-0.6688,-0.6719,-0.6858,-0.6827,-0.6746,0.0,0.0,0.0,0.0,0.0,0.0,0.0,0.6204,0.5851,0.5848,0.5772,0.5616,0.5467,0.5466,0.5342,0.5284,0.5338,0.5339,0.5151,0.4661,0.3596,0.1869,0.1804,0.1205,-0.0,0.0552,0.2177,0.0,0.0,0.0,0.0,0.0,0.0,0.0,0.0,0.3969,0.4657,0.4611,0.4844,0.5274,0.5338,0.5428,0.5428,0.5428,0.5428,0.5428,0.5428,0.5428,0.5428,0.5428,0.5428,0.5428,0.5428,0.5428,0.5428,0.5428,0.5428,0.5432,0.5379,0.4637,0.3694,0.3301,0.1616,-0.0,-0.0,-0.0,-0.0,-0.0,-0.0,-0.0,-0.0,-0.0,-0.0611,0.0,0.0,0.0,0.0,0.0,0.0,0.0,0.0,-0.5389,0.0,0.0,0.0,0.0,0.0,0.0,-0.7003,-0.7165,-0.7228,-0.7153,0.0,-0.7417,-0.7361,-0.6815,-0.6581,-0.6561,-0.5887,-0.5711,-0.5939,-0.5939,-0.6023,-0.6169,-0.6169,-0.6203,-0.6338,-0.6338,-0.6295,-0.6359,-0.6508,-0.6563,-0.6569,-0.663,-0.6617,-0.6573,0.7367,0.0,0.5632,0.0,0.5969,0.6081,0.6565,0.6218,0.5898,0.5647,0.5487,0.543,0.5435,0.5428,0.5348,0.5311,0.4878,0.4754,0.5081,0.4284,0.2645,0.0127,-0.0,0.0,-0.0,0.0507,0.191,0.4262,0.4308,0.0,0.0,0.0,0.0,0.0,0.4613,0.5033,0.5378,0.5225,0.526,0.5428,0.5428,0.5428,0.5428,0.5428,0.5428,0.5428,0.5428,0.5428,0.5428,0.5428,0.5428,0.5428,0.5428,0.5428,0.5428,0.5428,0.5428,0.5369,0.5379,0.4434,0.356,0.3775,0.1885,-0.0,-0.0,-0.0,-0.0,-0.0,-0.0,-0.0,-0.0,-0.0,-0.043,-0.1702,0.0,0.0,0.0,0.0,0.0,0.0,-0.4977,-0.5197,-0.514,0.0,0.0,0.0,0.0,0.0,-0.7139,-0.7191,0.0,0.0,0.0,0.0,0.0,-0.7026,-0.6889,-0.6664,-0.5971,-0.5786,-0.603,-0.6078,-0.6159,-0.6338,-0.6338,-0.6338,-0.6338,-0.6338,-0.6285,-0.6332,-0.6434,-0.6471,-0.6471,-0.6471,-0.6444,-0.6424,0.6732,0.7126,0.6995,0.6746,0.6688,0.6605,0.6457,0.6061,0.5698,0.5473,0.5233,0.5196,0.5411,0.5428,0.5304,0.5098,0.3624,0.3238,0.4411,0.1749,0.0064,0.0,0.0,-0.0,-0.0,0.1764,0.2702,0.2704,0.0,0.0,0.4507,0.0,0.4486,0.5319,0.4623,0.4742,0.5432,0.5425,0.5425,0.5428,0.5428,0.5428,0.5428,0.5428,0.5428,0.5428,0.5428,0.5428,0.5428,0.5428,0.5428,0.5428,0.5428,0.5428,0.5428,0.5428,0.5369,0.5379,0.5393,0.5403,0.4523,0.0943,-0.0,-0.0,-0.0,-0.0,-0.0,-0.0,-0.0,-0.0,-0.0,-0.0,-0.0,-0.0,0.0,0.0,0.0,0.0,0.0,0.0,-0.5208,-0.56,-0.5584,0.0,0.0,0.0,0.0,0.0,0.0,0.0,0.0,-0.77,-0.8676,0.0,-0.7504,-0.7623,-0.7016,-0.5589,-0.5732,-0.5881,-0.6034,-0.6186,-0.6335,-0.6338,-0.6338,-0.6338,-0.6338,-0.6338,-0.6342,-0.6471,-0.6471,-0.6471,-0.6471,-0.6471,-0.6383,-0.6305,0.4347,0.4861,0.5592,0.6404,0.652,0.6405,0.6367,0.605,0.5735,0.5411,0.5229,0.5111,0.5067,0.5148,0.5253,0.0,0.3692,0.2317,0.0,0.0506,-0.0,-0.0,0.2359,0.3663,0.3706,0.3062,0.3306,0.4572,0.0,0.0,0.0,0.4992,0.5167,0.5369,0.5142,0.5202,0.5428,0.5428,0.5428,0.5428,0.5428,0.5428,0.5428,0.5428,0.5428,0.5428,0.5428,0.5428,0.5428,0.5428,0.5428,0.5428,0.5428,0.5428,0.5428,0.5428,0.5432,0.5233,0.4422,0.3889,0.3019,0.0604,-0.0,-0.0,-0.0,-0.0,-0.0,-0.0,-0.0,-0.0,-0.0,-0.0,-0.0,-0.0,0.0,0.0,0.0,0.0,0.0,0.0,-0.4861,-0.5078,0.0,-0.5583,0.0,0.0,0.0,0.0,0.0,0.0,0.0,0.0,-0.7192,0.0,-0.6238,-0.6826,-0.6744,-0.5891,-0.5935,-0.6037,-0.619,-0.6237,-0.6338,-0.6338,-0.6338,-0.6338,-0.6338,-0.6338,-0.6288,-0.6349,-0.6549,-0.6563,-0.6498,-0.6705,-0.6688,-0.6573,0.3174,0.4199,0.5442,0.6245,0.6329,0.623,0.6125,0.5935,0.5711,0.5322,0.5142,0.4996,0.485,0.4911,0.0,0.5255,0.4294,0.2628,0.0195,0.1284,0.2002,0.2055,0.3563,0.4687,0.5403,0.0,0.0,0.5379,0.5129,0.5099,0.5164,0.5436,0.5454,0.5428,0.5428,0.5428,0.5428,0.5428,0.5428,0.5428,0.5428,0.5428,0.5428,0.5428,0.5428,0.5428,0.5428,0.5428,0.5428,0.5428,0.5428,0.5428,0.5428,0.5428,0.5428,0.5428,0.5432,0.5233,0.4492,0.4028,0.3088,0.0604,-0.0,-0.0,-0.0,-0.0,-0.0,-0.0,-0.0,-0.0,-0.0,-0.0,-0.0,-0.0,0.0,-0.2201,-0.4537,0.0,0.0,0.0,0.0,0.0,0.0,-0.5475,0.0,0.0,0.0,0.0,0.0,0.0,0.0,-0.6442,-0.6819,0.0,-0.6062,-0.6668,-0.6631,-0.603,-0.6088,-0.6166,-0.6338,-0.6338,-0.6338,-0.6338,-0.6338,-0.6338,-0.6338,-0.6338,-0.6291,-0.6359,-0.6542,-0.659,-0.658,-0.6773,-0.6783,-0.6709,0.3357,0.4937,0.0,0.0,0.6285,0.0,0.5745,0.5748,0.564,0.5189,0.5006,0.4857,0.4694,0.4674,0.4797,0.5019,0.0,0.0,0.0,0.3307,0.5249,0.5403,0.3762,0.0,0.5393,0.5382,0.5376,0.5376,0.5432,0.5428,0.5428,0.5428,0.5428,0.5428,0.5428,0.5428,0.5428,0.5428,0.5428,0.5428,0.5428,0.5428,0.5428,0.5428,0.5428,0.5428,0.5428,0.5428,0.5428,0.5428,0.5428,0.5428,0.5428,0.5428,0.5428,0.5428,0.5369,0.5379,0.5393,0.5403,0.4593,0.1212,0.0202,-0.0,-0.0,-0.0,-0.0,-0.0,-0.0,-0.0,-0.0,-0.0,-0.0,-0.0,-0.0,-0.1005,-0.3983,0.0,0.0,0.0,0.0,0.0,0.0,-0.5407,-0.565,0.0,0.0,0.0,0.0,0.0,-0.6734,-0.698,-0.738,-0.7323,-0.6838,-0.6941,-0.6687,-0.6047,-0.6193,-0.6338,-0.6338,-0.6338,-0.6338,-0.6338,-0.6338,-0.6345,-0.6352,-0.6352,-0.6359,-0.6488,-0.6502,-0.659,-0.6719,-0.6725,-0.6729,-0.6753,0.0,0.0,0.6281,0.6271,0.6268,0.6203,0.5935,0.5881,0.564,0.5189,0.5006,0.4816,0.4548,0.4573,0.4591,0.4628,0.4833,0.4224,0.264,0.2804,0.3717,0.531,0.4835,0.4823,0.5379,0.5372,0.5432,0.5432,0.5428,0.5428,0.5428,0.5428,0.5428,0.5428,0.5428,0.5428,0.5428,0.5428,0.5428,0.5428,0.5428,0.5428,0.5428,0.5428,0.5428,0.5428,0.5428,0.5428,0.5428,0.5428,0.5428,0.5428,0.5428,0.5428,0.5428,0.5428,0.5369,0.5379,0.5382,0.5396,0.5209,0.4319,0.202,-0.0,-0.0,-0.0,-0.0,-0.0,-0.0,-0.0,-0.0,-0.0,-0.0,-0.0,-0.0,-0.08,-0.3186,-0.4281,0.0,0.0,-0.5195,-0.5203,-0.5077,-0.5203,-0.545,0.0,0.0,0.0,0.0,0.0,-0.5911,-0.5947,-0.6171,-0.6261,-0.6207,-0.625,-0.6275,-0.6207,-0.6244,-0.6338,-0.6338,-0.6338,-0.6338,-0.6338,-0.6338,-0.6322,-0.6424,-0.6424,-0.6512,-0.6658,-0.6773,-0.6844,-0.6888,-0.6997,-0.7037,-0.7041,0.6271,0.6271,0.6268,0.6264,0.6203,0.6101,0.5949,0.58,0.5593,0.5277,0.505,0.4857,0.4691,0.4548,0.4519,0.4519,0.4629,0.4405,0.3911,0.3543,0.3925,0.5222,0.5143,0.5198,0.5365,0.5432,0.5428,0.5428,0.5428,0.5428,0.5428,0.5428,0.5428,0.5428,0.5428,0.5428,0.5428,0.5428,0.5428,0.5428,0.5428,0.5428,0.5428,0.5428,0.5428,0.5428,0.5428,0.5428,0.5428,0.5428,0.5428,0.5428,0.5369,0.5369,0.5369,0.5376,0.5379,0.5379,0.5389,0.5403,0.5001,0.337,0.1482,-0.0,-0.0,-0.0,-0.0,-0.0,-0.0,-0.0,-0.0,-0.0,-0.0,-0.0,-0.1136,-0.214,-0.2623,-0.389,0.0,-0.4951,-0.5159,-0.5254,-0.5254,-0.5254,-0.5343,-0.5675,0.0,0.0,-0.6451,-0.6293,-0.6149,-0.6069,-0.5936,-0.5979,-0.6135,-0.62,-0.6244,-0.6338,-0.6338,-0.6338,-0.6338,-0.6338,-0.6338,-0.6338,-0.6338,-0.6342,-0.6471,-0.6471,-0.6603,-0.6814,-0.6898,-0.6966,-0.7034,-0.7112,-0.7139,-0.7139,0.6338,0.6338,0.6338,0.6338,0.6132,0.5979,0.5823,0.5681,0.5518,0.5321,0.5074,0.4901,0.4857,0.4619,0.4519,0.4519,0.4475,0.4493,0.4493,0.467,0.4867,0.5008,0.5067,0.5148,0.5321,0.5415,0.5428,0.5428,0.5428,0.5428,0.5428,0.5428,0.5428,0.5428,0.5428,0.5428,0.5428,0.5428,0.5428,0.5428,0.5428,0.5428,0.5428,0.5428,0.5432,0.5432,0.5432,0.5432,0.5432,0.5432,0.5432,0.5369,0.5379,0.5243,0.504,0.5326,0.5389,0.5389,0.5406,0.5001,0.3845,0.0741,-0.0,-0.0,-0.0,-0.0,-0.0,-0.0,-0.0,-0.0,-0.0,-0.0,-0.0187,-0.084,-0.3022,-0.4186,-0.2897,0.0,-0.4849,-0.451,-0.4763,-0.4982,-0.4982,-0.5001,-0.4996,-0.4972,-0.5259,0.0,0.0,-0.6316,-0.6707,-0.6692,-0.628,-0.6129,-0.6335,-0.6424,-0.6424,-0.6338,-0.6359,-0.6281,-0.6338,-0.6338,-0.6338,-0.6264,-0.6285,-0.6373,-0.6508,-0.6532,-0.6709,-0.6959,-0.6959,-0.7034,-0.7139,-0.7139,-0.7139,-0.7139,0.6338,0.6338,0.6338,0.6338,0.6132,0.5979,0.5823,0.5681,0.5443,0.504,0.4948,0.4819,0.4562,0.4546,0.4519,0.4519,0.4484,0.4501,0.4501,0.4521,0.4602,0.4755,0.4758,0.4887,0.5162,0.5294,0.5428,0.5428,0.5428,0.5428,0.5428,0.5428,0.5428,0.5428,0.5428,0.5428,0.5428,0.5428,0.5428,0.5428,0.5428,0.5428,0.5428,0.5372,0.5376,0.5376,0.5386,0.5389,0.5389,0.5389,0.5389,0.5389,0.5393,0.4364,0.3418,0.4925,0.541,0.5406,0.541,0.3167,0.0674,0.0135,-0.0,-0.0,-0.0,-0.0,-0.0,-0.0,-0.0,-0.0,-0.0,-0.0,-0.1194,-0.4731,-0.5724,-0.5998,-0.5683,0.0,-0.5169,-0.3599,-0.3228,-0.3149,-0.3149,-0.3148,-0.3126,-0.3142,-0.3774,-0.4693,-0.5868,-0.6092,-0.6374,-0.6976,-0.6504,-0.6237,-0.6338,-0.6529,-0.6529,-0.6264,-0.6383,-0.6376,-0.6338,-0.6338,-0.6338,-0.6268,-0.6386,-0.6525,-0.6675,-0.6803,-0.6956,-0.7105,-0.7105,-0.7122,-0.7139,-0.7139,-0.7139,-0.7139,0.6338,0.6338,0.6338,0.6338,0.6064,0.5881,0.5813,0.561,0.5393,0.5186,0.502,0.4863,0.4724,0.4562,0.4519,0.4519,0.4519,0.4519,0.4519,0.4519,0.4587,0.4684,0.4769,0.4952,0.5247,0.5325,0.5428,0.5428,0.5428,0.5428,0.5428,0.5428,0.5428,0.5428,0.5428,0.5428,0.5428,0.5428,0.5428,0.5428,0.5369,0.5369,0.5372,0.5382,0.477,0.3956,0.3959,0.3961,0.3961,0.3961,0.3961,0.4097,0.5059,0.4855,0.4311,0.5151,0.3989,0.2493,0.2493,0.128,-0.0,-0.0,-0.0,-0.0,-0.0,-0.0,-0.0,-0.0,-0.0,-0.0,-0.0,-0.0,-0.1276,-0.5212,-0.6105,0.0,0.0,-0.5254,-0.4704,-0.3896,-0.2297,-0.1236,-0.1236,-0.1266,-0.1221,-0.1238,-0.2651,-0.4249,-0.6054,-0.6194,-0.6304,-0.6677,-0.6534,-0.6498,-0.6498,-0.6715,-0.6715,-0.6498,-0.6563,-0.6563,-0.6495,-0.6413,-0.642,-0.6495,-0.6478,-0.6607,-0.6827,-0.6898,-0.701,-0.7139,-0.7139,-0.7139,-0.7139,-0.7139,-0.7139,-0.7139,0.6338,0.6338,0.6251,0.6213,0.5983,0.5789,0.5755,0.5532,0.5415,0.5311,0.5081,0.4904,0.487,0.4623,0.4519,0.4519,0.4519,0.4519,0.4519,0.4519,0.457,0.4633,0.4995,0.5348,0.5629,0.5668,0.5686,0.5686,0.5491,0.5428,0.5428,0.5428,0.5428,0.5428,0.5428,0.5428,0.5428,0.5428,0.5428,0.5432,0.5376,0.5173,0.4834,0.5259,0.4509,0.322,0.2345,0.2078,0.2078,0.2078,0.2087,0.2303,0.3741,0.4157,0.4165,0.4135,0.2192,-0.0,-0.0,-0.0,-0.0,-0.0,-0.0,-0.0,-0.0,-0.0,-0.0,-0.0,-0.0,-0.0,-0.0,-0.0,-0.0908,-0.3687,0.0,0.0,0.0,-0.4957,-0.4406,-0.3406,-0.1318,-0.0,-0.0,-0.0,-0.037,-0.136,-0.2519,-0.4097,-0.6207,-0.6302,-0.6325,-0.6363,-0.6583,-0.6702,-0.6702,-0.6885,-0.6885,-0.6702,-0.6736,-0.6736,-0.6695,-0.6542,-0.6536,-0.6644,-0.6559,-0.6658,-0.6881,-0.6949,-0.7041,-0.7139,-0.7139,-0.7139,-0.7139,-0.7139,-0.7139,-0.7139,0.6338,0.6338,0.6217,0.6071,0.5911,0.5755,0.5627,0.5467,0.5311,0.5165,0.5013,0.4863,0.4721,0.4562,0.4519,0.4519,0.4519,0.4519,0.4519,0.4519,0.4522,0.4532,0.551,0.6201,0.6341,0.6505,0.6588,0.6588,0.5815,0.5428,0.5428,0.5428,0.5428,0.5428,0.5428,0.5428,0.5428,0.5428,0.5369,0.5376,0.5379,0.4428,0.3082,0.4788,0.5343,0.4794,0.1413,0.0202,0.0202,0.0202,0.0206,0.021,0.035,0.042,0.0422,0.0432,0.0214,-0.0,-0.0,-0.0,-0.0,-0.0,-0.0,-0.0,-0.0,-0.0,-0.0,-0.0,-0.0,-0.0,-0.0,-0.0,-0.0066,-0.0344,0.0,0.0,-0.6138,-0.6199,-0.4778,-0.0768,-0.014,-0.0,-0.0,-0.0,-0.1587,-0.556,-0.4418,-0.4395,-0.6207,-0.6393,-0.6522,-0.6664,-0.6688,-0.6702,-0.6702,-0.6983,-0.6983,-0.6702,-0.6844,-0.6837,-0.6695,-0.6542,-0.6478,-0.6498,-0.6627,-0.6698,-0.6739,-0.701,-0.7132,-0.7139,-0.7139,-0.7139,-0.7139,-0.7139,-0.7139,-0.7139,0.6338,0.6338,0.6213,0.6057,0.5901,0.5752,0.561,0.546,0.5342,0.5281,0.5142,0.4996,0.485,0.4697,0.4565,0.4525,0.4519,0.4519,0.4519,0.4519,0.4822,0.5536,0.5969,0.6551,0.7378,0.7464,0.7242,0.6719,0.6396,0.5947,0.5428,0.5428,0.5428,0.5428,0.5428,0.5428,0.5428,0.5369,0.5376,0.5379,0.5393,0.4974,0.4206,0.2642,0.2043,0.1862,0.0475,-0.0,-0.0,-0.0,-0.0,-0.0,-0.0,-0.0,-0.0,-0.0,-0.0,-0.0,-0.0,-0.0,-0.0,-0.0,-0.0,-0.0,-0.0,-0.0,-0.0,-0.0,-0.0,-0.0,-0.0,-0.0,-0.0,-0.0,0.0,-0.2949,-0.5402,-0.3854,-0.1847,-0.0215,-0.0,-0.0,-0.0,-0.2371,-0.4593,-0.6163,-0.5686,-0.5544,-0.6281,-0.6318,-0.6451,-0.6695,-0.6702,-0.679,-0.697,-0.7085,-0.7085,-0.6973,-0.7034,-0.7031,-0.6966,-0.682,-0.6756,-0.6759,-0.6817,-0.6844,-0.6858,-0.7058,-0.7139,-0.7139,-0.7139,-0.7139,-0.7139,-0.7139,-0.7139,-0.7139,0.6338,0.622,0.6139,0.5983,0.5833,0.5684,0.5542,0.543,0.5428,0.5428,0.5226,0.5094,0.4996,0.4853,0.4721,0.4616,0.4606,0.4606,0.4606,0.4883,0.5377,0.6152,0.6759,0.7511,0.8409,0.8156,0.7697,0.7111,0.6593,0.6009,0.5428,0.5428,0.5428,0.5428,0.5432,0.5393,0.5369,0.5383,0.5416,0.5395,0.5408,0.4697,0.3403,0.0974,-0.0,-0.0,-0.0,-0.0,-0.0,-0.0,-0.0,-0.0,-0.0,-0.0,-0.0,-0.0,-0.0,-0.0,-0.0,-0.0,-0.0,-0.0,-0.0,-0.0,-0.0,-0.0,-0.0,-0.0,-0.0,-0.0,-0.0,-0.0,-0.0,-0.0,-0.0,-0.0877,-0.332,-0.1538,-0.0,-0.0,-0.0,-0.0532,-0.1839,-0.4611,-0.6012,-0.5355,-0.5943,-0.6356,-0.6339,-0.6288,-0.6396,-0.6692,-0.6702,-0.6841,-0.7136,-0.7139,-0.7139,-0.7139,-0.7139,-0.7139,-0.7136,-0.6993,-0.6929,-0.6929,-0.6929,-0.6929,-0.6939,-0.7082,-0.7112,-0.7078,-0.7122,-0.7112,-0.7078,-0.7126,-0.7139,-0.7139,0.6338,0.6135,0.5979,0.5827,0.5684,0.5538,0.5452,0.5428,0.5428,0.5428,0.5226,0.5131,0.5131,0.5006,0.4921,0.4918,0.4918,0.4918,0.4918,0.5691,0.6224,0.6224,0.7995,0.906,0.9268,0.842,0.8027,0.7962,0.6276,0.5428,0.5428,0.5428,0.5428,0.5428,0.5376,0.5396,0.5392,0.5405,0.5429,0.5422,0.5346,0.321,-0.0,-0.0,-0.0,-0.0,-0.0,-0.0,-0.0,-0.0,-0.0,-0.0,-0.0,-0.0,-0.0,-0.0,-0.0,-0.0,-0.0,-0.0,-0.0,-0.0,-0.0,-0.0,-0.0,-0.0,-0.0,-0.0,-0.0,-0.0,-0.0,-0.0,-0.0,-0.0,-0.0,-0.0,-0.0,-0.0,-0.0,-0.0,-0.0,-0.1684,-0.593,-0.6339,-0.5436,-0.3281,-0.5283,-0.6575,-0.6474,-0.6339,-0.6396,-0.6692,-0.6702,-0.6844,-0.7136,-0.7139,-0.7139,-0.7139,-0.7139,-0.7139,-0.7136,-0.6993,-0.6929,-0.6929,-0.6929,-0.6929,-0.6939,-0.7082,-0.7058,-0.6946,-0.7085,-0.7054,-0.6949,-0.7088,-0.7139,-0.7139,0.624,0.6051,0.5857,0.581,0.5684,0.5538,0.5452,0.5428,0.5428,0.5428,0.5321,0.525,0.5142,0.5094,0.5026,0.4928,0.4918,0.4918,0.4918,0.5805,0.6361,0.6361,0.7464,0.8487,0.9268,0.842,0.7697,0.7111,0.6593,0.6009,0.5428,0.5428,0.5432,0.5379,0.542,0.4668,0.3605,0.4833,0.5396,0.5204,0.2628,0.0943,-0.0,-0.0,-0.0,-0.0,-0.0,-0.0,-0.0,-0.0,-0.0,-0.0,-0.0,-0.0,-0.0,-0.0,-0.0,-0.0,-0.0,-0.0,-0.0,-0.0,-0.0,-0.0,-0.0,-0.0,-0.0,-0.0,-0.0,-0.0,-0.0,-0.0,-0.0,-0.0,-0.0,-0.0,-0.0,-0.0,-0.0,-0.0,-0.0,-0.1794,-0.6424,-0.6839,-0.6427,-0.5422,-0.5996,-0.6455,-0.6468,-0.643,-0.6498,-0.6695,-0.6803,-0.6902,-0.699,-0.7092,-0.7139,-0.7139,-0.7139,-0.7139,-0.7139,-0.7095,-0.7021,-0.6932,-0.7034,-0.7021,-0.6939,-0.7082,-0.7115,-0.7082,-0.7126,-0.7112,-0.7082,-0.7126,-0.7139,-0.7139,0.6061,0.5928,0.58,0.58,0.5684,0.5559,0.5464,0.5466,0.5428,0.5428,0.5428,0.5325,0.5233,0.522,0.5189,0.5101,0.5094,0.5094,0.5094,0.5994,0.6489,0.6489,0.6994,0.7756,0.8742,0.7962,0.7242,0.6719,0.6334,0.5947,0.5428,0.5428,0.5369,0.5386,0.4628,0.4114,0.3758,0.3419,0.325,0.3083,0.0872,-0.0,-0.0,-0.0,-0.0,-0.0,-0.0,-0.0,-0.0,-0.0,-0.0,-0.0,-0.0,-0.0,-0.0,-0.0,-0.0,-0.0,-0.0,-0.0,-0.0,-0.0,-0.0,-0.0,-0.0,-0.0,-0.0,-0.0,-0.0,-0.0,-0.0,-0.0,-0.0,-0.0,-0.0,-0.0,-0.0,-0.0,-0.0,-0.0,-0.1493,-0.3624,-0.6503,-0.5997,-0.5769,-0.6369,-0.6352,-0.641,-0.6556,-0.6563,-0.663,-0.6787,-0.6881,-0.6956,-0.701,-0.7099,-0.7139,-0.7139,-0.7139,-0.7139,-0.7139,-0.7139,-0.7092,-0.7017,-0.7102,-0.7092,-0.7017,-0.7105,-0.7105,-0.7061,-0.7119,-0.7105,-0.7061,-0.7119,-0.7139,-0.7139,0.58,0.5779,0.5766,0.5779,0.5664,0.5569,0.5569,0.545,0.5428,0.5428,0.5428,0.5428,0.5428,0.5428,0.5428,0.5428,0.5428,0.5428,0.5428,0.6137,0.6593,0.6593,0.6593,0.6981,0.7767,0.6981,0.6593,0.6593,0.5815,0.5428,0.5428,0.5428,0.5369,0.5319,0.3526,0.3549,0.4734,0.142,-0.0,-0.0,-0.0,-0.0,-0.0,-0.0,-0.0,-0.0,-0.0,-0.0,-0.0,-0.0,-0.0,-0.0,-0.0,-0.0,-0.0,-0.0,-0.0,-0.0,-0.0,-0.0,-0.0,-0.0,-0.0,-0.0,-0.0,-0.0,-0.0,-0.0,-0.0,-0.0,-0.0,-0.0,-0.0,-0.0,-0.0,-0.0,-0.0,-0.0,-0.0,-0.0,-0.3716,-0.6277,-0.6332,-0.456,-0.4274,-0.6337,-0.6502,-0.6552,-0.6695,-0.6712,-0.6783,-0.6922,-0.6943,-0.701,-0.7139,-0.7139,-0.7139,-0.7139,-0.7139,-0.7139,-0.7139,-0.7139,-0.7139,-0.7139,-0.7139,-0.7139,-0.7139,-0.7139,-0.7065,-0.6959,-0.7088,-0.7061,-0.6963,-0.7092,-0.7139,-0.7139,0.5779,0.5616,0.5494,0.5613,0.5511,0.541,0.541,0.5449,0.5428,0.5428,0.5428,0.5428,0.5428,0.5428,0.5428,0.5428,0.5428,0.5428,0.5428,0.5557,0.5686,0.5686,0.5686,0.5752,0.5951,0.5752,0.5686,0.5686,0.5491,0.5428,0.5428,0.5428,0.5372,0.5336,0.3528,0.212,0.1102,0.0368,-0.0,-0.0,-0.0,-0.0,-0.0,-0.0,-0.0,-0.0,-0.0,-0.0,-0.0,-0.0,-0.0,-0.0,-0.0,-0.0,-0.0,-0.0,-0.0,-0.0,-0.0,-0.0,-0.0,-0.0,-0.0,-0.0,-0.0,-0.0,-0.0,-0.0,-0.0,-0.0,-0.0,-0.0,-0.0,-0.0,-0.0,-0.0,-0.0,-0.0,-0.0,-0.0,-0.3728,-0.6311,-0.6264,-0.6,-0.6144,-0.6726,-0.6719,-0.6664,-0.6698,-0.6814,-0.6895,-0.6926,-0.7037,-0.7109,-0.7139,-0.7139,-0.7139,-0.7139,-0.7139,-0.7139,-0.7139,-0.7139,-0.7139,-0.7139,-0.7139,-0.7139,-0.7139,-0.7139,-0.7122,-0.7099,-0.7129,-0.7122,-0.7099,-0.7129,-0.7139,-0.7139,0.5576,0.5528,0.5494,0.5576,0.5521,0.5471,0.5471,0.541,0.5428,0.5428,0.5428,0.5428,0.5428,0.5428,0.5428,0.5428,0.5428,0.5428,0.5428,0.5428,0.5428,0.5428,0.5428,0.5428,0.5428,0.5428,0.5428,0.5428,0.5428,0.5428,0.5428,0.5428,0.5372,0.5339,0.348,0.1718,-0.0,-0.0,-0.0,-0.0,-0.0,-0.0,-0.0,-0.0,-0.0,-0.0,-0.0,-0.0,-0.0,-0.0,-0.0,-0.0,-0.0,-0.0,-0.0,-0.0,-0.0,-0.0,-0.0,-0.0,-0.0,-0.0,-0.0,-0.0,-0.0,-0.0,-0.0,-0.0,-0.0,-0.0,-0.0,-0.0,-0.0,-0.0,-0.0,-0.0,-0.0,-0.0,-0.0,-0.0,-0.2984,-0.538,-0.6377,-0.6573,-0.6692,-0.6912,-0.6854,-0.6841,-0.6905,-0.6987,-0.7031,-0.7031,-0.7102,-0.7139,-0.7139,-0.7139,-0.7139,-0.7139,-0.7139,-0.7139,-0.7139,-0.7139,-0.7139,-0.7139,-0.7139,-0.7139,-0.7139,-0.7139,-0.7139,-0.7139,-0.7139,-0.7139,-0.7139,-0.7139,-0.7099,-0.7031,0.5428,0.5464,0.5552,0.5552,0.5552,0.5552,0.5552,0.5443,0.5428,0.5428,0.5428,0.5428,0.5428,0.5428,0.5428,0.5428,0.5428,0.5428,0.5428,0.5428,0.5428,0.5428,0.5428,0.5428,0.5428,0.5428,0.5428,0.5428,0.5428,0.5428,0.5428,0.5456,0.5413,0.5376,0.3503,0.1678,-0.0,-0.0,-0.0,-0.0,-0.0,-0.0,-0.0,-0.0,-0.0,-0.0,-0.0,-0.0,-0.0,-0.0,-0.0,-0.0,-0.0,-0.0,-0.0,-0.0,-0.0,-0.0,-0.0,-0.0,-0.0,-0.0,-0.0,-0.0,-0.0,-0.0,-0.0,-0.0,-0.0,-0.0,-0.0,-0.0,-0.0,-0.0,-0.0,-0.0,-0.0,-0.0,-0.034,-0.1102,-0.2619,-0.4475,-0.6528,-0.6759,-0.6803,-0.6953,-0.6966,-0.7017,-0.7132,-0.7139,-0.7139,-0.7139,-0.7139,-0.7139,-0.7139,-0.7139,-0.7139,-0.7139,-0.7139,-0.7139,-0.7139,-0.7139,-0.7139,-0.7139,-0.7139,-0.7139,-0.7139,-0.7139,-0.7139,-0.7139,-0.7139,-0.7139,-0.7139,-0.7139,-0.7065,-0.6943,0.5428,0.5446,0.5459,0.5459,0.5459,0.5459,0.5459,0.5442,0.5428,0.5428,0.5428,0.5428,0.5428,0.5428,0.5428,0.5428,0.5428,0.5428,0.5428,0.5428,0.5428,0.5428,0.5428,0.5428,0.5428,0.5428,0.5428,0.5428,0.5428,0.5428,0.5432,0.5498,0.5634,0.5593,0.3597,0.1705,-0.0,-0.0,-0.0,-0.0,-0.0,-0.0,-0.0,-0.0,-0.0,-0.0,-0.0,-0.0,-0.0,-0.0,-0.0,-0.0,-0.0,-0.0,-0.0,-0.0,-0.0,-0.0,-0.0,-0.0,-0.0,-0.0,-0.0,-0.0,-0.0,-0.0,-0.0,-0.0,-0.0,-0.0,-0.0,-0.0,-0.0,-0.0,-0.0,-0.0,-0.0,-0.0,-0.1506,-0.5684,-0.4605,-0.4482,-0.6823,-0.6909,-0.6956,-0.7102,-0.7112,-0.7122,-0.7139,-0.7139,-0.7139,-0.7139,-0.7139,-0.7139,-0.7139,-0.7139,-0.7139,-0.7139,-0.7139,-0.7139,-0.7139,-0.7139,-0.7139,-0.7139,-0.7139,-0.7139,-0.7139,-0.7139,-0.7139,-0.7139,-0.7139,-0.7139,-0.7139,-0.7139,-0.7129,-0.7092,0.5428,0.4553,0.4217,0.5226,0.5428,0.5428,0.5428,0.5428,0.5428,0.5428,0.5428,0.5428,0.5428,0.5428,0.5428,0.5428,0.5428,0.5428,0.5428,0.5428,0.5428,0.5428,0.5428,0.5428,0.5428,0.5428,0.5428,0.5428,0.5428,0.5428,0.5428,0.543,0.5483,0.5503,0.4787,0.2767,-0.0,-0.0,-0.0,-0.0,-0.0,-0.0,-0.0,-0.0,-0.0,-0.0,-0.0,-0.0,-0.0,-0.0,-0.0,-0.0,-0.0,-0.0,-0.0,-0.0,-0.0,-0.0,-0.0,-0.0,-0.0,-0.0,-0.0,-0.0,-0.0,-0.0,-0.0,-0.0,-0.0,-0.0,-0.0,-0.0,-0.0,-0.0,-0.0,-0.0,-0.0,-0.0,-0.1792,-0.6517,-0.6162,-0.595,-0.6981,-0.7058,-0.7071,-0.7136,-0.7139,-0.7139,-0.7139,-0.7139,-0.7139,-0.7139,-0.7139,-0.7139,-0.7139,-0.7139,-0.7139,-0.7139,-0.7139,-0.7139,-0.7139,-0.7139,-0.7139,-0.7139,-0.7139,-0.7139,-0.7139,-0.7139,-0.7139,-0.7132,-0.7054,-0.697,-0.6895,-0.6895,-0.6841,-0.6746]},{"header":{"parameterUnit":"m.s-1","parameterCategory":1,"la1":30.6,"la2":28.766,"lo1":-90.7593,"lo2":-88.6598,"dy":0.0162,"dx":0.0183,"nx":116,"ny":114,"refTime":"2023-06-07T06:00:00:Z","depth":0,"parameterNumber":3,"parameterNumberName":"V-component_of_WINDS"},"data":[0.0,0.0,0.0,0.0,0.0,0.0,0.0,0.0,0.0,0.0,0.0,0.0,0.0,0.0,0.0,0.0,0.0,0.0,0.0,0.0,0.0,0.0,0.0,0.0,0.0,0.0,0.0,0.0,0.0,0.0,0.0,0.0,0.0,0.0,0.0,0.0,0.0,0.0,0.0,0.0,0.0,0.0,0.0,0.0,0.0,0.0,0.0,0.0,0.0,0.0,0.0,0.0,0.0,0.0,0.0,0.0,0.0,0.0,0.0,0.0,0.0,0.0,0.0,0.0,0.0,0.0,0.0,0.0,0.0,0.0,0.0,0.0,0.0,0.0,0.0,0.0,0.0,0.0,0.0,0.0,0.0,0.0,0.0,0.0,0.0,0.0,0.0,0.0,0.0,0.0,0.0,0.0,0.0,0.0,0.0,0.0,0.0,0.0,0.0,0.0,0.0,0.0,0.0,0.0,0.0,0.0,0.0,0.0,0.0,0.0,0.0,0.0,0.0,0.0,0.0,0.0,0.0,0.0,0.0,0.0,0.0,0.0,0.0,0.0,0.0,0.0,0.0,0.0,0.0,0.0,0.0,0.0,0.0,0.0,0.0,0.0,0.0,0.0,0.0,0.0,0.0,0.0,0.0,0.0,0.0,0.0,0.0,0.0,0.0,0.0,0.0,0.0,0.0,0.0,0.0,0.0,0.0,0.0,0.0,0.0,0.0,0.0,0.0,0.0,0.0,0.0,0.0,0.0,0.0,0.0,0.0,0.0,0.0,0.0,0.0,0.0,0.0,0.0,0.0,0.0,0.0,0.0,0.0,0.0,0.0,0.0,0.0,0.0,0.0,0.0,0.0,0.0,0.0,0.0,0.0,0.0,0.0,0.0,0.0,0.0,0.0,0.0,0.0,0.0,0.0,0.0,0.0,0.0,0.0,0.0,0.0,0.0,0.0,0.0,0.0,0.0,0.0,0.0,0.0,0.0,0.0,0.0,0.0,0.0,0.0,0.0,0.0,0.0,0.0,0.0,0.0,0.0,0.0,0.0,0.0,0.0,0.0,0.0,0.0,0.0,0.0,0.0,0.0,0.0,0.0,0.0,0.0,0.0,0.0,0.0,0.0,0.0,0.0,0.0,0.0,0.0,0.0,0.0,0.0,0.0,0.0,0.0,0.0,0.0,0.0,0.0,0.0,0.0,0.0,0.0,0.0,0.0,0.0,0.0,0.0,0.0,0.0,0.0,0.0,0.0,0.0,0.0,0.0,0.0,0.0,0.0,0.0,0.0,0.0,0.0,0.0,0.0,0.0,0.0,0.0,0.0,0.0,0.0,0.0,0.0,0.0,0.0,0.0,0.0,0.0,0.0,0.0,0.0,0.0,0.0,0.0,0.0,0.0,0.0,0.0,0.0,0.0,0.0,0.0,0.0,0.0,0.0,0.0,0.0,0.0,0.0,0.0,0.0,0.0,0.0,0.0,0.0,0.0,0.0,0.0,0.0,0.0,0.0,0.0,0.0,0.0,0.0,0.0,0.0,0.0,0.0,0.0,0.0,0.0,0.0,0.0,0.0,0.0,0.0,0.0,0.0,0.0,0.0,0.0,0.0,0.0,0.0,0.0,0.0,0.0,0.0,0.0,0.0,0.0,0.0,0.0,0.0,0.0,0.0,0.0,0.0,0.0,0.0,0.0,0.0,0.0,0.0,0.0,0.0,0.0,0.0,0.0,0.0,0.0,0.0,0.0,0.0,0.0,0.0,0.0,0.0,0.0,0.0,0.0,0.0,0.0,0.0,0.0,0.0,0.0,0.0,0.0,0.0,0.0,0.0,0.0,0.0,0.0,0.0,0.0,0.0,0.0,0.0,0.0,0.0,0.0,0.0,0.0,0.0,0.0,0.0,0.0,0.0,0.0,0.0,0.0,0.0,0.0,0.0,0.0,0.0,0.0,0.0,0.0,0.0,0.0,0.0,0.0,0.0,0.0,0.0,0.0,0.0,0.0,0.0,0.0,0.0,0.0,0.0,0.0,0.0,0.0,0.0,0.0,0.0,0.0,0.0,0.0,0.0,0.0,0.0,0.0,0.0,0.0,0.0,0.0,0.0,0.0,0.0,0.0,0.0,0.0,0.0,0.0,0.0,0.0,0.0,0.0,0.0,0.0,0.0,0.0,0.0,0.0,0.0,0.0,0.0,0.0,0.0,0.0,0.0,0.0,0.0,0.0,0.0,0.0,0.0,0.0,0.0,0.0,0.0,0.0,0.0,0.0,0.0,0.0,0.0,0.0,0.0,0.0,0.0,0.0,0.0,0.0,0.0,0.0,0.0,0.0,0.0,0.0,0.0,0.0,0.0,0.0,0.0,0.0,0.0,0.0,0.0,0.0,0.0,0.0,0.0,0.0,0.0,0.0,0.0,0.0,0.0,0.0,0.0,0.0,0.0,0.0,0.0,0.0,0.0,0.0,0.0,0.0,0.0,0.0,0.0,0.0,0.0,0.0,0.0,0.0,0.0,0.0,0.0,0.0,0.0,0.0,0.0,0.0,0.0,0.0,0.0,0.0,0.0,0.0,0.0,0.0,0.0,0.0,0.0,0.0,0.0,0.0,0.0,0.0,0.0,0.0,0.0,0.0,0.0,0.0,0.0,0.0,0.0,0.0,0.0,0.0,0.0,0.0,0.0,0.0,0.0,0.0,0.0,0.0,0.0,0.0,0.0,0.0,0.0,0.0,0.0,0.0,0.0,0.0,0.0,0.0,0.0,0.0,0.0,0.0,0.0,0.0,0.0,0.0,0.0,0.0,0.0,0.0,0.0,0.0,0.0,0.0,0.0,0.0,0.0,0.0,0.0,0.0,0.0,0.0,0.0,0.0,0.0,0.0,0.0,0.0,0.0,0.0,0.0,0.0,0.0,0.0,0.0,0.0,0.0,0.0,0.0,0.0,0.0,0.0,0.0,0.0,0.0,0.0,0.0,0.0,0.0,0.0,0.0,0.0,0.0,0.0,0.0,0.0,0.0,0.0,0.0,0.0,0.0,0.0,0.0,0.0,0.0,0.0,0.0,0.0,0.0,0.0,0.0,0.0,0.0,0.0,0.0,0.0,0.0,0.0,0.0,0.0,0.0,0.0,0.0,0.0,0.0,0.0,0.0,0.0,0.0,0.0,0.0,0.0,0.0,0.0,0.0,0.0,0.0,0.0,0.0,0.0,0.0,0.0,0.0,0.0,0.0,0.0,0.0,0.0,0.0,0.0,0.0,0.0,0.0,0.0,0.0,0.0,0.0,0.0,0.0,0.0,0.0,0.0,0.0,0.0,0.0,0.0,0.0,0.0,0.0,0.0,0.0,0.0,0.0,0.0,0.0,0.0,0.0,0.0,0.0,0.0,0.0,0.0,0.0,0.0,0.0,0.0,0.0,0.0,0.0,0.0,0.0,0.0,0.0,0.0,0.0,0.0,0.0,0.0,0.0,0.0,0.0,0.0,0.0,0.0,0.0,0.0,0.0,0.0,0.0,0.0,0.0,0.0,0.0,0.0,0.0,0.0,0.0,0.0,0.0,0.0,0.0,0.0,0.0,0.0,0.0,0.0,0.0,0.0,0.0,0.0,0.0,0.0,0.0,0.0,0.0,0.0,0.0,0.0,0.0,0.0,0.0,0.0,0.0,0.0,0.0,0.0,0.0,0.0,0.0,0.0,0.0,0.0,0.0,0.0,0.0,0.0,0.0,0.0,0.0,0.0,0.0,0.0,0.0,0.0,0.0,0.0,0.0,0.0,0.0,0.0,0.0,0.0,0.0,0.0,0.0,0.0,0.0,0.0,0.0,0.0,0.0,0.0,0.0,0.0,0.0,0.0,0.0,0.0,0.0,0.0,0.0,0.0,0.0,0.0,0.0,0.0,0.0,0.0,0.0,0.0,0.0,0.0,0.0,0.0,0.0,0.0,0.0,0.0,0.0,0.0,0.0,0.0,0.0,0.0,0.0,0.0,0.0,0.0,0.0,0.0,0.0,0.0,0.0,0.0,0.0,0.0,0.0,0.0,0.0,0.0,0.0,0.0,0.0,0.0,0.0,0.0,0.0,0.0,0.0,0.0,0.0,0.0,0.0,0.0,0.0,0.0,0.0,0.0,0.0,0.0,0.0,0.0,0.0,0.0,0.0,0.0,0.0,0.0,0.0,0.0,0.0,0.0,0.0,0.0,0.0,0.0,0.0,0.0,0.0,0.0,0.0,0.0,0.0,0.0,0.0,0.0,0.0,0.0,0.0,0.0,0.0,0.0,0.0,0.0,0.0,0.0,0.0,0.0,0.0,0.0,0.0,0.0,0.0,0.0,0.0,0.0,0.0,0.0,0.0,0.0,0.0,0.0,0.0,0.0,0.0,0.0,0.0,0.0,0.0,0.0,0.0,0.0,0.0,0.0,0.0,0.0,0.0,0.0,0.0,0.0,0.0,0.0,0.0,0.0,0.0,0.0,0.0,0.0,0.0,0.0,0.0,0.0,0.0,0.0,0.0,0.0,0.0,0.0,0.0,0.0,0.0,0.0,0.0,0.0,0.0,0.0,0.0,0.0,0.0,0.0,0.0,0.0,0.0,0.0,0.0,0.0,0.0,0.0,0.0,0.0,0.0,0.0,0.0,0.0,0.0,0.0,0.0,0.0,0.0,0.0,0.0,0.0,0.0,0.0,0.0,0.0,0.0,0.0,0.0,0.0,0.0,0.0,0.0,0.0,0.0,0.0,0.0,0.0,0.0,0.0,0.0,0.0,0.0,0.0,0.0,0.0,0.0,0.0,0.0,0.0,0.0,0.0,0.0,0.0,0.0,0.0,0.0,0.0,0.0,0.0,0.0,0.0,0.0,0.0,0.0,0.0,0.0,0.0,0.0,0.0,0.0,0.0,0.0,0.0,0.0,0.0,0.0,0.0,0.0,0.0,0.0,0.0,0.0,0.0,0.0,0.0,0.0,0.0,0.0,0.0,0.0,0.0,0.0,0.0,0.0,0.0,0.0,0.0,0.0,0.0,0.0,0.0,0.0,0.0,0.0,0.0,0.0,0.0,0.0,0.0,0.0,0.0,0.0,0.0,0.0,0.0,0.0,0.0,0.0,0.0,0.0,0.0,0.0,0.0,0.0,0.0,0.0,0.0,0.0,0.0,0.0,0.0,0.0,0.0,0.0,0.0,0.0,0.0,0.0,0.0,0.0,0.0,0.0,0.0,0.0,0.0,0.0,0.0,0.0,0.0,0.0,0.0,0.0,0.0,0.0,0.0,0.0,0.0,0.0,0.0,0.0,0.0,0.0,0.0,0.0,0.0,0.0,0.0,0.0,0.0,0.0,0.0,0.0,0.0,0.0,0.0,0.0,0.0,0.0,0.0,0.0,0.0,0.0,0.0,0.0,0.0,0.0,0.0,0.0,0.0,0.0,0.0,0.0,0.0,0.0,0.0,0.0,0.0,0.0,0.0,0.0,0.0,0.0,0.0,0.0,0.0,0.0,0.0,0.0,0.0,0.0,0.0,0.0,0.0,0.0,0.0,0.0,0.0,0.0,0.0,0.0,0.0,0.0,0.0,0.0,0.0,0.0,0.0,0.0,0.0,0.0,0.0,0.0,0.0,0.0,0.0,0.0,0.0,0.0,0.0,0.0,0.0,0.0,0.0,0.0,0.0,0.0,0.0,0.0,0.0,0.0,0.0,0.0,0.0,0.0,0.0,0.0,0.0,0.0,0.0,0.0,0.0,0.0,0.0,0.0,0.0,0.0,0.0,0.0,0.0,0.0,0.0,0.0,0.0,0.0,0.0,0.0,0.0,0.0,0.0,0.0,0.0,0.0,0.0,0.0,0.0,0.0,0.0,0.0,0.0,0.0,0.0,0.0,0.0,0.0,0.0,0.0,0.0,0.0,0.0,0.0,0.0,0.0,0.0,0.0,0.0,0.0,0.0,0.0,0.0,0.0,0.0,0.0,0.0,0.0,0.0,0.0,0.0,0.0,0.0,0.0,0.0,0.0,0.0,0.0,0.0,0.0,0.0,0.0,0.0,0.0,0.0,0.0,0.0,0.0,0.0,0.0,0.0,0.0,0.0,0.0,0.0,0.0,0.0,0.0,0.0,0.0,0.0,0.0,-2.0623,0.0,0.0,0.0,0.0,0.0,0.0,0.0,0.0,0.0,0.0,0.0,0.0,0.0,0.0,0.0,0.0,0.0,0.0,0.0,0.0,0.0,0.0,0.0,0.0,0.0,0.0,0.0,0.0,0.0,0.0,0.0,0.0,0.0,0.0,0.0,0.0,0.0,0.0,-1.4461,-1.451,-1.4762,-1.5195,-1.5206,-1.4556,-1.3353,0.0,0.0,0.0,0.0,0.0,0.0,0.0,0.0,0.0,0.0,0.0,0.0,0.0,0.0,0.0,0.0,0.0,0.0,0.0,0.0,0.0,0.0,0.0,0.0,0.0,0.0,0.0,0.0,0.0,0.0,0.0,0.0,0.0,0.0,0.0,0.0,0.0,0.0,0.0,0.0,0.0,0.0,0.0,0.0,0.0,0.0,0.0,0.0,0.0,0.0,0.0,0.0,0.0,0.0,0.0,0.0,0.0,0.0,0.0,0.0,0.0,0.0,0.0,0.0,0.0,0.0,0.0,0.0,0.0,0.0,0.0,-2.3477,0.0,0.0,0.0,0.0,0.0,0.0,0.0,0.0,0.0,0.0,0.0,0.0,0.0,0.0,0.0,0.0,0.0,0.0,0.0,0.0,0.0,0.0,0.0,-1.0216,-1.0634,-1.1524,-1.1586,-1.2309,0.0,0.0,0.0,0.0,0.0,0.0,-1.499,-1.4996,-1.5056,-1.5168,-1.5426,-1.6054,-1.7044,-1.8157,-1.7579,-1.5513,-1.4876,0.0,0.0,0.0,0.0,0.0,0.0,0.0,0.0,0.0,0.0,0.0,0.0,0.0,0.0,0.0,0.0,0.0,0.0,0.0,0.0,0.0,0.0,0.0,0.0,0.0,0.0,0.0,0.0,0.0,0.0,0.0,0.0,0.0,0.0,0.0,0.0,0.0,0.0,0.0,0.0,0.0,0.0,0.0,0.0,0.0,0.0,0.0,0.0,0.0,0.0,0.0,0.0,0.0,0.0,0.0,0.0,0.0,0.0,0.0,0.0,0.0,0.0,0.0,0.0,-2.9658,-3.0849,-3.192,-3.2876,-3.3427,-2.945,-2.7742,-2.7577,0.0,0.0,0.0,0.0,0.0,0.0,0.0,0.0,0.0,0.0,0.0,0.0,0.0,0.0,0.0,0.0,0.0,0.0,0.0,0.0,0.0,0.0,-1.0646,-1.1419,-1.2281,-1.2356,-1.3061,-1.4759,0.0,0.0,0.0,0.0,0.0,-1.5003,-1.4992,-1.5031,-1.51,-1.662,-1.7803,-1.8741,-2.1113,-2.2057,-2.1591,-1.8606,-1.7689,-1.8196,0.0,0.0,0.0,0.0,0.0,0.0,0.0,0.0,0.0,0.0,0.0,0.0,0.0,0.0,0.0,0.0,0.0,0.0,0.0,0.0,0.0,0.0,0.0,0.0,0.0,0.0,0.0,0.0,0.0,0.0,0.0,0.0,0.0,0.0,0.0,0.0,0.0,0.0,0.0,0.0,0.0,-1.5475,-1.7519,0.0,0.0,0.0,0.0,0.0,0.0,0.0,0.0,0.0,0.0,0.0,0.0,0.0,0.0,-2.722,-3.0199,-3.1444,-3.0968,-3.1857,-3.1927,-3.1341,-3.2147,-3.2838,-3.3431,-3.3188,0.0,-3.1783,-2.7988,0.0,0.0,0.0,0.0,0.0,0.0,0.0,0.0,0.0,0.0,0.0,0.0,0.0,0.0,0.0,0.0,0.0,0.0,0.0,0.0,0.0,-1.1095,-1.216,-1.2985,-1.4305,-1.5463,-1.6347,-1.6023,0.0,0.0,0.0,-1.4971,-1.494,-1.4983,-1.5481,-1.6504,-1.8783,-2.0313,-2.1176,-2.3262,-2.4552,-2.5041,-2.403,-2.2714,-2.1082,-1.8578,0.0,0.0,0.0,0.0,0.0,0.0,0.0,0.0,0.0,0.0,0.0,0.0,0.0,0.0,0.0,0.0,0.0,0.0,0.0,0.0,0.0,0.0,0.0,0.0,0.0,0.0,0.0,0.0,0.0,0.0,0.0,0.0,0.0,0.0,0.0,0.0,0.0,0.0,0.0,-1.7204,-2.0522,-2.1339,-2.2189,-2.2206,0.0,0.0,0.0,0.0,0.0,0.0,0.0,0.0,0.0,-2.7714,-3.0089,-3.1694,-3.2463,-3.4572,-3.5491,-3.5138,-3.5835,-3.5771,-3.5069,-3.5531,-3.6045,-3.6501,-3.6856,-3.6555,-3.5498,-3.2173,-3.0688,-3.0279,0.0,0.0,0.0,0.0,0.0,-2.5707,0.0,0.0,0.0,0.0,0.0,0.0,0.0,0.0,0.0,0.0,0.0,0.0,-1.0889,-1.2366,-1.3808,-1.5019,-1.6427,-1.7618,-1.8471,-1.7841,-1.7307,-1.7028,-1.6327,-1.5847,-1.5605,-1.5851,-1.6958,-1.8893,-2.1132,-2.2887,-2.4139,-2.5832,-2.7131,-2.8105,-2.8782,-2.7304,-2.4171,-2.1871,-2.0182,-1.891,0.0,0.0,0.0,0.0,0.0,0.0,0.0,0.0,0.0,0.0,0.0,0.0,0.0,0.0,0.0,0.0,0.0,0.0,0.0,0.0,0.0,0.0,0.0,0.0,0.0,0.0,0.0,0.0,0.0,0.0,0.0,0.0,0.0,0.0,0.0,0.0,0.0,-2.0581,-2.4109,-2.3947,-2.5813,-2.641,0.0,0.0,0.0,0.0,0.0,0.0,-2.7829,-2.9822,-3.157,-3.303,-3.4694,-3.5962,-3.6783,-3.8034,-3.8627,-3.8645,-3.9093,-3.9047,-3.8548,-3.9038,-3.9359,-3.9547,-4.0044,-3.9777,-3.8757,-3.5931,-3.3906,-3.2524,-3.1845,-3.1301,-3.0833,-3.0188,-3.0475,-3.1322,0.0,0.0,0.0,0.0,0.0,0.0,0.0,0.0,0.0,0.0,0.0,-1.1865,-1.3271,-1.5017,-1.7008,-1.9283,-1.8368,-1.8691,-2.1143,-1.909,-1.8124,-1.8929,-1.8854,-1.8388,-1.7476,-1.8273,-1.9933,-2.2435,-2.3462,-2.5226,-2.7678,-2.9371,-3.0652,-3.1553,-3.1658,-3.0299,-2.7812,-2.6045,-2.4307,-2.2576,-2.0762,0.0,0.0,0.0,0.0,0.0,0.0,0.0,0.0,0.0,0.0,0.0,0.0,0.0,0.0,0.0,0.0,0.0,0.0,0.0,0.0,0.0,0.0,0.0,0.0,0.0,0.0,0.0,0.0,0.0,0.0,0.0,0.0,0.0,0.0,0.0,0.0,0.0,0.0,-2.2969,-2.7967,0.0,0.0,0.0,0.0,-2.9146,-2.9756,-3.1176,-3.365,-3.466,-3.5529,-3.6244,-3.7904,-3.9071,-3.9687,-4.0519,-4.091,-4.091,-4.0965,-4.0695,-4.0235,-4.1393,-4.1632,-4.1226,-4.2424,-4.2412,-4.1354,-3.7954,-3.607,-3.5301,-3.5119,-3.5496,-3.6112,-3.6055,-3.6607,-3.7255,0.0,0.0,0.0,0.0,0.0,0.0,0.0,0.0,-1.0398,-1.0953,-1.2192,-1.3418,-1.451,-1.7047,-1.9012,-1.9868,-2.0373,-2.0873,-2.1403,-2.0085,-1.9255,-1.9173,-1.8567,-1.8586,-1.9323,-2.1757,-2.3736,-2.5211,-2.7748,-2.9467,-3.0371,-3.1487,-3.2513,-3.343,-3.412,-3.3634,-3.2093,-2.8702,-2.6581,-2.5255,-2.233,-1.9413,0.0,0.0,0.0,0.0,0.0,0.0,0.0,0.0,0.0,0.0,0.0,0.0,0.0,0.0,0.0,0.0,0.0,0.0,0.0,0.0,0.0,0.0,0.0,0.0,0.0,0.0,0.0,0.0,0.0,0.0,0.0,0.0,0.0,0.0,0.0,0.0,0.0,-2.8196,-3.1512,0.0,-3.2071,-3.177,-3.2081,-3.3152,-3.4451,-3.574,-3.7044,-3.8372,-3.946,-4.0209,-4.083,-4.1466,-4.2194,-4.2488,-4.2635,-4.2635,-4.2876,-4.2701,-4.225,-4.2896,-4.2923,-4.2504,-4.3455,-4.3393,-4.2585,-4.1873,-4.045,-3.8719,-3.867,-3.8827,-3.9135,-3.9695,-4.0098,-4.0422,0.0,0.0,0.0,0.0,0.0,0.0,0.0,0.0,-1.0957,-1.1823,-1.3593,-1.529,-1.6675,-1.9283,-2.115,-2.1653,-2.1901,-2.2239,-2.2752,-2.1161,-2.0299,-2.0516,-1.9899,-2.0312,-2.1951,-2.4743,-2.7017,-2.8736,-3.0717,-3.2275,-3.3391,-3.366,-3.4416,-3.5608,-3.6598,-3.6571,-3.5667,-3.2774,-3.0239,-2.7958,-2.5253,-2.2489,-1.9767,0.0,0.0,0.0,0.0,0.0,0.0,0.0,0.0,0.0,0.0,0.0,0.0,0.0,0.0,0.0,0.0,0.0,0.0,0.0,0.0,0.0,0.0,0.0,0.0,0.0,0.0,0.0,0.0,0.0,0.0,0.0,0.0,0.0,0.0,0.0,-3.2114,-3.1879,-3.4832,-3.668,-3.6129,-3.5773,-3.6193,-3.7637,-3.8958,-4.0031,-4.0689,-4.1754,-4.2433,-4.269,-4.269,-4.2947,-4.3479,-4.3497,-4.3497,-4.3479,-4.3818,-4.3745,-4.3309,-4.395,-4.3981,-4.3547,-4.4374,-4.4432,-4.397,-4.4509,-4.3739,-4.2181,-4.1893,-4.1777,-4.1893,-4.2758,-4.3085,-4.3162,0.0,0.0,0.0,0.0,0.0,0.0,0.0,-1.1006,-1.1826,-1.2757,-1.5048,-1.7457,-1.9791,-2.1729,-2.3458,-2.487,-2.2853,-2.2612,-2.5249,-2.2255,-2.1177,-2.2985,-2.3097,-2.3828,-2.5343,-2.7175,-2.9707,-3.2987,-3.2256,-3.3564,-3.6719,-3.5949,-3.6507,-3.8214,-3.9069,-3.9058,-3.8419,-3.8305,-3.546,-3.0906,-2.9753,-2.7273,-2.4129,0.0,0.0,0.0,0.0,0.0,0.0,0.0,0.0,0.0,0.0,0.0,0.0,0.0,0.0,0.0,0.0,0.0,0.0,0.0,0.0,0.0,0.0,0.0,0.0,0.0,0.0,0.0,0.0,0.0,0.0,0.0,0.0,0.0,-2.7566,-3.2607,-3.5571,-3.3612,-3.7807,-3.9927,-3.7469,-3.9208,-4.1126,-4.2674,-4.3258,-4.3883,-4.4672,-4.469,-4.4305,-4.3516,-4.3497,-4.3497,-4.3497,-4.3497,-4.3497,-4.3479,-4.3818,-4.3764,-4.3391,-4.4562,-4.4823,-4.4393,-4.522,-4.5586,-4.5586,-4.5586,-4.5586,-4.5509,-4.4662,-4.4335,-4.4432,-4.5278,-4.5586,-4.5586,0.0,0.0,0.0,0.0,0.0,0.0,0.0,-1.1331,-1.2229,-1.426,-1.674,-1.9033,-2.0959,-2.3232,-2.4774,-2.5186,-2.2939,-2.2126,-2.3585,-2.1085,-2.0317,-2.2081,-2.4414,-2.6159,-2.7171,-3.0656,-3.3241,-3.4795,-3.5776,-3.6738,-3.7642,-3.743,-3.8219,-3.9869,-4.0303,-4.0699,-4.1089,-4.1694,-4.0419,-3.7621,-3.2891,-2.9349,-2.6697,0.0,0.0,0.0,0.0,0.0,0.0,0.0,0.0,0.0,0.0,0.0,0.0,0.0,0.0,0.0,0.0,0.0,0.0,0.0,0.0,0.0,0.0,0.0,0.0,0.0,0.0,0.0,0.0,0.0,0.0,0.0,0.0,-3.3082,-3.3671,-3.6472,-3.8627,-3.9136,-4.1511,-4.2999,-4.2604,-4.3649,-4.4536,-4.4978,-4.4632,-4.447,-4.4709,-4.4158,-4.3718,-4.3497,-4.3497,-4.3497,-4.3497,-4.3497,-4.3497,-4.3479,-4.3818,-4.4092,-4.4266,-4.4848,-4.5148,-4.5259,-4.549,-4.5586,-4.5586,-4.5586,-4.5586,-4.5566,-4.5336,-4.524,-4.5259,-4.5509,-4.5586,-4.5586,0.0,0.0,0.0,0.0,0.0,0.0,0.0,-1.2037,-1.3271,-1.5424,-1.796,-2.0197,-2.1917,-2.4021,-2.5014,-2.4312,-2.3254,-2.2739,-2.2977,-2.2296,-2.2144,-2.2735,-2.5948,-2.8116,-2.8927,-3.2755,-3.5334,-3.6546,-3.7892,-3.8945,-3.9677,-3.9677,-4.0404,-4.1748,-4.2264,-4.2551,-4.2686,-4.3501,-4.3085,-4.1459,-3.7512,-3.4186,-3.1414,-2.9371,-2.7679,-2.637,-2.5998,-2.6257,-2.6302,-2.313,0.0,0.0,0.0,0.0,0.0,0.0,0.0,0.0,0.0,0.0,0.0,0.0,0.0,0.0,0.0,0.0,0.0,0.0,0.0,0.0,0.0,0.0,0.0,0.0,-3.5036,-3.8098,-4.0659,-4.117,-4.1659,-4.2704,-4.3999,-4.4897,-4.5203,-4.5626,-4.6049,-4.6379,-4.5975,-4.5571,-4.5223,-4.4764,-4.4195,-4.3516,-4.3497,-4.3497,-4.3497,-4.3497,-4.3497,-4.3532,-4.4004,-4.4373,-4.4624,-4.5096,-4.5419,0.0,-4.5586,-4.5586,-4.5586,-4.5586,-4.5586,0.0,0.0,0.0,0.0,0.0,-4.5586,-4.5586,0.0,0.0,0.0,0.0,0.0,0.0,0.0,-1.2876,-1.4491,-1.617,-1.8589,-2.0716,-2.2188,-2.3861,-2.4274,-2.2774,-2.3253,-2.3356,-2.274,-2.4601,-2.5339,-2.4428,-2.7841,-3.01,-3.0802,-3.418,-3.6661,-3.8142,-3.9027,-4.0331,-4.1998,-4.2005,-4.2555,-4.3588,-4.436,-4.4349,-4.3752,-4.44,-4.4219,-4.3415,-4.2473,-4.0134,-3.6961,-3.4607,-3.3576,-3.3277,-3.2482,-3.1786,-3.0801,-2.8184,0.0,0.0,0.0,0.0,0.0,0.0,0.0,0.0,0.0,0.0,0.0,0.0,0.0,0.0,0.0,0.0,0.0,0.0,0.0,0.0,0.0,0.0,0.0,0.0,-3.9462,-4.2458,-4.691,-4.5774,-4.4582,-4.4818,-4.5553,-4.6049,-4.6049,-4.6122,-4.6471,-4.7186,-4.713,-4.6801,-4.6067,0.0,0.0,0.0,0.0,-4.3497,-4.3497,-4.3497,-4.3497,-4.3532,-4.4194,-4.4553,-4.4606,-4.5263,-4.5568,-4.5586,-4.5586,-4.5586,-4.5586,-4.5586,-4.5586,-4.5586,-4.5586,-4.5586,-4.5586,-4.5586,-4.5586,0.0,0.0,0.0,0.0,0.0,0.0,0.0,0.0,-1.3248,-1.4478,-1.611,-1.8033,-1.9327,-1.955,-2.1174,-2.21,-2.1773,-2.0723,-2.0315,-2.0867,-2.4416,-2.641,-2.6205,-3.0713,-3.3301,-3.3449,-3.6815,-3.8719,-3.9046,-3.9985,-4.0981,-4.2013,-4.2067,-4.2927,-4.4453,-4.4736,-4.514,-4.558,-4.5732,-4.5626,-4.5297,-4.4357,-4.2297,-3.9653,-3.8513,-3.6818,-3.5008,-3.4828,-3.5098,-3.511,-3.2545,-3.1885,-3.1572,-2.8376,-2.5723,0.0,0.0,0.0,0.0,0.0,0.0,0.0,0.0,0.0,0.0,0.0,0.0,0.0,0.0,0.0,0.0,0.0,0.0,0.0,-3.9256,-4.2735,-4.55,-4.6382,-4.7035,-4.7004,-4.581,-4.6397,-4.6874,-4.6874,-4.7462,-4.7902,-4.8067,-4.748,-4.704,-4.6893,-4.5645,0.0,-4.4488,-4.3828,-4.3497,-4.3497,-4.3497,-4.3497,-4.3479,0.0,0.0,-4.4606,-4.5011,-4.5342,-4.5586,-4.5586,-4.5586,-4.5586,-4.5586,-4.5586,-4.5586,-4.5586,-4.5586,-4.5586,-4.5586,-4.5586,-4.5586,0.0,0.0,0.0,0.0,0.0,0.0,0.0,-1.3704,-1.4985,-1.6192,-1.7553,-1.8523,-1.8862,-2.0485,-2.1209,-2.0369,-2.036,-2.1127,-2.2836,-2.6081,-2.8335,-2.9164,-3.2821,-3.5045,-3.5449,-3.8373,-3.9927,-4.0,-4.1751,-4.2903,-4.3451,-4.3904,-4.4589,-4.5508,-4.5566,-4.5827,-4.6199,-4.6131,-4.6024,-4.586,-4.5343,-4.4316,-4.2912,-4.1662,-4.0412,-3.9258,-3.8815,-3.8642,-3.8277,-3.6166,-3.5422,-3.496,-3.2436,-3.0175,-2.7854,0.0,0.0,0.0,0.0,0.0,0.0,0.0,0.0,0.0,0.0,0.0,0.0,0.0,0.0,-3.3995,0.0,0.0,-4.2581,-4.4114,-4.6757,-4.8734,-4.9068,-4.9011,-4.8247,-4.6254,-4.7053,-4.7719,-4.7719,-4.8067,-4.8306,-4.8306,-4.7939,-4.7535,-4.7094,-4.5975,-4.5131,-4.4727,-4.392,-4.3563,-4.3758,-4.3758,-4.3868,-4.4065,-4.4401,-4.4663,-4.4872,-4.5201,-4.5438,-4.5586,-4.5586,-4.5586,-4.5586,-4.5586,-4.5495,-4.5342,-4.5342,-4.5438,-4.5586,-4.5419,-4.5476,-4.5586,0.0,0.0,0.0,0.0,0.0,0.0,0.0,-1.4184,-1.5427,-1.6046,-1.6958,-1.7729,-1.8177,-1.9656,-2.0134,-1.8975,-2.0598,-2.2699,-2.51,-2.7873,-3.0175,-3.1872,-3.4699,-3.6622,-3.743,-3.9777,-4.1062,-4.1185,-4.3254,-4.45,-4.4909,-4.5578,-4.6026,-4.6308,-4.6308,-4.6308,-4.6289,-4.6158,-4.6025,-4.59,-4.5823,-4.5719,-4.5432,-4.3912,-4.3335,-4.3201,-4.2181,-4.1027,-3.9777,-3.8257,-3.718,-3.6185,-3.468,-3.3244,-3.1399,-2.7804,-2.6132,0.0,0.0,0.0,0.0,0.0,0.0,0.0,0.0,-3.1718,-3.3925,-3.6059,-3.7843,-3.9679,-4.1898,-4.4626,-4.7012,-4.8531,-5.0057,-5.1147,-5.1522,-5.0578,-4.9025,-4.6904,-4.7645,-4.8306,-4.8306,-4.8306,-4.8306,-4.8306,-4.8306,-4.8031,-4.7388,-4.647,-4.5714,-4.5035,-4.4343,-4.4077,-4.436,-4.4509,-4.4683,-4.4851,-4.51,-4.5141,-4.5011,-4.5342,-4.5495,-4.5513,-4.5568,-4.5568,-4.5495,-4.5495,-4.5302,-4.5007,-4.4919,-4.514,-4.5476,-4.5201,-4.5322,-4.5586,0.0,0.0,0.0,0.0,0.0,0.0,0.0,0.0,-1.5189,-1.5169,-1.6029,-1.6342,-1.5546,-1.642,-1.7333,-1.799,-2.0238,-2.2393,-2.4239,-2.8067,-3.1013,-3.2699,-3.668,-3.9238,-4.0046,-4.1873,-4.2852,-4.2906,-4.333,-4.4001,-4.4905,-4.5046,-4.5543,-4.6308,-4.6308,-4.6308,-4.6288,-4.6169,-4.6035,-4.59,-4.5823,-4.5719,-4.549,-4.4528,-4.4162,-4.3951,-4.2374,-4.0281,-3.8131,-3.7166,-3.6281,-3.5388,-3.4487,-3.407,-3.3089,-2.8879,-2.7044,-2.5757,-2.3048,-2.4129,-2.6231,-2.7043,-2.8984,-3.1953,0.0,-3.8703,-4.0652,-4.4645,-4.6779,-4.7834,-4.7443,-4.8861,-4.9971,-4.9471,-5.0805,-5.1425,-5.0224,-5.0404,-5.0085,-4.8537,-4.832,-4.8306,-4.8306,-4.8306,-4.8306,-4.8306,-4.8306,-4.8269,-4.8177,-4.7013,-4.629,-4.6197,-4.5779,-4.5555,-4.5582,-4.6364,-4.6391,-4.5682,-4.5689,-4.5356,-4.4657,-4.4988,-4.5159,-4.518,-4.5476,-4.5438,-4.5159,-4.5159,-4.4966,-4.4606,-4.4261,-4.4561,-4.514,-4.5118,-4.5322,-4.5586,0.0,0.0,0.0,0.0,0.0,0.0,0.0,0.0,0.0,-1.5126,-1.5529,-1.5632,-1.5212,-1.5999,-1.7103,-1.8474,-1.9889,-2.1914,-2.472,-2.7811,-3.0989,-3.4276,-3.7065,-3.9161,-4.0469,-4.22,-4.3124,-4.3201,-4.4272,-4.5073,-4.5612,-4.5636,-4.5879,-4.6308,-4.6308,-4.6308,-4.6308,-4.6245,-4.6085,-4.5896,-4.5863,-4.5757,-4.5451,-4.4147,-4.3035,-4.1982,-4.0696,-3.8879,0.0,-3.558,-3.4515,-3.3734,-3.3519,-3.3096,-3.2135,-2.9375,-2.8265,-2.7941,-2.7865,-2.8211,-2.9429,-3.2776,-3.5147,-3.7597,-4.1289,-4.359,-4.5722,-4.8529,-4.985,-5.0636,-5.1034,-5.1442,-5.1726,0.0,-5.2252,-5.2315,-5.1225,-5.0533,-4.9676,-4.8557,-4.751,-4.7278,-4.8214,-4.8306,-4.8306,-4.8306,-4.8306,-4.8306,-4.8306,-4.7564,-4.7183,-4.7183,-4.6788,-4.6637,-4.6858,-4.72,-4.6953,-4.6093,-4.6093,-4.5558,-4.4606,-4.4751,-4.4825,-4.4825,-4.4966,-4.4943,-4.4825,-4.4825,-4.4606,-4.4261,-4.4318,-4.4553,-4.4825,-4.4825,-4.514,-4.5586,0.0,0.0,0.0,0.0,0.0,0.0,0.0,0.0,0.0,0.0,-1.5246,-1.5311,-1.5302,-1.6066,-1.7171,-1.8609,-1.9617,-2.1554,-2.4839,-2.7056,-3.0228,-3.4589,-3.6411,-3.8315,-4.045,-4.197,-4.3008,-4.3568,-4.4815,-4.5647,-4.6041,-4.6088,-4.6152,-4.625,-4.6289,-4.6308,-4.6308,-4.6269,-4.6138,-4.5925,-4.5668,-4.5336,-4.4761,-4.2654,-4.0888,-3.9426,-3.8728,-3.6814,-3.4482,-3.3314,-3.2119,-3.12,-3.164,-3.1481,-3.0822,-2.9166,-2.8466,-2.8664,-3.0644,-3.1397,-3.2833,-3.779,-4.0614,-4.2862,-4.547,-4.7855,-4.9933,-5.1433,-5.189,-5.2175,-5.2753,-5.2507,-5.2271,-5.25,-5.2729,-5.2674,-5.2068,-5.06,-4.926,-4.8398,-4.6874,-4.6361,-4.7517,-4.7847,-4.7976,-4.7976,-4.8177,-4.8306,-4.8306,-4.8017,-4.786,-4.786,-4.7775,-4.7848,-4.8094,-4.8343,-4.7859,-4.6663,-4.6553,-4.5786,-4.4428,-4.4428,-4.4501,-4.458,-4.458,-4.4527,-4.4447,-4.4553,-4.4346,-4.4028,-4.4447,-4.4676,-4.4751,-4.4751,-4.5118,-4.5586,0.0,0.0,0.0,0.0,0.0,0.0,0.0,0.0,0.0,0.0,0.0,0.0,0.0,-1.6014,-1.685,-1.7771,-1.9347,-2.1378,-2.3975,-2.5735,-2.8549,-3.2795,-3.4661,-3.7123,-4.0431,-4.1373,-4.2703,-4.4455,-4.4511,-4.5007,-4.5905,-4.605,-4.6094,-4.6113,-4.623,-4.6308,-4.6289,-4.6152,-4.6094,-4.601,-4.5099,-4.4224,-4.3094,-3.9731,-3.7775,-3.6819,-3.6857,-3.4029,-3.0283,-3.024,-2.8988,-2.7638,-2.8617,-2.9446,-2.9736,-2.812,-2.6999,-2.6854,-2.9446,-3.2542,-3.6102,-4.0488,-4.4186,-4.7375,-4.9913,-5.1818,-5.3299,-5.4203,-5.4077,-5.3446,-5.2246,-5.1696,-5.1305,-5.0919,-5.1536,-5.2013,-5.1995,-5.06,-4.926,-4.8398,-4.6874,-4.592,0.0,-4.6691,-4.715,-4.715,-4.7865,-4.8306,-4.8306,-4.8226,-4.8192,-4.8192,-4.893,-4.9337,-4.9356,-5.0183,-4.9583,-4.756,-4.7233,-4.6008,-4.4016,-4.4016,-4.4233,-4.458,-4.458,-4.4392,-4.4046,-4.4447,-4.4346,-4.4028,-4.4447,-4.48,-4.5074,-4.5074,-4.5302,-4.5586,0.0,0.0,0.0,0.0,0.0,0.0,0.0,0.0,0.0,0.0,0.0,0.0,0.0,0.0,0.0,0.0,-1.8709,-2.041,-2.2997,-2.4711,-2.7022,-3.0237,-3.2564,-3.4564,-3.6276,-3.8257,-3.9854,-4.1046,-4.2146,-4.3184,-4.4105,-4.4247,-4.4655,-4.5312,-4.5391,-4.5762,-4.6308,-4.625,-4.6172,-4.5917,-4.3923,-4.281,-4.1909,-3.7953,-3.5078,-3.3159,0.0,-3.1563,-2.9363,-2.7929,-2.6849,-2.6124,-2.6284,-2.6472,-2.674,-2.7412,-2.8979,-3.1221,-3.4457,-3.8227,-4.2136,-4.5877,-4.8952,-5.1471,-5.2895,-5.3664,-5.3972,-5.3703,-5.1859,-5.0024,-4.9075,-4.7582,-4.691,-4.8274,-4.9213,-4.9894,-5.0365,-5.0398,-4.9481,-4.7003,-4.6232,0.0,0.0,0.0,0.0,-4.7076,-4.737,-4.7868,-4.8674,-4.894,-4.9183,-4.9461,-4.998,-5.026,-5.026,-4.9752,-4.8766,-4.7245,-4.5541,-4.4341,-4.3679,-4.3679,-4.3726,-4.3868,-4.3868,-4.3912,-4.4016,-4.4146,-4.4261,-4.4428,-4.4781,-4.5007,-4.5137,-4.5342,-4.5495,-4.5586,0.0,0.0,0.0,0.0,0.0,0.0,0.0,0.0,0.0,0.0,0.0,0.0,0.0,0.0,0.0,0.0,0.0,-1.9818,-2.2096,-2.3195,-2.4968,-2.7638,-2.931,-3.0867,-3.2295,-3.3947,-3.5484,-3.6949,-3.8059,-3.9227,-4.0403,-4.0871,-4.1466,-4.2106,-4.2517,-4.3027,-4.3555,-4.3555,-4.3612,-4.3549,-4.126,-3.9985,-3.9054,-3.5043,-3.2224,0.0,-2.9494,-2.9061,-2.8668,-2.7387,-2.6294,-2.5486,-2.5806,-2.5866,-2.62,-2.828,-3.1085,-3.4445,-3.8591,-4.2577,-4.6435,-4.9875,-5.2222,-5.3895,-5.4741,-5.4472,-5.3682,-5.2447,-4.9529,-4.6828,-4.5628,-4.3877,-4.3391,-4.5653,-4.6724,-4.7868,-4.9373,-4.9654,-4.9012,-4.7185,-4.6601,-4.5923,0.0,0.0,0.0,-4.687,-4.7529,-4.8308,-4.9089,-4.9504,-4.9827,-5.0092,-5.0483,-5.0702,-5.0702,-4.9513,-4.8093,-4.644,-4.4453,-4.3497,-4.3497,-4.3497,-4.3497,-4.3532,-4.3631,-4.3804,-4.3998,-4.4271,-4.4535,-4.4806,-4.514,-4.5282,-4.5302,-4.5513,-4.5586,-4.5586,0.0,0.0,0.0,0.0,0.0,0.0,0.0,0.0,0.0,0.0,0.0,0.0,0.0,0.0,0.0,0.0,0.0,0.0,-2.1167,-2.1273,-2.2422,-2.4983,-2.5137,-2.6266,-2.8676,-2.881,-3.0043,-3.2416,-3.2598,-3.3475,-3.5051,-3.6135,-3.6689,-3.682,-3.7845,-3.8339,-3.8417,-3.8417,-3.8749,-3.9117,-3.7246,-3.5929,-3.4687,-3.1172,-2.927,-2.8204,-2.636,-2.6675,-2.8014,-2.8313,-2.714,-2.578,-2.7185,-2.7684,-2.8305,-3.0909,-3.3534,-3.6709,-4.1857,-4.5764,-4.918,-5.2547,-5.401,-5.478,-5.5434,-5.4241,-5.2448,-5.0533,-4.7091,-4.3856,-4.2015,0.0,-4.0796,-4.3171,-4.4443,-4.6184,-4.9229,-4.873,-4.8259,0.0,0.0,0.0,0.0,0.0,0.0,-4.6725,0.0,-4.9522,-4.9589,-4.9955,-5.013,-5.0135,-5.0504,-5.0702,-5.0702,-4.9475,-4.765,-4.5289,-4.4114,-4.3548,-4.3548,-4.3548,-4.3548,-4.3563,-4.3881,-4.4028,-4.4117,-4.4806,-4.5096,-4.5159,-4.5476,-4.5586,-4.5586,-4.5586,-4.5586,-4.5586,0.0,0.0,0.0,0.0,0.0,0.0,0.0,0.0,0.0,0.0,0.0,0.0,0.0,0.0,0.0,0.0,0.0,0.0,-1.9473,-1.9541,-2.0383,-2.2297,-2.2967,-2.3872,-2.5094,-2.6301,-2.7513,-2.8755,-2.9398,-3.0236,-3.1286,-3.1694,-3.2461,-3.3589,-3.4018,-3.4878,-3.5998,-3.6056,-3.6154,-3.608,-3.362,-3.2427,-3.1851,-2.8836,-2.7135,-2.6432,-2.6921,-2.667,-2.6208,-2.7028,-2.7974,-2.8988,-3.0053,-3.1641,-3.3789,-3.7094,-4.0728,-4.4576,-4.851,-5.2085,-5.4912,-5.5799,-5.6203,-5.5915,-5.4222,-5.1928,-4.9463,-4.7082,-4.2669,-3.888,-3.7734,-3.7354,-3.8154,-4.1065,-4.4493,0.0,-5.0134,-5.1794,0.0,-5.0508,-5.0579,-5.026,-4.9088,-4.9188,0.0,0.0,-4.9446,-4.9957,-5.0805,-5.0945,-5.086,-5.0563,-5.0663,-5.0702,-5.0702,-4.8862,-4.7162,-4.5659,-4.4759,-4.4308,-4.4308,-4.4308,-4.4308,-4.4308,-4.4419,-4.4606,-4.483,-4.5011,-4.5243,-4.5495,-4.5568,-4.5586,-4.5586,-4.5586,-4.5586,-4.5586,0.0,0.0,0.0,0.0,0.0,0.0,0.0,0.0,0.0,0.0,0.0,0.0,0.0,0.0,0.0,0.0,0.0,0.0,0.0,-1.8665,-1.9106,-1.9649,-2.0762,-2.14,-2.1467,-2.2646,-2.3649,-2.4418,-2.4911,-2.5552,-2.6365,-2.691,-2.7627,-2.8466,-2.9025,-2.9778,-3.0694,-3.1111,-3.1451,0.0,0.0,-2.924,-2.8871,-2.6854,-2.556,-2.498,-2.5968,-2.6658,-2.7344,-2.891,-3.0484,-3.208,-3.3697,-3.5662,-3.8146,-4.2099,-4.5668,-4.9142,-5.2624,-5.553,-5.7473,-5.7088,-5.6434,-5.5105,-5.2082,-4.935,-4.6352,-4.2519,-3.8757,-3.5773,-3.4562,-3.4737,-3.6101,0.0,0.0,0.0,-4.923,-5.1329,-5.2314,0.0,-5.2137,-5.2164,-5.1255,-5.1342,-5.1625,0.0,-5.0813,-5.035,-5.1009,-5.1028,-5.0943,-5.0702,-5.0702,-5.0451,-4.9925,-4.8376,-4.7001,-4.5795,-4.4976,-4.458,-4.458,-4.458,-4.458,-4.4624,0.0,-4.4919,-4.5096,-4.5243,-4.5419,-4.5586,-4.5586,-4.5586,-4.5586,-4.5586,-4.5586,-4.5586,0.0,0.0,0.0,0.0,0.0,0.0,0.0,0.0,0.0,0.0,0.0,0.0,0.0,0.0,0.0,0.0,0.0,0.0,0.0,0.0,-1.8079,-1.7546,-1.8672,-1.9005,-1.8327,-1.8968,-1.9604,-2.0236,-2.0285,-2.0685,-2.1435,-2.226,-2.278,-2.3004,-2.3877,-2.4377,-2.4595,-2.5338,-2.5986,-2.6449,-2.6333,-2.6137,-2.5886,0.0,-2.4238,-2.3865,-2.4379,-2.645,-2.9362,-3.2107,-3.3819,-3.5215,-3.7728,-3.9819,-4.2157,-4.6338,-4.9298,-5.1907,-5.5162,-5.73,-5.8396,-5.7415,-5.5915,-5.3603,-4.9654,-4.6699,-4.3269,-3.7969,-3.5447,-3.3749,-3.2315,-3.2978,-3.4794,-3.8055,0.0,-4.4113,-4.8007,-4.9575,-5.0932,-5.2488,-5.2973,-5.3203,-5.3203,-5.3203,-5.3472,-5.4107,-5.2106,-5.0914,-5.1029,-5.0914,-5.0798,-5.0702,-5.0702,-5.0198,-4.9156,-4.8277,-4.73,-4.6266,-4.5452,-4.5016,-4.4921,-4.4921,-4.4846,-4.4732,0.0,0.0,-4.5201,-4.5495,-4.5586,-4.5586,-4.5586,-4.5586,-4.5586,-4.5586,-4.5586,-4.5586,0.0,0.0,0.0,0.0,0.0,0.0,0.0,0.0,0.0,0.0,-1.5259,-1.5226,0.0,0.0,0.0,0.0,0.0,0.0,0.0,0.0,0.0,-1.7532,-1.7028,-1.6966,-1.7412,-1.7928,-1.8216,-1.8286,-1.8236,-1.8618,-1.9395,-1.897,-1.9441,-2.068,-2.097,-2.1462,-2.2117,-2.2319,-2.252,-2.2648,-2.252,-2.2771,-2.3195,-2.2458,0.0,0.0,-2.3696,-2.5314,-2.8016,-3.3067,-3.6339,-3.878,-4.136,-4.428,-4.7318,-5.0183,-5.2817,-5.5239,-5.73,-5.9088,-5.9992,-5.8454,-5.6761,-5.4028,-4.8334,-4.4438,-4.0687,-3.6077,-3.318,-3.1409,-3.1243,-3.3015,-3.5495,-3.8514,-4.2221,-4.6006,-4.9733,-5.1024,-5.1947,0.0,-5.3161,-5.3203,-5.3203,-5.3203,0.0,0.0,0.0,0.0,-5.2741,-5.2087,-5.1395,-5.0721,-5.0702,-5.0586,-5.0393,-4.9528,-4.899,-4.8777,-4.7894,-4.7126,-4.6493,-4.6493,-4.611,-4.5438,0.0,0.0,-4.5513,-4.5568,-4.5586,-4.5586,-4.5586,-4.5586,-4.5586,-4.5586,-4.5586,-4.5586,0.0,0.0,0.0,0.0,0.0,0.0,0.0,-1.5268,-1.5236,-1.5143,-1.5141,-1.5166,-1.5246,-1.5215,-1.5199,0.0,0.0,0.0,0.0,0.0,0.0,0.0,-1.6498,-1.6621,-1.6526,-1.7023,-1.7255,-1.7237,0.0,-1.748,-1.8233,-1.7855,-1.8338,-1.9489,-1.9595,-1.9848,-2.0228,-2.0822,-2.104,-2.1007,-2.1425,-2.1678,-2.1765,-2.112,0.0,0.0,-2.3155,-2.4921,-2.7473,-3.1151,-3.4168,-3.7417,-4.3227,-4.6471,-4.8241,-4.9029,-5.2317,-5.5684,-5.5602,-5.8143,-6.0396,-5.8723,-5.5992,-5.2123,-4.5934,-4.1818,-3.7946,-3.3051,-3.1429,-3.0733,-3.0395,-3.209,-3.4282,-3.65,-3.9012,-4.2201,-4.6589,-4.803,-4.9433,-5.1645,-5.2664,-5.3203,-5.3203,-5.3203,-5.3029,0.0,0.0,0.0,-5.1895,-5.1491,-5.1106,-5.0702,-5.0702,-5.0702,-5.0702,-4.9837,-4.9163,-4.8702,-4.7875,-4.7278,-4.6894,-4.6432,-4.624,-4.624,-4.5797,0.0,-4.5586,-4.5586,-4.5586,-4.5586,-4.5586,-4.5586,-4.5586,-4.5586,-4.5586,-4.5586,0.0,0.0,0.0,0.0,0.0,0.0,0.0,-1.5287,-1.5226,-1.5088,-1.5094,-1.5157,-1.5248,-1.5199,-1.5174,0.0,0.0,0.0,0.0,0.0,0.0,0.0,0.0,0.0,0.0,0.0,0.0,0.0,-1.6307,0.0,0.0,0.0,0.0,0.0,-1.8765,-1.8889,-1.9122,-1.9973,-2.0248,0.0,0.0,-2.1062,0.0,0.0,0.0,0.0,0.0,-2.4411,-2.6729,-2.9036,-3.1227,-3.4323,-4.1948,-4.5321,-4.6435,-4.6494,-5.0354,-5.4509,-5.4062,-5.7159,-6.0127,-5.8434,-5.4953,-5.022,-4.3767,-3.97,-3.5875,-3.0865,-3.0245,-3.049,-3.0075,-3.1128,-3.2618,-3.4264,-3.5568,-3.8018,-4.2776,-4.4517,-4.6454,-4.974,-5.1471,0.0,-5.2645,-5.2818,0.0,0.0,0.0,0.0,0.0,-5.0702,-5.0702,-5.0702,-5.0702,-5.0702,-5.0702,-5.001,-4.9336,-4.8644,-4.8029,-4.7528,-4.7144,-4.6451,-4.6317,-4.6586,-4.5893,0.0,0.0,-4.5586,-4.5586,-4.5586,-4.5586,-4.5586,-4.5586,-4.5586,-4.5586,-4.5586,0.0,0.0,0.0,0.0,0.0,0.0,0.0,-1.526,-1.5222,-1.5274,-1.5217,-1.5182,-1.5121,-1.5068,-1.5062,0.0,0.0,0.0,0.0,0.0,0.0,0.0,0.0,0.0,0.0,0.0,0.0,0.0,0.0,0.0,0.0,0.0,0.0,0.0,0.0,0.0,-1.9292,-1.9448,0.0,0.0,0.0,0.0,0.0,0.0,0.0,0.0,0.0,-2.3069,-2.4931,-2.864,-3.0089,-3.1023,-3.4878,-3.8362,-4.1608,-4.4633,-4.8163,-5.187,-5.5624,-5.8107,-5.9223,-5.753,-5.4491,-5.0046,-4.294,-3.8861,-3.545,-3.1429,-3.0132,-2.9945,-3.0752,-3.0768,-3.1343,-3.3393,-3.4923,-3.7236,-4.1189,-4.3139,-4.5189,-4.7991,0.0,0.0,-5.0837,-5.1587,0.0,0.0,0.0,0.0,0.0,-5.0702,-5.0702,-5.0702,-5.0702,-5.0702,-5.0702,-5.0606,-5.0529,-5.0452,-5.0375,-4.951,-4.799,-4.7913,-4.7086,-4.572,0.0,0.0,0.0,-4.5586,-4.5586,-4.5586,-4.5586,-4.5586,-4.5586,-4.5586,-4.5586,-4.5586,0.0,0.0,0.0,0.0,0.0,0.0,-1.5234,-1.5229,-1.5193,-1.5185,-1.5095,-1.5045,-1.5097,-1.4965,-1.4927,-1.5075,0.0,0.0,0.0,0.0,0.0,0.0,0.0,0.0,0.0,0.0,-1.4897,-1.4922,0.0,0.0,0.0,0.0,0.0,0.0,0.0,0.0,0.0,-1.8544,0.0,0.0,0.0,0.0,0.0,0.0,0.0,0.0,0.0,0.0,-2.3875,-2.5991,-2.6709,-2.6933,-2.8353,-3.0137,-3.2476,-3.6422,-4.2642,-4.8393,-4.9065,-5.3909,-5.8242,-5.603,-5.2529,-4.801,-4.1874,-3.7585,-3.3971,-3.0753,-2.9851,-2.9757,-3.015,-3.0547,-3.1183,-3.2325,-3.2785,-3.4207,-3.7757,-3.8973,-4.105,-4.5299,-4.7048,0.0,0.0,0.0,0.0,0.0,0.0,0.0,0.0,-5.0702,-5.0702,-5.0702,-5.0702,-5.0702,-5.0702,-5.0702,-5.0433,-4.9913,-4.9913,-4.9279,-4.8086,-4.7605,-4.7009,-4.6355,0.0,0.0,0.0,-4.5586,-4.5586,-4.5586,-4.5586,-4.5586,-4.5586,-4.5586,-4.5586,-4.5586,0.0,0.0,0.0,0.0,0.0,-1.5033,-1.514,-1.5159,-1.5165,-1.512,-1.5047,-1.5015,-1.5087,-1.5,-1.4946,-1.4989,-1.5011,0.0,0.0,0.0,0.0,0.0,0.0,0.0,0.0,0.0,-1.454,-1.4574,-1.4477,-1.4739,0.0,0.0,0.0,0.0,0.0,0.0,0.0,0.0,0.0,0.0,0.0,0.0,0.0,0.0,0.0,0.0,0.0,0.0,0.0,0.0,0.0,-2.4213,-2.454,-2.5075,-2.6486,-3.1046,-3.7563,-4.3503,-4.4595,-4.9948,-5.4951,-5.3683,-5.0105,-4.5611,-4.0729,-3.6369,-3.2727,-3.0471,-2.9832,-2.9756,-2.9945,-3.049,-3.1034,-3.1402,-3.1591,-3.2637,-3.5284,-3.631,-3.8339,-4.2505,0.0,0.0,0.0,0.0,0.0,0.0,0.0,0.0,0.0,-5.0702,-5.0702,-5.0702,-5.0702,-5.0702,-5.0702,-5.0702,-5.0375,-4.9779,-4.9779,-4.9183,-4.8086,-4.7509,-4.699,-4.649,0.0,0.0,0.0,-4.5586,-4.5586,-4.5586,-4.5586,-4.5586,-4.5586,-4.5586,-4.5586,-4.5586,0.0,0.0,0.0,0.0,0.0,0.0,-1.4973,-1.5064,-1.5113,-1.5184,-1.5201,-1.5164,-1.5102,-1.5159,-1.514,-1.5012,-1.4987,0.0,0.0,0.0,0.0,0.0,0.0,0.0,0.0,0.0,-1.4574,-1.4501,-1.4501,-1.4501,-1.4519,-1.4519,0.0,0.0,0.0,0.0,0.0,0.0,0.0,0.0,0.0,0.0,0.0,0.0,0.0,0.0,0.0,0.0,0.0,0.0,0.0,0.0,0.0,-2.4547,-2.5637,-3.086,-3.3747,-3.6897,-4.4595,-4.7357,-4.8529,-5.0317,-4.7357,-4.31,-3.9524,-3.5401,-3.2014,-3.0914,-3.0151,-2.9889,-3.058,-3.0708,-3.0665,-3.0615,-3.2061,-3.3515,-3.4475,-3.6271,-3.8099,0.0,0.0,0.0,0.0,0.0,0.0,0.0,0.0,0.0,0.0,0.0,-5.0702,-5.0702,-5.0702,-5.0702,-5.0702,-5.0702,-5.0702,-5.0683,-5.0683,-4.9779,-4.8105,-4.8086,-4.7182,0.0,0.0,0.0,0.0,-4.5586,-4.5586,-4.5586,-4.5586,-4.5586,-4.5586,-4.5586,-4.5586,-4.5586,0.0,0.0,0.0,0.0,0.0,0.0,0.0,-1.4521,-1.4435,-1.505,-1.4099,-1.3818,-1.5037,-1.4118,-1.3605,-1.4076,-1.4111,0.0,0.0,0.0,0.0,0.0,0.0,0.0,0.0,0.0,-1.4043,-1.4574,-1.4567,-1.4581,-1.4643,-1.4589,-1.4707,-1.4973,0.0,0.0,0.0,0.0,0.0,0.0,0.0,0.0,0.0,0.0,0.0,0.0,0.0,0.0,0.0,0.0,0.0,0.0,0.0,0.0,0.0,-2.7366,-3.0932,-3.4808,-3.7926,-4.1112,-4.3561,-4.3598,-4.1241,-3.8299,-3.5835,-3.3314,-3.12,-3.0281,-2.9833,-2.972,-3.002,-3.0471,-3.0745,-3.0679,-3.2039,-3.3287,-3.3723,-3.6024,0.0,-4.0845,-4.5173,0.0,0.0,0.0,0.0,0.0,0.0,0.0,0.0,0.0,-5.0702,-5.0702,-5.0702,-5.0702,-5.0702,-5.0106,-5.0106,-5.0683,-4.949,-4.8625,-4.8086,-4.7528,0.0,0.0,0.0,0.0,0.0,-4.5586,-4.5586,-4.5586,-4.5586,-4.5586,-4.5586,-4.5586,-4.5586,-4.5586,0.0,0.0,0.0,0.0,0.0,0.0,0.0,-1.4247,-1.408,-1.4949,-1.3589,-1.3213,-1.5017,-1.3663,-1.2954,-1.3749,-1.3195,0.0,0.0,0.0,0.0,0.0,0.0,0.0,-1.4159,-1.3698,-1.3827,-1.464,-1.4635,-1.4656,-1.4648,-1.4645,-1.4635,-1.4637,-1.4571,0.0,0.0,0.0,0.0,0.0,0.0,0.0,-1.7807,0.0,0.0,0.0,0.0,0.0,0.0,0.0,0.0,0.0,0.0,0.0,0.0,0.0,-2.7821,-3.1229,-3.3118,-3.5831,-3.819,-3.8357,-3.6944,-3.51,-3.3591,-3.1893,-3.0445,-2.9847,-2.9718,-2.9719,-2.9682,-3.0302,-3.0784,-3.0719,-3.2039,-3.3127,-3.3259,-3.5428,0.0,-4.1603,0.0,0.0,0.0,0.0,0.0,0.0,0.0,0.0,0.0,0.0,-5.0702,-5.0702,-5.0702,-5.0702,-5.0702,-5.0164,-5.0164,-5.0664,-4.926,-4.8413,-4.8067,0.0,0.0,0.0,0.0,0.0,0.0,-4.5586,-4.5586,-4.5586,-4.5586,-4.5586,-4.5586,-4.5586,-4.5586,-4.5586,0.0,0.0,0.0,0.0,0.0,0.0,0.0,-1.4193,-1.3986,-1.4722,-1.3481,-1.3144,-1.484,-1.3513,-1.2873,-1.3736,0.0,0.0,0.0,0.0,0.0,0.0,0.0,0.0,-1.3467,-1.3449,-1.384,-1.4712,-1.4716,-1.4687,-1.4606,-1.4668,-1.4708,-1.469,-1.4627,-1.4958,0.0,0.0,0.0,0.0,0.0,0.0,0.0,0.0,0.0,0.0,0.0,0.0,0.0,0.0,0.0,0.0,0.0,0.0,0.0,0.0,0.0,0.0,0.0,-3.1445,-3.2556,-3.4305,-3.3999,-3.3064,-3.2324,-3.0932,0.0,-2.957,-2.9717,-2.9808,-2.9551,-3.0167,-3.0708,-3.07,-3.2002,-3.3022,-3.3087,-3.5001,0.0,0.0,0.0,0.0,0.0,0.0,0.0,0.0,0.0,0.0,0.0,0.0,0.0,-5.051,-5.051,-5.0529,-5.0606,-5.0548,-5.051,-5.0491,-4.9567,-4.874,-4.799,-4.7182,0.0,0.0,0.0,0.0,0.0,-4.5586,-4.5586,-4.5586,-4.5586,-4.5624,-4.5682,-4.5605,-4.5624,-4.5682,0.0,0.0,0.0,0.0,0.0,0.0,0.0,0.0,0.0,0.0,-1.2298,-1.2074,-1.3108,-1.1721,-1.1056,0.0,0.0,0.0,0.0,0.0,0.0,0.0,0.0,0.0,-1.3383,-1.2879,-1.3297,-1.4784,-1.4832,-1.4813,-1.4738,-1.4813,-1.4804,-1.4688,-1.4624,-1.4602,0.0,0.0,0.0,0.0,0.0,0.0,0.0,0.0,0.0,0.0,-1.7597,-1.8465,0.0,0.0,0.0,0.0,0.0,0.0,0.0,0.0,-2.436,-2.5357,-2.6162,0.0,-2.7896,-2.8977,-2.914,-2.8984,0.0,-2.933,-2.9685,-2.9047,-2.9375,-2.9719,-2.9664,-2.9738,-2.9997,-3.0592,-3.1499,-3.2575,-3.3892,0.0,0.0,0.0,0.0,0.0,0.0,0.0,0.0,0.0,0.0,0.0,0.0,0.0,0.0,-4.874,-4.8702,-4.9029,-4.9702,-4.9048,-4.8702,-4.8682,-4.7201,-4.674,-4.7163,-4.6297,0.0,0.0,0.0,0.0,-4.5586,-4.5586,-4.5586,-4.5586,-4.5586,-4.6009,-4.6509,-4.5836,-4.6009,-4.6509,0.0,0.0,0.0,0.0,0.0,0.0,0.0,0.0,0.0,0.0,0.0,-1.1221,-1.2469,-1.11,0.0,0.0,0.0,0.0,0.0,0.0,0.0,0.0,0.0,-1.127,-1.2916,-1.2522,-1.3136,-1.4841,-1.4877,-1.4894,-1.489,-1.4963,-1.4895,-1.4688,-1.4497,-1.4417,0.0,0.0,0.0,0.0,-1.5002,0.0,0.0,0.0,0.0,0.0,-1.7274,-1.8335,0.0,-2.0441,-2.0638,-2.0769,0.0,0.0,0.0,0.0,-2.4011,-2.4991,-2.494,-2.5527,-2.6171,-2.6276,-2.6911,-2.7514,-2.7561,-2.8491,-2.9336,-2.9247,-2.954,-2.9774,-2.972,-2.9926,-3.0242,-3.0632,-3.2086,-3.3945,0.0,0.0,0.0,0.0,0.0,0.0,0.0,0.0,0.0,0.0,0.0,0.0,0.0,0.0,0.0,0.0,-4.8702,-4.874,-4.8798,-4.8336,-4.8298,-4.8682,-4.699,-4.6644,-4.7413,-4.6163,0.0,0.0,0.0,0.0,-4.5586,-4.5586,-4.5586,-4.5586,-4.5586,-4.6124,-4.6836,-4.6374,-4.674,-4.7336,0.0,0.0,0.0,0.0,0.0,0.0,0.0,0.0,0.0,0.0,0.0,0.0,0.0,0.0,0.0,0.0,0.0,0.0,0.0,0.0,0.0,0.0,-0.9838,-1.0562,-1.2174,-1.2285,-1.3088,-1.4724,-1.4863,-1.4968,-1.503,-1.5097,-1.4968,-1.4709,-1.4386,-1.4325,0.0,0.0,0.0,0.0,-1.4441,0.0,0.0,0.0,0.0,0.0,0.0,0.0,0.0,-1.9974,-2.0047,-2.0098,-2.004,0.0,0.0,0.0,0.0,0.0,-2.5,-2.5627,-2.6083,-2.5393,-2.6431,-2.7628,-2.7528,-2.8255,-2.9083,-2.959,-2.9801,-2.9844,-2.9757,-3.0471,-3.1089,-3.1198,-3.3592,0.0,0.0,0.0,0.0,0.0,0.0,0.0,0.0,0.0,0.0,0.0,0.0,0.0,0.0,0.0,0.0,0.0,-4.9029,-4.8663,-4.7932,-4.7932,-4.8221,-4.8798,-4.7375,-4.7124,-4.7855,-4.6297,0.0,0.0,0.0,0.0,-4.5586,-4.5586,-4.5586,-4.5605,-4.574,-4.624,-4.6913,-4.6913,-4.7336,-4.7798,0.0,0.0,0.0,0.0,0.0,0.0,0.0,0.0,0.0,0.0,0.0,0.0,0.0,0.0,0.0,0.0,0.0,0.0,0.0,0.0,0.0,-0.9907,-0.9894,-1.0332,-1.1284,-1.2016,-1.2881,-1.3884,-1.4684,-1.5112,-1.5172,-1.5178,-1.5033,-1.4765,-1.4493,-1.4356,-1.4338,-1.4439,-1.4451,-1.4429,-1.4483,0.0,0.0,0.0,0.0,0.0,0.0,0.0,0.0,-2.0004,-2.0077,-2.0174,-2.0098,0.0,0.0,0.0,0.0,0.0,-2.4898,-2.5748,-2.6407,-2.6216,-2.7484,-2.8556,-2.7759,-2.8821,-2.9755,-2.8952,-2.9336,-2.9847,-2.9945,-3.1205,-3.2524,-3.3427,0.0,-3.884,0.0,0.0,0.0,0.0,0.0,0.0,0.0,0.0,0.0,0.0,0.0,0.0,0.0,0.0,0.0,0.0,0.0,-4.7221,-4.7086,-4.7086,-4.6778,-4.6182,-4.5913,-4.624,-4.7048,-4.6047,-4.599,0.0,0.0,-4.5586,-4.5586,-4.5586,-4.5586,-4.5663,-4.6413,-4.6778,-4.6913,-4.6913,-4.699,-4.6971,0.0,0.0,0.0,0.0,0.0,0.0,0.0,0.0,0.0,0.0,0.0,0.0,0.0,0.0,0.0,0.0,0.0,0.0,0.0,0.0,-0.9875,-0.9838,-0.9837,-1.0468,-1.1758,-1.1777,-1.2638,-1.4466,-1.445,-1.4737,-1.5257,-1.4954,-1.4799,-1.4729,-1.4337,-1.4302,-1.4519,-1.4501,-1.4489,-1.4515,0.0,0.0,0.0,0.0,0.0,0.0,0.0,0.0,0.0,0.0,-1.9707,-2.0146,-2.0117,0.0,0.0,0.0,0.0,0.0,-2.4931,-2.5803,-2.6628,-2.714,-2.7758,-2.8274,-2.8382,-2.9308,-3.0138,-3.011,-3.0715,-3.1309,-3.1479,-3.2807,-3.4718,-3.7223,0.0,0.0,0.0,0.0,0.0,0.0,0.0,0.0,0.0,0.0,0.0,0.0,0.0,0.0,0.0,0.0,0.0,0.0,0.0,-4.6682,-4.6201,-4.6201,-4.622,-4.6297,-4.5817,-4.6067,-4.6874,-4.599,-4.5817,-4.6182,0.0,-4.5586,-4.5586,-4.5586,-4.5586,-4.5624,-4.6028,-4.649,-4.7009,-4.7913,-4.7682,-4.6913,0.0,0.0,0.0,0.0,0.0,0.0,0.0,0.0,0.0,0.0,0.0,0.0,0.0,0.0,0.0,0.0,0.0,0.0,0.0,-0.9875,-0.9835,-0.9811,-0.9817,-1.0543,-1.2096,-1.1476,-1.2344,-1.482,-1.4168,-1.4338,-1.5224,-1.4671,-1.4487,-1.4584,-1.4234,-1.4252,-1.4577,-1.4566,-1.4585,-1.4606,0.0,0.0,0.0,0.0,0.0,0.0,0.0,0.0,0.0,0.0,0.0,0.0,0.0,0.0,0.0,-2.2095,-2.2944,-2.3804,-2.4711,-2.5859,-2.7007,-2.7788,-2.7997,-2.8361,-2.974,-3.0605,-3.141,-3.2441,-3.3112,-3.3489,-3.3473,-3.4792,0.0,-4.033,0.0,0.0,0.0,0.0,0.0,0.0,0.0,0.0,0.0,0.0,0.0,0.0,0.0,0.0,0.0,0.0,0.0,0.0,0.0,0.0,-4.5913,-4.5701,-4.5932,-4.6586,-4.5913,-4.6067,-4.6874,-4.599,-4.5701,-4.5893,-4.5682,-4.5586,-4.5586,-4.5586,-4.5586,-4.5605,-4.5817,-4.6317,-4.7028,-4.8105,-4.7952,-4.724,0.0,0.0,0.0,0.0,0.0,0.0,0.0,0.0,0.0,0.0,0.0,0.0,0.0,0.0,0.0,0.0,0.0,0.0,0.0,-0.9946,-0.9919,-0.9815,-0.9862,-1.0333,-1.1275,-1.1049,-1.1937,-1.3995,-1.3804,-1.4157,-1.5018,-1.4468,-1.4259,-1.4323,-1.4289,-1.4257,-1.4253,-1.4616,-1.4707,-1.4608,-1.4746,0.0,0.0,0.0,0.0,0.0,0.0,0.0,0.0,0.0,0.0,0.0,0.0,0.0,-2.0457,-2.1311,-2.2154,-2.2997,-2.3928,-2.5957,-2.7817,-2.7894,-2.854,-2.9844,-3.2346,-3.3519,-3.4535,-3.6099,-3.6458,-3.63,-3.5606,-3.6954,-3.8951,-4.134,0.0,0.0,0.0,0.0,0.0,0.0,0.0,0.0,0.0,0.0,0.0,0.0,0.0,0.0,0.0,0.0,0.0,0.0,0.0,0.0,-4.6817,-4.599,-4.5624,-4.5682,-4.5624,-4.6067,-4.6874,-4.599,-4.6028,-4.6759,-4.5951,-4.5586,-4.5586,-4.5586,-4.5586,-4.5682,-4.649,-4.6836,-4.6817,-4.6124,-4.6778,-4.7932,0.0,0.0,0.0,0.0,0.0,0.0,0.0,0.0,0.0,0.0,0.0,0.0,0.0,0.0,0.0,0.0,0.0,0.0,0.0,-0.9901,-0.9825,-0.975,-0.9757,-1.021,-1.1124,-1.1144,-1.199,-1.3711,-1.4081,-1.4413,-1.467,-1.4263,-1.4241,-1.4524,-1.4203,-1.4246,-1.4587,-1.4695,-1.4726,-1.4727,-1.4813,-1.4859,0.0,0.0,0.0,0.0,0.0,0.0,0.0,0.0,-1.8973,-2.0108,-2.0145,-2.0517,-2.1119,-2.1991,-2.2843,-2.3706,-2.4552,-2.5938,-2.7161,-2.7159,-2.8676,-3.0684,-3.2667,-3.424,-3.5585,-3.6705,-3.8181,-3.9042,-3.8266,0.0,-4.0447,0.0,0.0,0.0,0.0,0.0,0.0,0.0,0.0,0.0,0.0,0.0,0.0,0.0,0.0,0.0,0.0,0.0,0.0,0.0,0.0,-4.6086,-4.6086,-4.5759,-4.5586,-4.5586,-4.5586,-4.5759,-4.6086,-4.574,-4.5778,-4.6067,-4.574,-4.5586,-4.5586,-4.5586,-4.5586,-4.5624,-4.5951,-4.6086,-4.6124,-4.6336,-4.6471,-4.6586,0.0,0.0,0.0,0.0,0.0,0.0,0.0,0.0,0.0,0.0,0.0,0.0,0.0,0.0,0.0,0.0,0.0,0.0,-1.0005,-0.9917,-0.9813,-0.9745,-0.9735,-1.0031,-1.0674,-1.1066,-1.2039,-1.3603,-1.4214,-1.4501,-1.4529,-1.4168,-1.4217,-1.4571,-1.4545,-1.4604,-1.4737,-1.5066,-1.5057,-1.4841,-1.4867,-1.4904,0.0,0.0,0.0,0.0,0.0,0.0,0.0,0.0,-1.8926,-2.0155,-2.047,-2.0775,-2.1243,-2.2393,-2.3349,-2.4171,-2.4667,-2.5957,-2.7127,-2.7093,-2.8926,-3.1371,-3.3809,-3.5316,-3.6684,-3.8331,-4.0086,-4.1032,-4.013,-4.0709,0.0,0.0,0.0,0.0,0.0,0.0,0.0,0.0,0.0,0.0,0.0,0.0,0.0,0.0,0.0,0.0,0.0,0.0,0.0,0.0,0.0,0.0,-4.5586,-4.5586,-4.5586,-4.5586,-4.5586,-4.5586,-4.5586,-4.5586,-4.5586,-4.5586,-4.5586,-4.5586,-4.5586,-4.5586,-4.5586,-4.5586,-4.5586,-4.5586,-4.5663,-4.6278,-4.6297,-4.6086,0.0,0.0,0.0,0.0,0.0,0.0,0.0,0.0,0.0,0.0,0.0,0.0,0.0,0.0,0.0,0.0,0.0,0.0,-1.0001,-1.0,-0.9946,-0.9806,-0.9805,-0.9791,-0.9791,-1.0722,-1.1984,-1.3593,-1.407,-1.4401,-1.4586,-1.419,-1.4105,-1.4344,-1.5423,-1.538,-1.4585,-1.5786,-1.5757,-1.4911,-1.4911,-1.4911,-1.4911,0.0,0.0,0.0,0.0,0.0,0.0,0.0,-1.9381,-2.025,-2.1129,-2.0842,-2.0565,-2.2293,-2.3477,-2.4181,-2.406,-2.6017,-2.8067,-2.7926,-2.9371,-3.1926,-3.6126,-3.7084,-3.8096,-4.1579,-4.2363,-4.2064,-4.0915,-4.1485,0.0,0.0,0.0,0.0,0.0,0.0,0.0,0.0,0.0,0.0,0.0,0.0,0.0,0.0,0.0,0.0,0.0,0.0,0.0,0.0,0.0,0.0,-4.5586,-4.5586,-4.5586,-4.5586,-4.5586,-4.5586,-4.5586,-4.5586,-4.5586,-4.5586,-4.5586,-4.5586,-4.5586,-4.5586,-4.5586,-4.5586,-4.5586,-4.5586,-4.5586,-4.5586,-4.6144,-4.6838,0.0,0.0,0.0,0.0,0.0,0.0,0.0,0.0,0.0,0.0,0.0,0.0,0.0,0.0,0.0,0.0,0.0,0.0,-1.0004,-0.9963,-0.9855,-0.9658,-0.9666,-0.9673,-0.9728,-1.0505,-1.1788,-1.3527,-1.4093,-1.4464,-1.4652,-1.4307,-1.4349,-1.4747,-1.5503,-1.5438,-1.4851,-1.5831,-1.5749,-1.4963,-1.4919,-1.4928,-1.4963,0.0,0.0,0.0,0.0,0.0,0.0,0.0,0.0,0.0,-2.0384,-2.1205,-2.212,-2.2641,-2.3869,-2.5012,-2.4885,-2.5998,-2.7316,-2.7832,-3.0317,-3.3114,-3.4939,-3.628,-3.8119,-4.1466,-4.2789,-4.2962,-4.1816,-4.2385,0.0,0.0,0.0,0.0,0.0,0.0,0.0,0.0,0.0,0.0,0.0,0.0,0.0,0.0,0.0,0.0,0.0,0.0,0.0,0.0,0.0,0.0,-4.5586,-4.5586,-4.5586,-4.5586,-4.5586,-4.5586,-4.5586,-4.5586,-4.5586,-4.5586,-4.5586,-4.5586,-4.5586,-4.5586,-4.5586,-4.5586,-4.5586,-4.5586,-4.5586,-4.5586,-4.5611,-4.5604,0.0,0.0,0.0,0.0,0.0,0.0,0.0,0.0,0.0,0.0,-1.1104,-1.051,0.0,0.0,0.0,0.0,0.0,0.0,0.0,-0.9919,-0.9813,-0.9602,-0.9651,-0.9695,-0.975,-1.0489,-1.1442,-1.2584,-1.3458,-1.4154,-1.4698,-1.446,-1.4577,-1.4968,-1.5649,-1.5555,-1.496,-1.5855,-1.5757,-1.4998,-1.4955,-1.4955,-1.4955,0.0,0.0,0.0,0.0,0.0,0.0,0.0,0.0,0.0,-2.0451,-2.1129,-2.1977,-2.3004,-2.407,-2.4969,-2.5187,-2.6252,-2.7517,-2.8327,-3.096,-3.3829,-3.5696,-3.7725,-3.9895,-4.221,-4.351,-4.388,-4.2758,-4.3021,0.0,0.0,0.0,0.0,0.0,0.0,0.0,0.0,0.0,0.0,0.0,0.0,0.0,0.0,0.0,0.0,0.0,0.0,0.0,0.0,0.0,0.0,-4.5586,-4.5586,-4.5586,-4.5586,-4.5586,-4.5586,-4.5586,-4.5586,-4.5586,-4.5586,-4.5586,-4.5586,-4.5586,-4.5586,-4.5586,-4.5586,-4.5586,-4.5586,-4.5586,-4.5586,-4.5476,-4.5263,0.0,0.0,0.0,0.0,0.0,0.0,0.0,0.0,0.0,0.0,-1.1945,-1.1128,0.0,0.0,0.0,0.0,0.0,0.0,0.0,-0.9897,-0.9806,-0.9609,-0.9721,-0.9798,-0.9799,-1.0501,-1.0978,-1.1185,-1.249,-1.3647,-1.4615,-1.4627,-1.4803,-1.5139,-1.5877,-1.5757,-1.5087,-1.5933,-1.58,-1.5006,-1.4998,-1.4963,-1.4911,-1.4988,0.0,0.0,0.0,0.0,0.0,0.0,0.0,0.0,-2.0916,-2.0843,-2.0905,-2.3291,-2.4127,-2.4456,-2.5126,-2.6677,-2.831,-2.9182,-3.1599,-3.4627,-3.7882,-4.0537,-4.2518,-4.3202,-4.4234,-4.4673,-4.3587,0.0,0.0,0.0,0.0,0.0,0.0,0.0,0.0,0.0,0.0,0.0,0.0,0.0,0.0,0.0,0.0,0.0,0.0,0.0,0.0,0.0,0.0,0.0,-4.5355,-4.5432,-4.547,0.0,-4.5547,-4.5586,-4.5586,-4.5586,-4.5586,-4.5586,-4.5586,-4.5586,-4.5586,-4.5586,-4.5586,-4.5586,-4.5586,-4.5586,-4.5586,-4.5586,-4.5586,-4.5457,0.0,0.0,0.0,0.0,0.0,0.0,0.0,0.0,0.0,0.0,0.0,0.0,0.0,0.0,0.0,0.0,0.0,0.0,0.0,-0.9904,-0.9812,-0.9611,-0.968,-0.9747,-0.9794,-0.9916,-1.0332,-1.1042,-1.2685,-1.3643,-1.3936,-1.4485,-1.5207,-1.6021,-1.6146,-1.6127,-1.6017,-1.6268,-1.5845,-1.5,-1.5003,-1.4987,-1.5039,-1.562,-1.5942,0.0,0.0,0.0,0.0,0.0,0.0,0.0,-2.0211,-2.1178,-2.2343,-2.2844,-2.4012,-2.5177,-2.5265,-2.6626,-2.8367,-2.9865,-3.3801,-3.7851,-3.9958,-4.1453,-4.2186,-4.1536,-4.3312,-4.4665,-4.3536,0.0,0.0,0.0,0.0,0.0,0.0,0.0,0.0,0.0,0.0,0.0,0.0,0.0,0.0,0.0,0.0,0.0,0.0,0.0,0.0,0.0,0.0,-4.4278,-4.3643,-4.4259,-4.4586,0.0,-4.5259,-4.5586,-4.5586,-4.5586,-4.5586,-4.5586,-4.5586,-4.5586,-4.5586,-4.5586,-4.5586,-4.5586,-4.5586,-4.5586,-4.5586,-4.5586,-4.5438,-4.514,0.0,0.0,0.0,0.0,0.0,0.0,0.0,0.0,0.0,0.0,0.0,0.0,0.0,0.0,0.0,0.0,0.0,0.0,0.0,0.0,-0.9759,-0.9646,-0.968,-0.9717,-0.9747,-0.971,-0.9939,-1.0435,-1.2172,-1.3454,-1.4284,-1.5136,-1.602,-1.6903,-1.6456,-1.6276,-1.6268,-1.588,-1.5479,-1.5049,-1.5042,-1.5053,-1.5141,-1.5898,-1.6403,-1.6895,-1.8149,0.0,0.0,0.0,0.0,0.0,0.0,0.0,-2.2258,-2.2642,-2.3708,-2.4856,-2.5233,-2.6314,-2.8038,-3.0999,-3.4807,-3.816,-3.9451,-4.082,-4.1542,-4.0561,-4.2513,-4.406,0.0,0.0,0.0,0.0,0.0,0.0,0.0,0.0,0.0,0.0,0.0,0.0,0.0,0.0,0.0,0.0,0.0,0.0,0.0,0.0,0.0,0.0,-4.3508,-4.3528,-4.3104,-4.3528,-4.3912,-4.4316,-4.4759,-4.5201,-4.5586,-4.5586,-4.5586,-4.5586,-4.5586,-4.5586,-4.5586,-4.5586,-4.5586,-4.5586,-4.5586,-4.5586,-4.5586,-4.5586,-4.5495,-4.5263,0.0,0.0,0.0,0.0,0.0,0.0,0.0,0.0,0.0,0.0,0.0,0.0,0.0,0.0,0.0,0.0,0.0,0.0,0.0,0.0,0.0,-0.9702,-0.9703,-0.9703,-0.971,-0.971,-0.9743,-0.9801,-1.1546,-1.3357,-1.5175,-1.5949,-1.6866,-1.7826,-1.7099,-1.6762,-1.6715,-1.601,-1.5643,-1.5544,-1.5544,-1.5544,-1.5613,-1.6429,-1.7101,-1.7747,-1.855,-1.9314,-1.9919,-1.9919,0.0,0.0,0.0,0.0,-2.1827,-2.2546,-2.3492,-2.4457,-2.5166,-2.6071,-2.7802,-3.2016,-3.4911,-3.6949,-3.7747,-3.9394,-4.0508,-3.9629,-4.1601,0.0,0.0,0.0,0.0,0.0,0.0,0.0,0.0,0.0,0.0,0.0,0.0,0.0,0.0,0.0,0.0,0.0,0.0,0.0,0.0,0.0,-4.17,-4.2412,-4.2585,-4.2643,-4.2643,-4.2797,-4.3201,-4.3874,-4.4028,-4.4528,-4.5355,-4.522,-4.5316,-4.5586,-4.5586,-4.5586,-4.5586,-4.5586,-4.5586,-4.5586,-4.5586,-4.5586,-4.5586,-4.5586,-4.5586,-4.5513,0.0,0.0,0.0,0.0,0.0,0.0,0.0,0.0,0.0,0.0,-1.2603,-1.2265,0.0,0.0,0.0,0.0,0.0,0.0,0.0,0.0,0.0,-0.9702,-0.9703,-0.9703,-0.971,-0.971,-0.9743,-0.9801,-1.1554,-1.3703,-1.6204,-1.6324,-1.7292,-1.889,-1.8712,-1.8648,-1.8633,-1.8518,-1.804,-1.7348,-1.7348,-1.7321,-1.7347,-1.8163,-1.8536,-1.8726,-1.9525,-1.9895,-1.9988,-1.999,-1.9991,0.0,0.0,0.0,-2.2477,-2.2583,-2.3813,-2.5146,-2.5207,-2.6406,-2.8489,-3.2027,-3.3897,-3.5078,-3.5891,-3.7555,-3.8691,0.0,0.0,0.0,0.0,0.0,0.0,0.0,0.0,0.0,0.0,0.0,0.0,0.0,0.0,0.0,0.0,0.0,0.0,0.0,0.0,0.0,0.0,-3.9296,-3.9681,-3.9796,-4.0469,-4.0835,-4.0835,-4.1604,-4.2027,-4.2143,-4.2893,-4.3682,-4.4451,-4.3739,-4.422,-4.5586,-4.5586,-4.5586,-4.5586,-4.5586,-4.5586,-4.5586,-4.5586,-4.5586,-4.5586,-4.5586,-4.5586,-4.555,0.0,0.0,0.0,0.0,0.0,0.0,0.0,0.0,0.0,0.0,0.0,-1.1921,0.0,0.0,0.0,0.0,0.0,0.0,0.0,0.0,0.0,-0.9747,-0.9717,-0.9725,-0.975,-0.9757,-0.9791,-0.9856,-1.161,-1.3334,-1.5048,-1.6996,-1.9098,-2.121,-2.073,-2.0219,-1.9729,-1.9765,-1.8994,-1.7811,-1.8288,-1.8145,-1.7746,-1.8592,-1.8892,-1.9037,-2.0363,-2.0833,-2.0833,-2.0804,-2.0776,-2.07,-2.0212,0.0,0.0,0.0,-2.3887,-2.5235,-2.5166,-2.6422,-2.8096,-2.9562,-3.1135,-3.2545,-3.3382,-3.4674,-3.5586,0.0,0.0,0.0,0.0,0.0,0.0,0.0,0.0,0.0,0.0,0.0,0.0,0.0,0.0,0.0,0.0,0.0,0.0,0.0,0.0,0.0,-3.7969,-3.8354,-3.8796,-3.9277,-3.9642,0.0,-4.0489,-4.0873,-4.1316,-4.1797,-4.22,-4.2816,-4.3605,-4.2758,-4.3547,-4.5566,-4.5066,-4.5143,-4.5586,-4.5586,-4.5586,-4.5586,-4.5586,-4.5586,-4.5586,-4.5586,-4.5586,-4.555,0.0,0.0,0.0,0.0,0.0,0.0,0.0,0.0,0.0,0.0,0.0,0.0,0.0,0.0,0.0,0.0,0.0,0.0,0.0,0.0,0.0,-0.9784,-0.9732,-0.9739,-0.9789,-0.9803,-0.985,-0.9919,-1.1648,-1.321,-1.4637,-1.7684,-2.0468,-2.2921,-2.2559,-2.1857,-2.0995,-2.1274,-2.0512,-1.9188,-2.0018,-1.9825,-1.9104,-2.02,-2.0291,-2.0109,-2.1887,-2.223,-2.1882,-2.2057,-2.1955,-2.1655,-2.0986,-2.1809,0.0,0.0,0.0,-2.5165,-2.5092,-2.6188,-2.7393,-2.7553,-2.893,-3.039,-3.1068,0.0,-3.2754,0.0,0.0,0.0,0.0,0.0,0.0,0.0,0.0,0.0,0.0,0.0,0.0,0.0,0.0,0.0,0.0,0.0,0.0,0.0,0.0,0.0,-3.6988,-3.7026,-3.7526,-3.8604,-3.8642,-3.9027,-3.9854,-4.0065,-4.0623,-4.147,-4.147,-4.1931,-4.2739,-4.1873,-4.2758,-4.4932,-4.4489,-4.4662,-4.5278,-4.5509,-4.5586,-4.5586,-4.5586,-4.5586,-4.5586,-4.5586,-4.5586,-4.5568,0.0,0.0,0.0,0.0,0.0,0.0,0.0,0.0,0.0,0.0,0.0,0.0,-1.1269,-1.0505,-0.9967,-0.9899,-0.9838,-0.9755,-0.971,-0.9635,-0.9654,-0.9791,-0.9732,0.0,-0.9791,-0.9791,-0.9863,-0.9997,-1.1673,-1.3827,-1.6411,-1.8242,-2.0536,-2.312,-2.3913,-2.3743,-2.2911,-2.3731,-2.3573,-2.2784,-2.3538,-2.3311,-2.2711,-2.435,-2.3938,-2.2757,-2.4624,-2.4234,-2.2953,-2.3772,-2.3512,-2.278,-2.263,-2.3189,-2.3927,0.0,0.0,0.0,-2.5022,-2.5677,-2.6578,-2.7388,-2.839,-2.9216,0.0,0.0,0.0,0.0,0.0,0.0,0.0,0.0,0.0,0.0,0.0,0.0,0.0,0.0,0.0,0.0,0.0,0.0,0.0,0.0,0.0,0.0,0.0,0.0,-3.4353,-3.4391,-3.5141,-3.6776,-3.6853,-3.7257,-3.8123,-3.895,-3.9758,-4.0566,-4.0566,-4.1008,-4.1835,-4.0969,-4.1527,-4.3278,-4.3989,-4.4335,-4.4432,-4.5259,-4.5586,-4.5586,-4.5586,-4.5586,-4.5586,-4.5586,-4.5586,-4.5586,0.0,0.0,0.0,0.0,0.0,0.0,0.0,0.0,0.0,0.0,0.0,0.0,0.0,-1.0752,-0.9918,-0.9844,-0.9779,-0.972,-0.971,-0.9673,-0.9714,-0.9849,-0.9805,-0.9806,-0.9869,-0.9906,-1.02,-1.0771,-1.1926,-1.3556,-1.5642,-1.7995,-1.9909,-2.1459,-2.349,-2.3891,-2.3159,-2.4583,-2.402,-2.229,-2.3713,-2.3711,-2.2931,-2.3579,-2.3765,-2.3748,-2.4468,-2.4638,-2.4553,-2.4855,-2.5137,-2.5137,-2.3971,-2.4205,-2.4879,-2.4777,-2.4853,-2.4968,-2.4929,-2.5497,-2.6178,-2.6545,-2.7362,-2.8246,-2.8882,-2.9043,0.0,0.0,0.0,0.0,0.0,0.0,0.0,0.0,0.0,0.0,0.0,0.0,0.0,0.0,0.0,0.0,0.0,0.0,0.0,0.0,0.0,0.0,-3.4122,-3.4199,-3.4968,-3.6661,-3.6699,-3.7123,-3.7988,-3.8315,-3.8604,-3.8892,-3.945,-3.9892,-4.02,-4.0412,-4.0835,-4.147,-4.2335,-4.3008,-4.3585,-4.4412,-4.4759,-4.4816,-4.5374,-4.5586,-4.5586,-4.5586,-4.5586,-4.5586,0.0,0.0,0.0,0.0,0.0,0.0,0.0,0.0,0.0,-1.293,0.0,0.0,0.0,0.0,-0.9844,-0.9777,-0.9759,-0.9766,-0.9773,-0.9759,-0.9811,-0.9931,-0.9863,-0.9856,-0.9941,-0.9984,-1.0404,-1.123,-1.2108,-1.3436,-1.519,-1.7555,-1.9128,-2.0078,-2.2411,-2.3322,-2.3186,-2.4333,-2.3968,-2.2769,-2.4499,-2.4788,-2.4264,-2.5167,-2.5498,-2.5496,0.0,0.0,0.0,-2.5861,-2.6246,-2.6474,-2.5027,-2.4941,-2.534,-2.522,-2.5106,-2.5,-2.4921,-2.5678,-2.6407,-2.6167,-2.6989,-2.7964,-2.8379,0.0,0.0,0.0,0.0,0.0,0.0,0.0,0.0,0.0,0.0,0.0,0.0,0.0,0.0,0.0,0.0,0.0,0.0,0.0,0.0,0.0,0.0,0.0,-3.3295,-3.3353,-3.4122,-3.5815,-3.6142,-3.6699,-3.7565,-3.7565,-3.7719,-3.8007,-3.8584,-3.8854,-3.8873,-3.9411,-3.9815,-4.0123,-4.07,-4.1604,-4.2739,-4.3566,-4.3893,-4.397,-4.4816,-4.5163,-4.5201,-4.549,-4.5586,-4.5586,0.0,0.0,0.0,0.0,0.0,0.0,0.0,0.0,-1.2021,-1.3596,0.0,0.0,0.0,0.0,0.0,-0.978,-0.9906,-0.9975,-0.9968,-0.9974,-1.001,-1.0063,-1.001,-1.0016,-1.0066,-1.0074,-1.0494,-1.1367,-1.2211,-1.3533,-1.5265,-1.697,-1.8242,-1.9168,-2.0811,-2.2072,-2.3026,-2.3077,-2.3603,-2.4529,-2.6126,-2.6727,-2.6986,-2.9455,-2.934,0.0,-2.8878,-2.8119,0.0,-2.6773,0.0,0.0,-2.5915,-2.5531,-2.536,-2.5271,-2.5248,-2.521,0.0,0.0,0.0,-2.6392,0.0,0.0,-2.7772,0.0,0.0,0.0,0.0,0.0,0.0,0.0,0.0,0.0,0.0,0.0,0.0,0.0,0.0,0.0,0.0,0.0,0.0,0.0,0.0,0.0,0.0,-3.0737,-3.1621,-3.1718,-3.2487,-3.4103,-3.5007,-3.5853,-3.6622,-3.6661,-3.7084,-3.793,-3.795,-3.7969,-3.7969,-3.7988,-3.845,-3.9258,-3.9277,-4.0219,-4.1797,-4.2701,-4.3066,-4.3143,-4.397,-4.4297,-4.4412,-4.5278,-4.5586,-4.5586,0.0,0.0,0.0,0.0,0.0,-1.1836,-1.2123,-1.2674,-1.3252,0.0,0.0,0.0,-1.358,-1.2425,-1.1626,-1.165,-1.1724,-1.1775,-1.1775,-1.1781,-1.18,-1.1818,-1.1836,-1.1836,-1.1805,-1.1862,-1.2274,-1.3112,-1.3391,-1.4405,-1.6074,-1.6611,-1.7638,-1.9053,-1.9568,-2.027,-2.1158,-2.2459,-2.3528,-2.4413,-2.5494,-2.6298,-2.6915,-2.7575,0.0,0.0,0.0,-2.6571,-2.6701,0.0,-2.7937,-2.9517,-2.9312,-2.8299,-2.7036,-2.6339,-2.6523,-2.6797,-2.6155,0.0,0.0,0.0,0.0,0.0,0.0,0.0,0.0,0.0,0.0,0.0,0.0,0.0,0.0,0.0,0.0,0.0,0.0,0.0,0.0,0.0,0.0,0.0,0.0,0.0,0.0,0.0,-2.9083,-2.989,-3.0717,-3.191,-3.2776,-3.3237,-3.4103,-3.4661,-3.4891,-3.5526,-3.5949,-3.6199,-3.6776,-3.7065,-3.7084,-3.7719,-3.8123,-3.8392,-3.9027,-3.9565,-4.0104,-4.1566,-4.2162,-4.2297,-4.3739,-4.4297,-4.4412,-4.5278,-4.5586,-4.5586,0.0,0.0,0.0,0.0,0.0,-1.2623,-1.3023,-1.3507,-1.3959,0.0,0.0,0.0,-1.3104,-1.2968,-1.279,-1.2425,-1.249,-1.254,-1.2535,-1.2229,-1.2049,-1.2036,-1.1732,-1.1713,-1.2036,-1.2085,-1.267,-1.3831,-1.3904,-1.4791,-1.6445,-1.6854,-1.7747,-1.9027,-1.9412,-1.9856,-2.0371,-2.1424,-2.2809,-2.4366,-2.5627,-2.6866,0.0,-2.7869,-2.7822,0.0,0.0,0.0,-2.7533,-2.6429,-2.735,0.0,0.0,-2.9415,-2.7833,-2.7248,-2.7149,-2.7185,-2.7022,-2.7513,-2.8187,-2.8597,0.0,0.0,-2.9158,-2.8871,0.0,0.0,0.0,0.0,0.0,0.0,0.0,0.0,0.0,0.0,0.0,0.0,0.0,0.0,0.0,0.0,0.0,0.0,0.0,0.0,-2.8602,-2.9594,-3.041,-3.2025,-3.2776,-3.241,-3.3218,-3.3833,-3.4199,-3.4699,-3.5141,-3.5526,-3.5988,-3.6199,-3.6219,-3.6738,-3.7142,-3.7488,-3.7988,-3.8411,-3.8854,-4.02,-4.095,-4.1431,-4.3124,-4.3797,-4.3951,-4.5143,-4.5586,-4.5586,0.0,0.0,-1.2787,-1.2782,-1.282,-1.3129,-1.3912,-1.408,-1.4363,0.0,-1.4417,-1.36,-1.27,-1.3408,-1.3596,-1.2782,-1.2825,-1.2897,-1.2886,-1.2218,-1.182,-1.182,-1.1,-1.0923,-1.1801,-1.1734,-1.244,-1.4038,-1.4106,-1.497,-1.6535,-1.7308,-1.8159,-1.9032,-1.9807,-2.0215,-2.0319,-2.0508,-2.1988,-2.4347,-2.5948,-2.7635,0.0,0.0,-2.8931,-2.8652,-2.7031,-2.7409,-2.8382,-2.6535,-2.6211,0.0,0.0,0.0,0.0,-2.807,-2.7604,-2.7245,-2.7804,-2.7867,-2.7956,-2.8685,0.0,0.0,-2.9532,-2.9082,0.0,0.0,0.0,0.0,0.0,0.0,0.0,0.0,0.0,0.0,0.0,0.0,0.0,0.0,0.0,0.0,0.0,0.0,-2.7649,-2.6948,-2.8396,-2.9659,-3.0463,-3.1915,-3.2365,-3.1583,-3.2333,-3.3179,-3.4045,-3.4141,-3.4641,-3.5493,-3.5493,-3.5493,-3.5493,-3.5493,-3.5892,-3.6584,-3.6661,-3.7142,-3.793,-3.8892,-3.9719,-4.0527,-4.2277,-4.297,-4.3143,-4.4739,-4.5316,-4.5316,0.0,-1.4551,-1.4513,-1.4506,-1.4523,-1.4615,-1.482,-1.4878,-1.4929,-1.5076,-1.4907,-1.4696,-1.4482,-1.4656,-1.4749,-1.4667,-1.4689,-1.4693,-1.4687,-1.4544,-1.4467,-1.4459,-1.3618,-1.358,-1.4434,-1.3772,-1.3927,-1.4955,-1.5004,-1.5574,-1.6575,-1.6749,-1.7642,-1.9085,-1.9207,-1.9643,-2.0383,-2.1791,-2.309,-2.4225,-2.4531,-2.5974,-2.7892,-2.734,-2.6685,-2.6028,-2.5688,-2.5764,-2.642,-2.8837,-2.8286,-2.7307,0.0,0.0,0.0,-2.8973,0.0,-2.964,-2.9077,-2.9245,-2.9637,0.0,0.0,0.0,-2.8988,-2.9139,-2.9045,0.0,0.0,0.0,0.0,0.0,0.0,0.0,0.0,0.0,0.0,0.0,0.0,0.0,0.0,0.0,0.0,0.0,-2.6385,-2.6861,-2.8442,-2.9706,-3.0458,-3.0807,-3.0891,-3.066,-3.1487,-3.2333,-3.3141,-3.3853,-3.4641,-3.5493,-3.5493,-3.5493,-3.5493,-3.5493,-3.5603,-3.5776,-3.643,-3.6796,-3.7084,-3.8642,-3.9392,-3.97,-4.1393,-4.2047,-4.2181,-4.3201,-4.3585,-4.3585,-1.5152,-1.5105,-1.5064,-1.5099,-1.5101,-1.5108,-1.5146,-1.5152,-1.528,-1.5642,-1.5674,-1.5495,-1.5094,-1.5498,-1.5655,-1.5284,-1.6405,-1.6611,-1.5333,-1.5629,-1.5489,-1.4631,-1.3778,-1.3716,-1.4582,-1.4179,-1.4372,-1.526,-1.5274,-1.5961,-1.7244,-1.721,-1.8103,-1.9748,-1.969,-2.0366,-2.1622,-2.1969,-2.3487,-2.5671,-2.5403,0.0,-2.7559,-2.668,-2.614,-2.5783,-2.532,-2.5214,-2.5832,-2.9394,-2.911,0.0,0.0,-3.0952,-2.9893,0.0,-2.986,-2.9882,0.0,0.0,0.0,-2.9489,0.0,0.0,0.0,-2.8764,-2.8763,0.0,0.0,0.0,0.0,0.0,0.0,0.0,0.0,0.0,0.0,0.0,0.0,0.0,0.0,0.0,0.0,0.0,-2.6016,-2.6875,-2.7726,-2.87,-2.9842,-2.9902,-3.0052,-3.0379,-3.0833,-3.1448,-3.2295,-3.2737,-3.3583,-3.4853,-3.4853,-3.5084,-3.5493,-3.5493,-3.5493,-3.5512,-3.593,-3.6103,-3.6199,-3.7488,-3.8257,-3.8854,-4.0989,-4.1797,-4.1912,-4.2777,-4.3104,-4.3162,-1.5209,-1.5153,-1.5121,-1.5183,-1.5199,-1.521,-1.5209,-1.5188,-1.5401,-1.6014,-1.6376,-1.6321,-1.5689,-1.6639,-1.6984,-1.611,-1.823,-1.8605,-1.6203,-1.6653,-1.642,-1.5059,-1.3833,-1.3608,-1.4477,-1.417,-1.4454,-1.5311,-1.5311,-1.6208,-1.7902,-1.7844,-1.8739,-2.0405,-2.0514,-2.1404,-2.2799,-2.2268,-2.3854,-2.6718,0.0,-2.7047,-2.7958,-2.6641,-2.6362,-2.6591,-2.5655,-2.5412,-2.6063,-2.9379,-2.9234,-2.801,-3.0111,-3.0546,0.0,0.0,0.0,0.0,0.0,0.0,0.0,0.0,0.0,-2.8376,0.0,0.0,0.0,0.0,0.0,0.0,0.0,0.0,0.0,0.0,0.0,0.0,0.0,0.0,0.0,0.0,0.0,0.0,0.0,0.0,-2.6172,-2.6934,-2.7297,-2.8005,-2.9238,-2.9458,-2.9809,-3.0379,-3.0398,-3.0833,-3.1698,-3.1698,-3.2545,-3.4199,-3.4199,-3.4661,-3.5493,-3.5493,-3.5493,-3.5493,-3.5493,-3.5493,-3.5565,-3.6372,-3.7123,-3.7988,-4.0373,-4.1412,-4.1623,-4.2335,-4.2604,-4.2681,-1.5196,-1.5151,-1.5127,-1.5185,-1.519,-1.5204,-1.5199,-1.5151,-1.5165,-1.5306,-1.6624,-1.7534,-1.7493,-1.8973,-1.9617,-1.874,-2.041,-2.0702,-1.8878,-1.8849,-1.881,-1.8615,-1.6285,-1.5403,-1.6293,-1.4847,-1.452,-1.5391,-1.5391,-1.6258,-1.7902,-1.7883,-1.8799,-2.0423,-2.1204,-2.1921,-2.2637,-2.4062,-2.4823,0.0,-2.5597,-2.7304,0.0,-2.7058,-2.6871,-2.7704,-2.6757,-2.6437,-2.6862,0.0,-2.8827,-2.7324,0.0,-3.0687,-2.9574,-3.0278,0.0,0.0,0.0,0.0,0.0,0.0,-2.8912,0.0,0.0,0.0,0.0,0.0,0.0,0.0,0.0,0.0,0.0,0.0,0.0,0.0,0.0,0.0,0.0,0.0,0.0,0.0,0.0,0.0,0.0,-2.6992,-2.8379,-2.9235,-2.9304,-2.9989,-3.0359,-3.0398,-3.0398,-3.0833,-3.1698,-3.1698,-3.2545,-3.4199,-3.4199,-3.4661,-3.5493,-3.5493,-3.5493,-3.5493,-3.5493,-3.5493,-3.5565,-3.6372,-3.6757,-3.7026,-3.8873,-4.0008,-4.0662,-4.0758,-4.0796,-4.0796,-1.5206,-1.5182,-1.5158,-1.5204,-1.5628,-1.5765,-1.5229,-1.5931,-1.6574,-1.6631,-1.7702,-1.8847,-1.9894,-2.068,-2.1191,-2.1306,0.0,-2.3001,0.0,0.0,-2.0854,-2.1338,-1.8425,-1.7438,-1.8775,-1.7168,-1.648,-1.6846,-1.6846,-1.7462,-1.8651,-1.8643,-1.9289,-2.0424,-2.1159,-2.2213,-2.3554,0.0,-2.5808,0.0,0.0,0.0,0.0,-2.6338,-2.5489,-2.6124,-2.5927,-2.5851,-2.6015,0.0,-2.7426,0.0,0.0,0.0,0.0,0.0,0.0,0.0,0.0,0.0,0.0,0.0,0.0,0.0,-2.8308,0.0,-2.7848,0.0,0.0,0.0,0.0,0.0,0.0,0.0,0.0,0.0,0.0,0.0,0.0,0.0,0.0,0.0,0.0,0.0,0.0,0.0,0.0,-2.7279,-2.7663,-2.8546,-2.9014,-2.8948,-2.989,-3.0333,-3.0179,-3.0698,-3.1545,-3.2756,-3.3218,-3.3891,-3.4757,-3.5276,-3.5493,-3.5493,-3.5493,-3.5493,-3.5545,-3.5872,-3.6276,-3.6776,-3.7507,-3.8623,-3.9854,-4.0315,-4.0489,-4.0566,-1.5275,-1.521,-1.5278,-1.5504,-1.606,-1.6311,-1.5866,-1.7038,-1.8087,-1.8357,-1.935,-2.0799,-2.2766,-2.3456,0.0,-2.4233,-2.5661,-2.5447,0.0,0.0,-2.2666,-2.3236,-2.0702,-1.9761,-2.074,-1.9329,-1.8488,-1.8264,-1.8039,-1.8358,-1.92,-1.9208,-1.9778,-2.0803,-2.1483,-2.2772,-2.4471,0.0,-2.6391,-2.8219,-2.8651,-2.8935,-2.886,-2.65,-2.5767,-2.6002,-2.6239,-2.6197,-2.6082,-2.6533,-2.7228,0.0,-2.8463,0.0,0.0,0.0,0.0,0.0,-3.1574,0.0,0.0,0.0,0.0,0.0,0.0,0.0,0.0,0.0,0.0,0.0,0.0,0.0,-2.5282,-2.5282,0.0,0.0,0.0,0.0,0.0,0.0,0.0,0.0,0.0,0.0,0.0,0.0,-2.557,0.0,-2.6465,-2.7405,-2.8011,-2.8217,-2.941,-2.9852,-2.9467,-3.0083,-3.0852,-3.1718,-3.2526,-3.3237,-3.3872,-3.4988,-3.5372,-3.5161,-3.5411,-3.5493,-3.5493,-3.5493,-3.5853,-3.6392,-3.6622,-3.7623,-3.9027,-3.9873,-4.0296,-4.0585,-1.5466,-1.5241,-1.5466,-1.6309,-1.6439,-1.6666,-1.742,-1.8337,0.0,0.0,0.0,0.0,0.0,0.0,0.0,0.0,0.0,-2.8109,-2.5535,0.0,-2.4207,-2.4151,-2.3302,-2.2461,0.0,-2.0786,-1.994,-1.9158,-1.8379,-1.8415,-1.9198,-1.9208,-2.0111,-2.1794,-2.2667,-2.3807,-2.5127,-2.5997,-2.6256,-2.611,-2.6114,-2.6129,-2.6351,0.0,-2.9061,-2.8956,-2.8967,0.0,0.0,-2.9698,-2.9198,0.0,0.0,0.0,0.0,0.0,0.0,0.0,0.0,0.0,0.0,-3.0234,0.0,0.0,0.0,0.0,-2.8744,0.0,0.0,0.0,0.0,-2.5703,-2.4498,-2.4449,-2.4482,0.0,0.0,0.0,0.0,0.0,0.0,0.0,0.0,0.0,0.0,0.0,-2.592,0.0,-2.6498,-2.7261,-2.8138,-2.9025,-2.9102,-2.9525,-3.034,-3.0379,-3.0852,-3.1718,-3.2526,-3.291,-3.3006,-3.4718,-3.5045,-3.4276,-3.5141,-3.5493,-3.5493,-3.5493,-3.5526,-3.5622,-3.6411,-3.7257,-3.8142,-3.9008,-3.9815,-4.0489,-1.7066,-1.6903,-1.6648,-1.5796,-1.6548,0.0,0.0,-1.974,0.0,0.0,0.0,0.0,0.0,-3.0051,-3.019,0.0,0.0,-2.9177,-2.7228,-2.635,0.0,-2.6638,-2.5374,-2.4773,0.0,0.0,-2.3096,-2.3306,-2.1425,-2.0907,-2.1641,-2.115,-2.1234,-2.1854,-2.3125,-2.4001,0.0,0.0,0.0,0.0,0.0,-2.8713,-3.0576,0.0,0.0,-2.8109,-2.8261,-2.8121,0.0,-2.8544,-2.8717,-2.8797,-2.939,-3.038,-3.1326,-3.1331,-3.1753,0.0,0.0,0.0,-3.0808,-3.0501,0.0,0.0,0.0,0.0,0.0,0.0,0.0,0.0,0.0,-2.6324,-2.5363,-2.4703,-2.458,-2.4547,0.0,0.0,0.0,0.0,0.0,0.0,0.0,0.0,0.0,-2.5058,-2.5242,-2.5394,0.0,-2.6338,-2.6765,-2.6601,-2.7698,-2.8448,-2.8736,-2.9275,-2.9987,-3.0852,-3.1698,-3.2372,-3.2949,-3.4103,-3.4795,-3.5084,-3.5372,-3.5493,-3.5493,-3.5493,-3.5493,-3.5532,-3.5815,-3.6757,-3.8104,-3.8969,-3.9796,-4.0489,-1.8379,-1.8225,-1.7904,-1.6758,0.0,0.0,0.0,0.0,0.0,0.0,-2.6195,0.0,-3.2144,0.0,-3.1896,0.0,-3.1352,-3.014,-2.8429,-2.7594,0.0,-2.7439,-2.6753,0.0,0.0,0.0,-2.5201,-2.5357,-2.354,-2.2889,-2.332,-2.2592,-2.2425,-2.277,-2.3711,-2.4524,-2.5203,-2.5815,-2.6505,0.0,0.0,-3.0226,0.0,0.0,-2.9083,-2.9036,0.0,-2.814,-2.7928,-2.8217,-2.8467,-2.8717,-2.9006,-3.0114,-3.1234,-3.0926,-3.1482,-3.2066,-3.1467,-3.1322,0.0,-3.0552,-3.0435,0.0,-2.9706,0.0,0.0,0.0,0.0,0.0,0.0,-2.6955,-2.5956,-2.5328,-2.4922,-2.466,0.0,-2.4631,0.0,0.0,0.0,0.0,0.0,0.0,-2.472,-2.4829,-2.476,-2.4823,0.0,0.0,-2.5826,-2.5764,-2.7159,-2.8044,-2.8313,-2.914,-2.9833,-3.0398,-3.1275,-3.1968,-3.2506,-3.366,-3.4507,-3.5045,-3.5372,-3.5493,-3.5493,-3.5493,-3.5493,-3.5493,-3.5493,-3.6526,-3.8065,-3.8623,-3.9527,-4.0489,-1.9326,-1.9155,0.0,0.0,-2.1094,0.0,0.0,0.0,-2.7171,0.0,-2.9858,-3.1332,-3.3928,-3.4206,-3.3833,-3.291,-3.2141,-3.0968,-2.9198,-2.8483,0.0,0.0,-2.7537,-2.7237,-2.5502,0.0,0.0,-2.5479,-2.4661,-2.4264,-2.4216,-2.3496,-2.3608,-2.4394,-2.4452,-2.5363,-2.6839,-2.5949,-2.6524,-2.8182,-2.9753,-3.0459,-3.0661,-3.1421,0.0,-3.1581,-2.9804,-2.8659,-2.8121,-2.8852,-2.8621,-2.814,-2.8832,-2.9679,-3.0237,-2.9352,-2.9717,-3.0398,-3.0398,-3.0453,-3.0477,-3.0417,0.0,0.0,0.0,0.0,-3.053,0.0,0.0,0.0,0.0,0.0,-2.6343,-2.6231,-2.5413,-2.4779,-2.4714,0.0,0.0,0.0,0.0,0.0,0.0,-2.4615,-2.465,-2.4512,-2.4564,-2.4707,0.0,0.0,0.0,-2.6542,-2.7409,-2.8236,-2.9083,-2.9929,-3.0359,-3.0398,-3.1237,-3.1679,-3.1814,-3.3372,-3.4141,-3.4314,-3.5084,-3.5468,-3.5493,-3.5493,-3.5512,-3.5565,-3.5526,-3.6526,-3.8007,-3.8084,-3.9123,-4.0489,-2.0162,-2.0038,-2.0069,0.0,-2.1565,-2.2587,0.0,0.0,0.0,0.0,-2.9842,-3.0781,-3.3925,-3.4218,-3.3603,-3.2141,-3.1814,0.0,0.0,0.0,0.0,-2.6697,-2.8018,-2.8018,-2.6333,-2.7218,-2.7857,-2.8121,-2.6239,-2.5564,-2.5994,-2.4687,-2.4188,-2.4425,-2.5078,-2.5949,-2.6887,-2.664,-2.7445,-2.8868,-2.8656,-2.9736,0.0,0.0,-3.1187,-3.1658,-3.0479,-2.9929,-2.9698,-2.9256,-2.939,-2.9583,-2.8544,-2.9217,-3.0237,-2.9352,-2.9717,-3.0398,-3.0398,-3.0406,-3.0428,-3.0479,-3.1022,-3.1406,0.0,0.0,0.0,0.0,0.0,0.0,0.0,0.0,0.0,-2.6563,-2.5583,-2.4912,-2.4791,0.0,0.0,0.0,0.0,0.0,0.0,-2.4532,-2.4532,-2.4495,-2.4532,-2.4596,0.0,0.0,0.0,-2.6412,-2.6771,-2.7621,-2.9083,-2.9313,-2.9756,-3.0398,-3.0641,-3.1391,-3.2583,-3.2429,-3.3372,-3.5141,-3.4718,-3.4911,-3.5493,-3.5493,-3.5853,-3.6334,-3.5738,-3.6526,-3.8142,-3.9392,-4.0123,-4.0489,-2.1656,0.0,0.0,-2.0963,0.0,0.0,-2.3902,0.0,0.0,-3.1872,-3.1757,0.0,-3.4079,-3.3903,-3.3103,-3.1814,-3.1698,0.0,-2.9198,0.0,0.0,-2.6697,-2.7505,-2.739,-2.6063,-2.6938,0.0,-2.8525,0.0,-2.691,-2.7248,-2.6073,-2.5338,-2.4998,-2.5488,-2.6376,-2.7534,-2.7811,-2.8665,-2.9771,-2.9259,0.0,0.0,-3.1217,-3.1081,-3.112,-3.059,-3.016,-2.9698,-2.8852,-2.889,-2.9083,-2.7755,-2.8486,-2.9679,-2.8813,-2.9448,-3.0398,-3.0448,-3.0448,-3.0467,-3.0525,-3.0965,-3.1261,-3.0795,-3.1155,-3.1436,0.0,0.0,0.0,0.0,0.0,0.0,-2.667,-2.5657,-2.4834,0.0,0.0,0.0,0.0,0.0,0.0,0.0,-2.458,-2.4416,-2.4011,-2.4292,-2.4444,0.0,0.0,0.0,-2.5761,-2.696,-2.7814,-2.8261,-2.9582,-3.0251,-3.0267,-3.0355,-3.1102,-3.2352,-3.191,-3.2891,-3.4911,-3.441,-3.4699,-3.5493,-3.5493,-3.5776,-3.6199,-3.6488,-3.718,-3.82,-3.9873,-4.0489,-4.0489,-2.327,0.0,0.0,0.0,0.0,0.0,0.0,-3.0239,0.0,-3.4051,0.0,-3.3961,-3.4106,-3.3294,-3.2429,-3.1602,0.0,-3.0833,-2.9198,-2.9102,-2.8352,-2.6697,-2.6621,-2.6217,-2.5322,-2.6128,-2.7014,0.0,-2.8023,-2.808,-2.8176,-2.7372,-2.652,-2.5705,-2.5827,-2.6763,0.0,-2.9012,-2.973,-3.0409,-3.0334,-3.0843,-3.1609,-3.1609,-3.112,-3.0398,-3.0398,-2.991,-2.914,-2.8332,-2.8121,-2.8063,-2.7082,-2.7909,-2.9102,-2.8294,-2.9179,-3.0398,-3.0487,-3.0506,-3.0525,-3.0583,-3.066,-3.0702,-3.0721,-3.0813,-3.0898,-3.0898,-3.0117,0.0,0.0,0.0,0.0,-2.6842,0.0,0.0,0.0,0.0,0.0,0.0,0.0,0.0,0.0,0.0,-2.4308,-2.3377,-2.4048,-2.4267,0.0,0.0,0.0,0.0,-2.751,0.0,-2.7913,0.0,-3.1175,-3.0461,-3.0426,-3.091,-3.1852,-3.1641,-3.2506,-3.418,-3.4083,-3.4526,-3.5353,-3.5449,-3.5493,-3.568,-3.7469,-3.8104,-3.82,-3.9873,-4.0489,-4.0489,-2.3945,0.0,0.0,0.0,0.0,-2.8999,-3.0574,-3.0319,-3.0971,-3.3912,-3.3079,-3.2488,-3.3153,-3.2428,-3.1564,-3.0698,-3.0641,0.0,0.0,0.0,0.0,-2.6745,-2.6687,-2.6264,-2.5409,-2.6284,-2.7509,0.0,0.0,-2.8508,-2.912,-2.7676,-2.6529,-2.5737,-2.6457,-2.7311,-2.8262,-2.8984,0.0,-2.944,-2.9371,-2.9869,-3.0648,-3.0648,-3.0529,-3.0398,-3.0398,-3.0302,-3.0044,-2.9179,-2.9371,-2.9698,-2.8159,-2.8813,-3.0006,-2.914,-2.9602,-3.0398,-3.0487,-3.0506,-3.0525,-3.0641,-3.0679,-3.0733,-3.0837,-3.0875,-3.0898,-3.0898,-2.9629,-2.8789,-2.9646,0.0,0.0,0.0,0.0,0.0,0.0,0.0,0.0,0.0,0.0,0.0,0.0,0.0,0.0,0.0,0.0,0.0,0.0,0.0,0.0,0.0,0.0,0.0,0.0,0.0,0.0,-3.2391,-3.1052,-3.1198,-3.2641,-3.1256,-3.1929,-3.416,-3.343,-3.3622,-3.4468,-3.5199,-3.5493,-3.5738,-3.8142,-3.8623,-3.82,-3.9873,-4.0489,-4.0489,0.0,0.0,0.0,0.0,0.0,0.0,0.0,-3.2077,0.0,-3.4036,-3.3157,-3.2366,-3.2324,-3.1537,-3.0871,-3.0436,-3.0398,-2.986,-2.861,-2.8533,-2.8005,-2.6804,-2.6318,0.0,-2.6137,-2.609,-2.7142,-2.9351,0.0,-2.9238,-3.0105,-2.9332,-2.8281,-2.7071,-2.7458,-2.832,0.0,0.0,0.0,-2.9834,-2.9312,-2.9621,-3.0398,-3.0398,-3.0398,-3.0398,-3.0398,-3.0398,-3.0275,-2.939,-2.9371,-2.9506,-2.8294,-2.8736,-2.964,-2.9217,-2.9717,-3.0398,-3.0487,-3.0539,-3.0591,-3.0691,-3.0748,-3.0823,-3.0896,-3.0898,-3.0898,-3.0898,-2.9512,-2.8418,-2.8809,-2.8856,0.0,0.0,0.0,0.0,0.0,0.0,0.0,0.0,0.0,0.0,0.0,0.0,0.0,0.0,0.0,0.0,0.0,0.0,0.0,0.0,0.0,0.0,0.0,0.0,0.0,-3.1234,-3.067,-3.1064,-3.2256,-3.1448,-3.2218,-3.418,-3.3757,-3.4064,-3.4911,-3.5334,-3.5493,-3.5661,-3.7315,-3.7969,-3.8104,-3.8911,-3.9488,-3.9931,0.0,-2.6643,0.0,0.0,-2.9447,0.0,-3.3176,-3.3903,-3.4199,-3.4212,-3.343,-3.2583,-3.1795,-3.0929,-3.0321,-3.014,-3.0314,-2.9648,-2.7849,-2.7922,-2.7653,-2.6853,-2.6156,-2.6218,-2.7071,-2.619,-2.6919,0.0,0.0,-2.9719,-3.0513,-3.0716,-2.999,0.0,0.0,0.0,0.0,0.0,-2.9183,-3.0143,-2.9599,-2.9794,-3.0398,-3.0398,-3.0398,-3.0398,-3.0398,-3.0398,-3.0314,-2.9602,-2.9371,-2.9275,-2.8621,-2.8871,-2.9371,-2.9371,-2.9871,-3.0417,-3.0506,-3.0569,-3.0619,-3.0718,-3.082,-3.0898,-3.0898,-3.0898,-3.0898,-3.0898,-2.9512,-2.8281,-2.8223,-2.8613,0.0,0.0,0.0,0.0,0.0,0.0,0.0,0.0,0.0,0.0,0.0,0.0,0.0,0.0,0.0,-2.4388,-2.3639,-2.4161,0.0,0.0,0.0,-2.8282,-2.8708,0.0,-3.0858,0.0,-3.0592,-3.1141,-3.1968,-3.1968,-3.2776,-3.4199,-3.4199,-3.4699,-3.5493,-3.5493,-3.5603,-3.5853,-3.6661,-3.7411,-3.8027,-3.82,-3.8584,-3.9142,0.0,0.0,0.0,0.0,0.0,0.0,0.0,-3.4616,-3.4199,-3.4212,-3.343,-3.2583,-3.1795,-3.0929,-3.0083,-2.9294,-3.0006,-2.9437,-2.6984,-2.7613,-2.7721,-2.694,-2.6815,-2.7181,-2.8046,-2.7156,-2.7543,0.0,0.0,-2.9373,-2.9547,-3.0404,-3.0284,0.0,0.0,0.0,0.0,-2.9998,-2.9863,-2.9278,-2.9987,-3.0321,-3.0398,-3.0398,-3.0398,-3.0398,-3.0398,-3.0398,-3.0379,-3.0314,-3.0294,-3.0275,-3.0198,-3.0217,-3.0294,-3.0294,-3.034,-3.0417,-3.0564,-3.0606,-3.0656,-3.0827,-3.0898,-3.0898,-3.0898,-3.0898,-3.0898,-3.0898,-2.9512,-2.8301,-2.8281,-2.7656,-2.7375,0.0,0.0,0.0,0.0,0.0,0.0,0.0,0.0,0.0,0.0,0.0,0.0,0.0,0.0,-2.4388,-2.3639,-2.4161,-2.4883,-2.5699,0.0,-2.7577,-3.0711,-2.9635,0.0,-3.2603,-3.1917,-3.2006,-3.2795,-3.2795,-3.3295,-3.4199,-3.4199,-3.4699,-3.5493,-3.5493,-3.593,-3.668,-3.7546,-3.793,-3.8104,-3.8892,-3.8719,-3.8257,0.0,0.0,0.0,0.0,0.0,0.0,0.0,-3.4743,-3.4052,-3.3596,-3.2737,-3.1852,-3.1006,-3.0609,-3.0294,-2.9967,-3.0275,-2.9898,-2.8483,-2.8231,-2.8268,-2.8513,-2.7519,-2.761,-2.9004,-2.812,-2.8452,0.0,0.0,0.0,0.0,0.0,0.0,0.0,0.0,-3.015,-3.0703,-2.996,-2.9745,-2.991,-3.0275,-3.0398,-3.0398,-3.0398,-3.0398,-3.0398,-3.0398,-3.0398,-3.0398,-3.0398,-3.0398,-3.0398,-3.0398,-3.0398,-3.0398,-3.0398,-3.0398,-3.0417,-3.0506,-3.0568,-3.0637,-3.0761,-3.0837,-3.0898,-3.0898,-3.0898,-3.0898,-3.0898,-2.9922,-2.8926,-2.8398,-2.7988,-2.7982,0.0,0.0,0.0,0.0,0.0,0.0,0.0,0.0,-2.6489,0.0,0.0,0.0,0.0,0.0,0.0,-2.4223,-2.4989,-2.5844,-2.6695,0.0,-2.8423,-3.0371,-2.9817,-3.0309,-3.1891,-3.1764,-3.2391,-3.368,-3.368,-3.416,-3.4988,-3.4988,-3.518,-3.5493,-3.5493,-3.5699,-3.6065,-3.6911,-3.7219,-3.7257,-3.7603,-3.7526,-3.7276,-3.6211,0.0,-3.3653,0.0,-3.4289,-3.4051,-3.4995,-3.4384,-3.3449,-3.2442,-3.1518,-3.0794,-3.0436,-3.0398,-3.0333,-3.0121,-3.0372,-3.0016,-2.8813,-2.8666,-2.8785,-2.9199,-2.8281,0.0,-2.9941,-2.9038,-2.9137,-3.0327,-3.1149,0.0,0.0,0.0,0.0,0.0,-3.0414,-3.0486,-3.1299,-3.0017,-2.9833,-3.0398,-3.0398,-3.0398,-3.0398,-3.0398,-3.0398,-3.0398,-3.0398,-3.0398,-3.0398,-3.0398,-3.0398,-3.0398,-3.0398,-3.0398,-3.0398,-3.0398,-3.0398,-3.0448,-3.0506,-3.0579,-3.0653,-3.0746,-3.0821,-3.0898,-3.0898,-3.0898,-3.0898,-3.0898,-3.0215,-2.9414,-2.8809,-2.8262,-2.8141,-2.8856,0.0,0.0,0.0,0.0,0.0,0.0,-2.6529,-2.6129,-2.5264,0.0,0.0,0.0,0.0,0.0,-2.4692,-2.5286,0.0,0.0,0.0,0.0,0.0,-2.9547,-3.0141,-3.135,-3.1828,-3.2814,-3.4199,-3.4468,-3.493,-3.5493,-3.5493,-3.5493,-3.5493,-3.5493,-3.5641,-3.5911,-3.6488,-3.6699,-3.6699,-3.6699,-3.6546,-3.643,-3.818,-3.7533,-3.6842,-3.6848,-3.6085,-3.5206,-3.4419,-3.3519,-3.2314,-3.0648,-2.9679,-2.9467,-3.0302,-3.0398,-3.0083,-2.9286,-3.0056,-2.9569,-2.7085,-2.8599,-2.9199,0.0,0.0,-2.998,-3.0879,-2.9909,-2.9407,-2.9427,0.0,0.0,-2.9284,0.0,-3.142,-3.0556,-3.14,-3.1263,-3.0417,-3.0379,-3.0379,-3.0398,-3.0398,-3.0398,-3.0398,-3.0398,-3.0398,-3.0398,-3.0398,-3.0398,-3.0398,-3.0398,-3.0398,-3.0398,-3.0398,-3.0398,-3.0398,-3.0398,-3.0448,-3.0506,-3.0583,-3.0641,-3.0723,-3.0864,-3.0898,-3.0898,-3.0898,-3.0898,-3.0898,-3.0898,-3.0215,-2.9609,-2.959,-2.8184,-2.7285,-2.8086,0.0,0.0,0.0,0.0,0.0,0.0,-2.6485,-2.6065,-2.5189,0.0,0.0,0.0,0.0,0.0,0.0,0.0,0.0,-2.5789,-2.556,0.0,-2.8501,-2.8449,-2.9509,-3.1698,-3.2506,-3.3353,-3.4218,-3.5084,-3.5474,-3.5493,-3.5493,-3.5493,-3.5493,-3.5493,-3.5968,-3.6699,-3.6699,-3.6699,-3.6699,-3.6699,-3.6199,-3.5757,-3.8152,-3.7558,-3.6863,-3.679,-3.6056,-3.5422,-3.521,-3.3878,-3.2526,-3.1492,-3.0037,-2.8986,-2.8736,-2.9198,-2.9417,0.0,-3.0067,-3.0283,0.0,-2.8999,-2.9121,-3.0039,-2.9162,-2.9303,-3.0734,-3.0413,-3.0191,-3.0143,0.0,0.0,0.0,-3.1521,-3.1295,-3.0448,-3.0725,-3.0675,-3.0398,-3.0398,-3.0398,-3.0398,-3.0398,-3.0398,-3.0398,-3.0398,-3.0398,-3.0398,-3.0398,-3.0398,-3.0398,-3.0398,-3.0398,-3.0398,-3.0398,-3.0398,-3.0398,-3.0398,-3.0417,-3.0452,-3.0501,-3.0574,-3.0652,-3.0736,-3.082,-3.0898,-3.0898,-3.0898,-3.0898,-3.0898,-3.0215,-2.9609,-2.9609,-2.8184,-2.7266,-2.8066,0.0,0.0,0.0,0.0,0.0,0.0,-2.6551,-2.6431,0.0,-2.5989,0.0,0.0,0.0,0.0,0.0,0.0,0.0,0.0,-2.832,0.0,-3.0661,-3.0475,-3.1393,-3.341,-3.366,-3.4237,-3.5103,-3.5372,-3.5493,-3.5493,-3.5493,-3.5493,-3.5493,-3.5493,-3.5661,-3.6007,-3.7142,-3.7219,-3.6853,-3.8027,-3.793,-3.7276,-3.7209,-3.6851,-3.6412,-3.6342,-3.5892,-3.5334,-3.4737,-3.366,-3.2391,-3.0972,-2.9536,-2.8332,-2.7505,-2.7852,0.0,-2.8703,-2.9612,-3.0041,-2.9784,-2.9406,-2.9561,-3.0341,-2.9552,-2.9592,-3.0641,0.0,0.0,-3.0506,-3.1064,-3.1306,-3.1276,-3.1229,-3.0929,-3.0398,-3.0398,-3.0398,-3.0398,-3.0398,-3.0398,-3.0398,-3.0398,-3.0398,-3.0398,-3.0398,-3.0398,-3.0398,-3.0398,-3.0398,-3.0398,-3.0398,-3.0398,-3.0398,-3.0398,-3.0398,-3.0398,-3.0398,-3.0417,-3.0452,-3.0511,-3.0595,-3.0665,-3.0756,-3.084,-3.0898,-3.0898,-3.0898,-3.0898,-3.0898,-3.0469,-3.0098,-3.0098,-2.8652,-2.7754,-2.8594,0.0,-2.6491,-2.7856,0.0,0.0,0.0,0.0,0.0,0.0,-2.691,0.0,0.0,0.0,0.0,0.0,0.0,0.0,-2.876,-2.9536,0.0,-3.1552,-3.1709,-3.2594,-3.4199,-3.4526,-3.4968,-3.5493,-3.5493,-3.5493,-3.5493,-3.5493,-3.5493,-3.5493,-3.5493,-3.568,-3.6065,-3.7103,-3.7373,-3.7315,-3.8411,-3.8469,-3.8046,-3.5682,-3.5695,0.0,0.0,-3.5641,0.0,-3.3436,-3.3019,-3.1987,-2.9429,-2.839,-2.7544,-2.6621,-2.6505,-2.686,-2.7753,0.0,0.0,0.0,-2.9601,-3.0152,-2.9509,-3.0098,0.0,-3.0583,-3.0525,-3.0487,-3.0487,-3.0417,-3.0398,-3.0398,-3.0398,-3.0398,-3.0398,-3.0398,-3.0398,-3.0398,-3.0398,-3.0398,-3.0398,-3.0398,-3.0398,-3.0398,-3.0398,-3.0398,-3.0398,-3.0398,-3.0398,-3.0398,-3.0398,-3.0398,-3.0398,-3.0398,-3.0398,-3.0398,-3.0398,-3.0448,-3.0506,-3.0583,-3.0641,-3.0733,-3.0855,-3.0898,-3.0898,-3.0898,-3.0898,-3.0898,-3.0898,-3.0898,-3.0898,-3.0898,-2.9473,-2.8574,-2.9375,-2.7988,-2.7091,-2.7901,0.0,0.0,0.0,0.0,0.0,0.0,-2.7819,-2.7771,0.0,0.0,0.0,0.0,0.0,-2.8051,-2.8795,-2.9602,-3.05,-3.1493,-3.231,-3.324,-3.4295,-3.5122,-3.5493,-3.5493,-3.5493,-3.5493,-3.5493,-3.5493,-3.5532,-3.557,-3.557,-3.6065,-3.6796,-3.6873,-3.7373,-3.8104,-3.8142,-3.8161,-3.8296,0.0,0.0,-3.5622,-3.5565,-3.5545,-3.518,-3.4097,-3.3353,-3.1987,-2.9429,-2.839,-2.7313,-2.5793,-2.561,-2.5707,-2.5918,-2.7409,-2.826,-2.806,-2.7847,-2.8233,-2.9367,-2.8895,-2.9214,-3.0506,-3.0467,-3.0417,-3.0417,-3.0398,-3.0398,-3.0398,-3.0398,-3.0398,-3.0398,-3.0398,-3.0398,-3.0398,-3.0398,-3.0398,-3.0398,-3.0398,-3.0398,-3.0398,-3.0398,-3.0398,-3.0398,-3.0398,-3.0398,-3.0398,-3.0398,-3.0398,-3.0398,-3.0398,-3.0398,-3.0398,-3.0398,-3.0448,-3.0506,-3.0525,-3.0602,-3.0714,-3.0733,-3.0813,-3.0898,-3.0898,-3.0898,-3.0898,-3.0898,-3.0898,-3.0898,-3.0898,-2.9473,-2.8379,-2.8574,-2.709,-2.6179,-2.6921,-2.7026,0.0,0.0,-2.8376,-2.8772,-2.8794,-2.8772,-2.8706,0.0,0.0,0.0,0.0,0.0,-3.0765,-3.0957,-3.1749,-3.2588,-3.3492,-3.3722,-3.4274,-3.5199,-3.5411,-3.5493,-3.5493,-3.5493,-3.5493,-3.5493,-3.5493,-3.5853,-3.643,-3.643,-3.693,-3.7757,-3.8411,-3.8815,-3.9065,-3.9681,-3.9912,-3.9931,-3.5565,-3.5565,-3.5545,-3.5526,-3.518,-3.4603,-3.3737,-3.2891,-3.1718,-2.9929,-2.864,-2.7544,-2.6601,-2.5793,-2.5303,-2.5303,-2.6592,-2.7422,-2.7398,-2.7369,-2.7929,-2.9244,-2.8802,-2.911,-3.0429,-3.0417,-3.0398,-3.0398,-3.0398,-3.0398,-3.0398,-3.0398,-3.0398,-3.0398,-3.0398,-3.0398,-3.0398,-3.0398,-3.0398,-3.0398,-3.0398,-3.0398,-3.0398,-3.0398,-3.0398,-3.0398,-3.0398,-3.0398,-3.0398,-3.0398,-3.0398,-3.0398,-3.0448,-3.0448,-3.0448,-3.0487,-3.0506,-3.0506,-3.0564,-3.0641,-3.0709,-3.0773,-3.0843,-3.0898,-3.0898,-3.0898,-3.0898,-3.0898,-3.0898,-3.0898,-3.0898,-2.9473,-2.8437,-2.8828,-2.7379,-2.6456,-2.7237,-2.7677,0.0,-2.8439,-2.9256,-2.9794,-2.9794,-2.9794,-2.9917,-3.0253,0.0,0.0,-3.0677,-3.2004,-3.239,-3.159,-3.2827,-3.391,-3.4795,-3.5161,-3.5411,-3.5493,-3.5493,-3.5493,-3.5493,-3.5493,-3.5493,-3.5493,-3.5493,-3.5968,-3.6699,-3.6699,-3.745,-3.8642,-3.9123,-3.9508,-3.9892,-4.0335,-4.0489,-4.0489,-3.5493,-3.5493,-3.5493,-3.5493,-3.4776,-3.391,-3.3026,-3.2218,-3.1295,-3.0179,-2.8775,-2.7794,-2.7544,-2.6197,-2.5303,-2.5303,-2.6044,-2.6497,-2.6497,-2.718,-2.7958,-2.8767,-2.8736,-2.9198,-3.0179,-3.0321,-3.0398,-3.0398,-3.0398,-3.0398,-3.0398,-3.0398,-3.0398,-3.0398,-3.0398,-3.0398,-3.0398,-3.0398,-3.0398,-3.0398,-3.0398,-3.0398,-3.0398,-3.0398,-3.0417,-3.0417,-3.0417,-3.0417,-3.0417,-3.0417,-3.0417,-3.0448,-3.0506,-3.051,-3.0524,-3.0595,-3.0564,-3.0564,-3.066,-3.0709,-3.0757,-3.087,-3.0898,-3.0898,-3.0898,-3.0898,-3.0898,-3.0898,-3.0898,-3.0898,-3.0898,-2.9473,-2.8613,-2.9617,-2.8159,-2.7199,-2.8152,0.0,-2.9368,-2.9303,-3.0074,-3.0593,-3.0593,-3.0709,-3.1105,-3.1841,-3.1854,0.0,0.0,-3.367,-3.3336,-3.1824,-3.3478,-3.4757,-3.5474,-3.643,-3.643,-3.5493,-3.5608,-3.5622,-3.5493,-3.5493,-3.5493,-3.5526,-3.5641,-3.6142,-3.6911,-3.7046,-3.8046,-3.9469,-3.9469,-3.9892,-4.0489,-4.0489,-4.0489,-4.0489,-3.5493,-3.5493,-3.5493,-3.5493,-3.4776,-3.391,-3.3026,-3.2218,-3.0871,-2.8582,-2.8063,-2.7332,-2.587,-2.5457,-2.5303,-2.5303,-2.5428,-2.5524,-2.5524,-2.564,-2.6101,-2.6967,-2.6986,-2.7717,-2.9275,-3.0025,-3.0398,-3.0398,-3.0398,-3.0398,-3.0398,-3.0398,-3.0398,-3.0398,-3.0398,-3.0398,-3.0398,-3.0398,-3.0398,-3.0398,-3.0398,-3.0398,-3.0398,-3.0467,-3.0487,-3.0487,-3.0544,-3.0564,-3.0564,-3.0564,-3.0564,-3.0564,-3.0583,-3.0569,-3.0591,-3.0662,-3.0679,-3.066,-3.0679,-3.0775,-3.0871,-3.0898,-3.0898,-3.0898,-3.0898,-3.0898,-3.0898,-3.0898,-3.0898,-3.0898,-3.0898,-2.9473,-2.8784,-3.0297,-2.8453,-2.7338,-2.89,0.0,-2.9313,-2.9311,-3.0081,-3.06,-3.06,-3.1268,-3.1741,-3.1896,-3.2496,-3.287,-3.2859,-3.3692,-3.3978,-3.354,-3.4669,-3.5372,-3.5493,-3.7026,-3.7026,-3.5526,-3.6199,-3.6161,-3.5493,-3.5493,-3.5493,-3.5545,-3.6219,-3.7007,-3.7853,-3.8584,-3.945,-4.0296,-4.0296,-4.0392,-4.0489,-4.0489,-4.0489,-4.0489,-3.5493,-3.5493,-3.5493,-3.5493,-3.4391,-3.3353,-3.2968,-3.1814,-3.0583,-2.941,-2.8467,-2.7582,-2.6794,-2.587,-2.5303,-2.5303,-2.5303,-2.5303,-2.5303,-2.5303,-2.5687,-2.6563,-2.7044,-2.8082,-2.9756,-3.0198,-3.0398,-3.0398,-3.0398,-3.0398,-3.0398,-3.0398,-3.0398,-3.0398,-3.0398,-3.0398,-3.0398,-3.0398,-3.0398,-3.0398,-3.0448,-3.0448,-3.0467,-3.0525,-3.0548,-3.0565,-3.0585,-3.0604,-3.0604,-3.0604,-3.0604,-3.0606,-3.064,-3.0653,-3.0675,-3.0783,-3.0817,-3.0817,-3.0817,-3.0852,-3.0898,-3.0898,-3.0898,-3.0898,-3.0898,-3.0898,-3.0898,-3.0898,-3.0898,-3.0898,-3.0898,-2.9863,-2.923,-2.994,-2.9033,0.0,0.0,-2.9794,-3.0123,-3.01,-3.0911,-3.146,-3.146,-3.2221,-3.2907,-3.3375,-3.3685,-3.3993,-3.4334,-3.4686,-3.4864,-3.4755,-3.6133,-3.6853,-3.6853,-3.8084,-3.8084,-3.6853,-3.7219,-3.7219,-3.6834,-3.6372,-3.6411,-3.6834,-3.6738,-3.7469,-3.8719,-3.9123,-3.9758,-4.0489,-4.0489,-4.0489,-4.0489,-4.0489,-4.0489,-4.0489,-3.5493,-3.5493,-3.5449,-3.5238,-3.393,-3.2833,-3.2641,-3.1371,-3.0321,-3.0121,-2.8813,-2.7813,-2.7621,-2.6217,-2.5303,-2.5303,-2.5303,-2.5303,-2.5303,-2.5303,-2.5591,-2.6274,-2.7281,-2.8507,-3.0004,-3.0215,-3.0311,-3.0311,-3.0367,-3.0398,-3.0398,-3.0398,-3.0398,-3.0398,-3.0398,-3.0398,-3.0398,-3.0398,-3.0398,-3.0417,-3.0487,-3.0502,-3.0518,-3.0606,-3.0627,-3.0632,-3.0653,-3.0672,-3.0672,-3.0672,-3.0808,-3.0989,-3.1025,-3.1051,-3.1109,-3.1409,-3.1349,-3.1152,-3.0957,-3.0898,-3.0898,-3.0898,-3.0898,-3.0898,-3.0898,-3.0898,-3.0898,-3.0898,-3.0898,-3.0898,-3.0898,-3.0195,-2.9713,-3.0028,0.0,0.0,0.0,-3.0439,-3.0859,-3.1103,-3.1769,-3.2266,-3.2461,-3.3223,-3.3963,-3.4622,-3.4929,-3.5271,-3.5655,-3.5738,-3.5872,-3.6084,-3.7334,-3.8007,-3.8007,-3.9046,-3.9046,-3.8007,-3.82,-3.82,-3.7969,-3.7103,-3.7065,-3.768,-3.7199,-3.7757,-3.9027,-3.9411,-3.9931,-4.0489,-4.0489,-4.0489,-4.0489,-4.0489,-4.0489,-4.0489,-3.5493,-3.5493,-3.5257,-3.443,-3.3526,-3.2641,-3.191,-3.1006,-3.0121,-2.9294,-2.8429,-2.7582,-2.6774,-2.587,-2.5303,-2.5303,-2.5303,-2.5303,-2.5303,-2.5303,-2.5322,-2.538,-2.6783,-2.7973,-2.8902,-2.9646,-3.0028,-3.0028,-3.0267,-3.0398,-3.0398,-3.0398,-3.0398,-3.0398,-3.0398,-3.0398,-3.0398,-3.0398,-3.0448,-3.0487,-3.0506,-3.054,-3.0607,-3.0664,-3.0691,-3.0702,-3.0827,-3.0878,-3.0878,-3.0878,-3.1406,-3.2089,-3.2088,-3.2087,-3.2243,-3.2985,-3.2695,-3.1934,-3.1113,-3.0898,-3.0898,-3.0898,-3.0898,-3.0898,-3.0898,-3.0898,-3.0898,-3.0898,-3.0898,-3.0898,-3.0898,-3.0195,-3.0098,-3.1561,0.0,0.0,-3.1577,-3.1167,-3.1041,-3.1983,-3.2168,-3.248,-3.3242,-3.4101,-3.4612,-3.4615,-3.598,-3.6455,-3.5655,-3.6257,-3.6988,-3.7796,-3.793,-3.8007,-3.8007,-3.9604,-3.9604,-3.8007,-3.8815,-3.8777,-3.7969,-3.7103,-3.6738,-3.6853,-3.7584,-3.7988,-3.8219,-3.9758,-4.045,-4.0489,-4.0489,-4.0489,-4.0489,-4.0489,-4.0489,-4.0489,-3.5493,-3.5493,-3.5238,-3.4353,-3.3468,-3.2622,-3.1814,-3.0968,-3.0294,-2.9948,-2.9159,-2.8332,-2.7505,-2.664,-2.589,-2.5341,-2.5303,-2.5303,-2.5303,-2.5303,-2.5704,-2.6618,-2.7204,-2.8094,-2.932,-2.9661,-2.9877,-2.9999,-3.0089,-3.0241,-3.0398,-3.0398,-3.0398,-3.0398,-3.0398,-3.0398,-3.0398,-3.0448,-3.0487,-3.0506,-3.0583,-3.097,-3.1419,-3.0981,-3.1164,-3.1566,-3.1071,-3.125,-3.1719,-3.1719,-3.2266,-3.2851,-3.2363,-3.2207,-3.2148,-3.1914,-3.1621,-3.1328,-3.0996,-3.0898,-3.0898,-3.0898,-3.0898,-3.0898,-3.0898,-3.0898,-3.0898,-3.0898,-3.1328,-3.1719,-3.1719,-3.1836,-3.2148,-3.2715,0.0,-3.2091,-3.2721,-3.2566,-3.2526,-3.2909,-3.3418,-3.3867,-3.418,-3.4998,-3.5485,-3.5405,-3.59,-3.6021,-3.5622,-3.5834,-3.6584,-3.7969,-3.8007,-3.8507,-3.9527,-4.0181,-4.0181,-3.9546,-3.9892,-3.9873,-3.9508,-3.8681,-3.8315,-3.8334,-3.8661,-3.8815,-3.8892,-4.0027,-4.0489,-4.0489,-4.0489,-4.0489,-4.0489,-4.0489,-4.0489,-4.0489,-3.5493,-3.5276,-3.4814,-3.393,-3.3083,-3.2237,-3.1429,-3.0794,-3.0398,-3.0398,-2.964,-2.889,-2.8332,-2.7525,-2.6774,-2.6178,-2.612,-2.612,-2.612,-2.603,-2.6431,-2.7464,-2.7622,-2.8277,-2.957,-2.9661,-2.9763,-2.9908,-3.0047,-3.0209,-3.0398,-3.0398,-3.0398,-3.0398,-3.0417,-3.0583,-3.0845,-3.0922,-3.1114,-3.1395,-3.1472,-3.1902,-3.238,-3.188,-3.2051,-3.25,-3.1894,-3.207,-3.2578,-3.2578,-3.3125,-3.3711,-3.3164,-3.2988,-3.2715,-3.1309,-3.1094,-3.125,-3.0976,-3.0898,-3.0898,-3.0898,-3.0898,-3.0898,-3.0898,-3.1113,-3.1309,-3.1309,-3.1973,-3.2578,-3.2578,-3.3027,-3.3379,-3.334,-3.3379,-3.3485,-3.3704,-3.3539,-3.3594,-3.4141,-3.4492,-3.4801,-3.5088,-3.5621,-3.5926,-3.5832,-3.5997,-3.6045,-3.5949,-3.5661,-3.6276,-3.795,-3.8007,-3.8796,-4.0469,-4.0489,-4.0489,-4.0489,-4.0489,-4.0489,-4.0469,-3.9662,-3.9296,-3.9296,-3.9296,-3.9296,-3.9354,-4.0162,-4.0335,-4.0142,-4.0392,-4.0335,-4.0142,-4.0412,-4.0489,-4.0489,-3.5493,-3.4795,-3.391,-3.3045,-3.2237,-3.141,-3.0533,-3.0398,-3.0398,-3.0398,-2.964,-2.9102,-2.9102,-2.839,-2.7909,-2.789,-2.789,-2.789,-2.789,-2.7663,-2.7508,-2.7508,-2.788,-2.8517,-2.9394,-2.9607,-2.9696,-2.9713,-3.0174,-3.0398,-3.0398,-3.0398,-3.0398,-3.0398,-3.0487,-3.0999,-3.1792,-3.1869,-3.2439,-3.3292,-3.3284,-3.3342,-3.3418,-3.3398,-3.3398,-3.3418,-3.3398,-3.3398,-3.3418,-3.3418,-3.3984,-3.4707,-3.4687,-3.4687,-3.418,-3.1641,-3.1504,-3.1992,-3.1133,-3.0898,-3.0918,-3.0898,-3.0898,-3.0898,-3.0918,-3.1582,-3.2207,-3.2207,-3.2851,-3.3418,-3.3418,-3.3418,-3.3418,-3.3418,-3.3418,-3.3711,-3.459,-3.3965,-3.4062,-3.5781,-3.5234,-3.5057,-3.592,-3.5949,-3.584,-3.5709,-3.6435,-3.682,-3.6719,-3.5949,-3.6276,-3.795,-3.8007,-3.8815,-4.0469,-4.0489,-4.0489,-4.0489,-4.0489,-4.0489,-4.0469,-3.9662,-3.9296,-3.9296,-3.9296,-3.9296,-3.9354,-4.0162,-4.0027,-3.9392,-4.0181,-4.0008,-3.9411,-4.02,-4.0489,-4.0489,-3.5391,-3.4314,-3.3218,-3.2949,-3.2237,-3.141,-3.0533,-3.0398,-3.0398,-3.0398,-3.0179,-2.9775,-2.9159,-2.889,-2.8506,-2.7948,-2.789,-2.789,-2.789,-2.8218,-2.8398,-2.8398,-2.835,-2.8652,-2.9394,-2.9607,-2.9763,-2.9908,-3.0047,-3.0209,-3.0398,-3.0398,-3.0417,-3.0506,-3.1133,-3.1235,-3.1041,-3.2336,-3.2682,-3.2397,-3.2491,-3.3248,-3.418,-3.3008,-3.3281,-3.4238,-3.3613,-3.3789,-3.4316,-3.4316,-3.4883,-3.5391,-3.418,-3.3398,-3.2676,-3.1309,-3.1074,-3.123,-3.0976,-3.1348,-3.168,-3.1055,-3.0898,-3.1055,-3.168,-3.2012,-3.2363,-3.293,-3.3711,-3.4316,-3.4316,-3.4805,-3.5215,-3.5215,-3.5215,-3.5312,-3.5586,-3.5391,-3.543,-3.5937,-3.5762,-3.5717,-3.5974,-3.6454,-3.6449,-3.5743,-3.583,-3.6147,-3.668,-3.6469,-3.6853,-3.7969,-3.8584,-3.9142,-3.9642,-4.0219,-4.0489,-4.0489,-4.0489,-4.0489,-4.0489,-4.0239,-3.9815,-3.9315,-3.9892,-3.9815,-3.9354,-4.0162,-4.0354,-4.0162,-4.0412,-4.0335,-4.0162,-4.0412,-4.0489,-4.0489,-3.4372,-3.3622,-3.2891,-3.2891,-3.2237,-3.1525,-3.0987,-3.0609,-3.0398,-3.0398,-3.0398,-3.0198,-2.9679,-2.9602,-2.9429,-2.8929,-2.889,-2.889,-2.889,-2.9136,-2.927,-2.927,-2.9133,-2.9202,-2.9514,-2.9713,-2.9877,-2.9999,-3.0122,-3.0241,-3.0398,-3.0398,-3.0448,-3.0544,-3.1438,-3.1786,-3.1751,-3.3223,-3.375,-3.355,-3.3309,-3.4004,-3.5078,-3.3711,-3.4023,-3.5156,-3.4629,-3.4766,-3.5215,-3.5215,-3.5332,-3.5234,-3.3848,-3.2851,-3.2031,-3.1152,-3.0898,-3.0898,-3.0898,-3.1543,-3.207,-3.1543,-3.1641,-3.1934,-3.2148,-3.2715,-3.332,-3.3809,-3.4609,-3.5215,-3.5215,-3.5644,-3.5996,-3.5996,-3.5996,-3.5996,-3.5996,-3.5996,-3.5996,-3.5996,-3.6004,-3.599,-3.596,-3.6325,-3.6421,-3.6122,-3.6026,-3.6353,-3.718,-3.7219,-3.7603,-3.8488,-3.9027,-3.945,-3.9758,-4.0258,-4.0489,-4.0489,-4.0489,-4.0489,-4.0489,-4.0489,-4.0219,-3.9796,-4.0277,-4.0219,-3.9796,-4.0296,-4.0296,-4.0046,-4.0373,-4.0296,-4.0046,-4.0373,-4.0489,-4.0489,-3.2891,-3.2776,-3.2699,-3.2776,-3.2122,-3.1583,-3.1583,-3.091,-3.0398,-3.0398,-3.0398,-3.0398,-3.0398,-3.0398,-3.0398,-3.0398,-3.0398,-3.0398,-3.0398,-3.0163,-3.0047,-3.0047,-3.0047,-2.9939,-2.9765,-2.9939,-3.0047,-3.0047,-3.0267,-3.0398,-3.0398,-3.0398,-3.0448,-3.0556,-3.1561,-3.2404,-3.316,-3.4248,-3.5117,-3.5703,-3.4902,-3.5156,-3.5898,-3.5039,-3.5234,-3.5996,-3.5996,-3.5996,-3.5996,-3.5918,-3.5351,-3.4531,-3.3594,-3.2793,-3.2031,-3.1152,-3.0957,-3.1016,-3.1016,-3.1699,-3.2402,-3.2324,-3.2988,-3.3418,-3.2617,-3.3594,-3.4726,-3.4805,-3.5449,-3.6016,-3.6094,-3.6113,-3.6113,-3.6113,-3.6172,-3.6211,-3.6133,-3.6172,-3.6191,-3.6133,-3.6118,-3.6059,-3.5911,-3.5844,-3.6115,-3.6881,-3.6873,-3.7161,-3.7969,-3.8065,-3.8469,-3.9258,-3.9373,-3.9758,-4.0489,-4.0489,-4.0489,-4.0489,-4.0489,-4.0489,-4.0489,-4.0489,-4.0489,-4.0489,-4.0489,-4.0489,-4.0489,-4.0489,-4.0065,-3.9469,-4.02,-4.0046,-3.9488,-4.0219,-4.0489,-4.0489,-3.2776,-3.1852,-3.116,-3.1833,-3.1256,-3.0679,-3.0679,-3.0513,-3.0398,-3.0398,-3.0398,-3.0398,-3.0398,-3.0398,-3.0398,-3.0398,-3.0398,-3.0398,-3.0398,-3.0355,-3.0311,-3.0311,-3.0311,-3.0299,-3.026,-3.0299,-3.0311,-3.0311,-3.0367,-3.0398,-3.0398,-3.0398,-3.0467,-3.0652,-3.221,-3.2352,-3.1563,-3.3767,-3.4414,-3.3945,-3.3769,-3.4609,-3.5898,-3.5039,-3.5234,-3.5996,-3.5996,-3.5996,-3.5898,-3.5215,-3.4863,-3.4434,-3.293,-3.2344,-3.2031,-3.1152,-3.1387,-3.1914,-3.1914,-3.3008,-3.3984,-3.3301,-3.4297,-3.5215,-3.4355,-3.4434,-3.4883,-3.5586,-3.5879,-3.6211,-3.6894,-3.7012,-3.7012,-3.7012,-3.7598,-3.7793,-3.7109,-3.7617,-3.7773,-3.7109,-3.702,-3.6727,-3.5982,-3.6344,-3.7211,-3.8638,-3.8104,-3.7796,-3.7988,-3.8642,-3.9104,-3.9277,-3.9912,-4.0315,-4.0489,-4.0489,-4.0489,-4.0489,-4.0489,-4.0489,-4.0489,-4.0489,-4.0489,-4.0489,-4.0489,-4.0489,-4.0489,-4.0489,-4.0392,-4.0258,-4.0431,-4.0392,-4.0258,-4.0431,-4.0489,-4.0489,-3.1621,-3.1352,-3.116,-3.1621,-3.1314,-3.1025,-3.1025,-3.0679,-3.0398,-3.0398,-3.0398,-3.0398,-3.0398,-3.0398,-3.0398,-3.0398,-3.0398,-3.0398,-3.0398,-3.0398,-3.0398,-3.0398,-3.0398,-3.0398,-3.0398,-3.0398,-3.0398,-3.0398,-3.0398,-3.0398,-3.0398,-3.0398,-3.0467,-3.0671,-3.2431,-3.2787,-3.2207,-3.3965,-3.4687,-3.457,-3.373,-3.4199,-3.5332,-3.4863,-3.498,-3.543,-3.5859,-3.5996,-3.5879,-3.498,-3.4414,-3.3867,-3.2598,-3.1914,-3.1562,-3.1523,-3.1836,-3.2285,-3.2676,-3.3711,-3.459,-3.4121,-3.5019,-3.5762,-3.4902,-3.5019,-3.5566,-3.6445,-3.6621,-3.6894,-3.7754,-3.793,-3.793,-3.793,-3.8301,-3.8437,-3.7988,-3.8301,-3.8437,-3.7969,-3.791,-3.7684,-3.7112,-3.7276,-3.795,-3.92,-3.8873,-3.8796,-3.9161,-3.9623,-3.9873,-3.9873,-4.0277,-4.0489,-4.0489,-4.0489,-4.0489,-4.0489,-4.0489,-4.0489,-4.0489,-4.0489,-4.0489,-4.0489,-4.0489,-4.0489,-4.0489,-4.0489,-4.0489,-4.0489,-4.0489,-4.0489,-4.0489,-4.0489,-4.0258,-3.9873,-3.0398,-3.0987,-3.1487,-3.1487,-3.1487,-3.1487,-3.1487,-3.0871,-3.0398,-3.0398,-3.0398,-3.0398,-3.0398,-3.0398,-3.0398,-3.0398,-3.0398,-3.0398,-3.0398,-3.0398,-3.0398,-3.0398,-3.0398,-3.0398,-3.0398,-3.0398,-3.0398,-3.0398,-3.0398,-3.0398,-3.0398,-3.0552,-3.0698,-3.0883,-3.2645,-3.3415,-3.3437,-3.4336,-3.5117,-3.5644,-3.4043,-3.3926,-3.4687,-3.4531,-3.457,-3.4785,-3.5527,-3.5781,-3.5664,-3.4941,-3.4121,-3.3262,-3.2441,-3.1797,-3.1445,-3.2031,-3.2402,-3.2773,-3.3437,-3.4258,-3.4922,-3.4922,-3.5469,-3.5801,-3.5098,-3.5488,-3.625,-3.7129,-3.7305,-3.7617,-3.8633,-3.8828,-3.8828,-3.8828,-3.8945,-3.8984,-3.8848,-3.8945,-3.8983,-3.8832,-3.8661,-3.853,-3.8493,-3.8334,-3.8584,-3.9431,-3.9508,-3.9796,-4.045,-4.0489,-4.0489,-4.0489,-4.0489,-4.0489,-4.0489,-4.0489,-4.0489,-4.0489,-4.0489,-4.0489,-4.0489,-4.0489,-4.0489,-4.0489,-4.0489,-4.0489,-4.0489,-4.0489,-4.0489,-4.0489,-4.0489,-4.0489,-4.0489,-4.0489,-4.0065,-3.9373,-3.0398,-3.0494,-3.0571,-3.0571,-3.0571,-3.0571,-3.0571,-3.0475,-3.0398,-3.0398,-3.0398,-3.0398,-3.0398,-3.0398,-3.0398,-3.0398,-3.0398,-3.0398,-3.0398,-3.0398,-3.0398,-3.0398,-3.0398,-3.0398,-3.0398,-3.0398,-3.0398,-3.0398,-3.0398,-3.0398,-3.0417,-3.1179,-3.1552,-3.1718,-3.3518,-3.3942,-3.3379,-3.4316,-3.4766,-3.4785,-3.3809,-3.3926,-3.4629,-3.3867,-3.4043,-3.4726,-3.4824,-3.4883,-3.4863,-3.4746,-3.4121,-3.3262,-3.2441,-3.2598,-3.2949,-3.2363,-3.3223,-3.4394,-3.4492,-3.5156,-3.582,-3.582,-3.5918,-3.5976,-3.5859,-3.5918,-3.625,-3.7129,-3.7305,-3.7793,-3.9414,-3.9726,-3.9726,-3.9726,-4.0351,-4.0586,-3.9824,-4.0371,-4.0577,-3.9811,-3.8908,-3.8588,-3.9196,-3.9181,-3.945,-4.0277,-4.0335,-4.0392,-4.0489,-4.0489,-4.0489,-4.0489,-4.0489,-4.0489,-4.0489,-4.0489,-4.0489,-4.0489,-4.0489,-4.0489,-4.0489,-4.0489,-4.0489,-4.0489,-4.0489,-4.0489,-4.0489,-4.0489,-4.0489,-4.0489,-4.0489,-4.0489,-4.0489,-4.0489,-4.0431,-4.0219,-3.0398,-3.0462,-3.0491,-3.0414,-3.0398,-3.0398,-3.0398,-3.0398,-3.0398,-3.0398,-3.0398,-3.0398,-3.0398,-3.0398,-3.0398,-3.0398,-3.0398,-3.0398,-3.0398,-3.0398,-3.0398,-3.0398,-3.0398,-3.0398,-3.0398,-3.0398,-3.0398,-3.0398,-3.0398,-3.0398,-3.0398,-3.0794,-3.1499,-3.2447,-3.3014,-3.3303,-3.3418,-3.416,-3.4844,-3.5273,-3.3457,-3.3223,-3.3926,-3.3555,-3.3633,-3.4043,-3.4531,-3.4707,-3.4629,-3.4141,-3.3418,-3.2754,-3.2832,-3.2812,-3.2832,-3.3437,-3.4121,-3.4805,-3.5293,-3.5703,-3.5996,-3.5996,-3.5996,-3.6133,-3.6621,-3.6738,-3.6973,-3.7851,-3.8027,-3.8555,-4.0293,-4.0625,-4.0625,-4.0625,-4.0957,-4.1074,-4.0684,-4.0957,-4.1035,-4.0574,-4.0036,-3.9812,-4.01,-4.0027,-4.0104,-4.0469,-4.0489,-4.0489,-4.0489,-4.0489,-4.0489,-4.0489,-4.0489,-4.0489,-4.0489,-4.0489,-4.0489,-4.0489,-4.0489,-4.0489,-4.0489,-4.0489,-4.0489,-4.0489,-4.0489,-4.0489,-4.0489,-4.0489,-4.0489,-4.045,-4.0008,-3.9527,-3.9104,-3.9104,-3.8796,-3.8257]}]]